     2.11           OBSERVATION DATA    G (GPS)             RINEX VERSION / TYPE
teqc 2010Oct21 20110906 13:41:32UTC                         PGM / RUN BY / DATE
MSXP|IAx86-PII|bcc32 5.0|MSWin95->XP|486/DX+                COMMENT
BIT 2 OF LLI FLAGS DATA COLLECTED UNDER A/S CONDITION       COMMENT
THU4                                                        MARKER NAME
43001M003                                                   MARKER NUMBER
-Unknown- -Unknown-                                         OBSERVER / AGENCY
496095 LEICA GRX1200+ 8.20/4.007                            REC # / TYPE / VERS
LEIAR25.R3 LEIT                                             ANT # / TYPE
   538093.6572 -1389081.2333  6180980.0248                  APPROX POSITION XYZ
        0.1514        0.0000        0.0000                  ANTENNA: DELTA H/E/N
     1     1                                                WAVELENGTH FACT L1/2
     6    L1    L2    C1    P2    S1    S2                  # / TYPES OF OBSERV
    15.0000                                                 INTERVAL
Standard                                                    COMMENT
Project creator:                                            COMMENT
Finn Bo Madsen                                              COMMENT
SNR is mapped to RINEX snr flag value [0-9]                 COMMENT
L1 & L2: min(max(int(snr_dBHz/6), 0), 9)                    COMMENT
  2011     9     3     0     0    0.0000000     GPS         TIME OF FIRST OBS
                                                            END OF HEADER
 11  9  3  0  0  0.0000000  0 12G12G04G20G25G29G13G31G05G30G02G23G10
 120585752.992 8  93962920.46247  22946703.420    22946699.700          49.050
        43.550
 110644306.985 8  86216359.44047  21054895.920    21054892.220          50.800
        47.400
 127077214.885 7  99021206.32046  24181982.940    24181979.240          45.950
        37.550
 115985782.974 8  90378557.07247  22071355.460    22071354.680          50.850
        46.800
 125935898.244 7  98131869.53746  23964799.580    23964798.160          46.850
        41.350
 119702884.726 8  93274961.17446  22778700.280    22778696.540          48.100
        40.300
 120475965.705 8  93877375.43247  22925807.900    22925803.060          49.300
        44.350
 134005471.459 7 104419845.48846  25500393.880    25500391.720          44.950
        36.900
 115189283.998 8  89757880.82047  21919787.860    21919784.700          49.950
        45.150
 112505567.953 8  87666675.58647  21409081.880    21409075.920          50.700
        47.450
 116659567.420 8  90903536.95847  22199575.340    22199569.220          50.450
        44.750
 113672177.358 8  88575733.90447  21631087.920    21631084.120          50.150
        45.400
 11  9  3  0  0 15.0000000  0 12G12G04G20G25G29G13G31G05G30G02G23G10
 120627682.066 8  93995592.43947  22954682.260    22954678.580          49.200
        43.800
 110670792.772 8  86236997.70047  21059936.000    21059932.320          50.850
        47.200
 127131112.852 7  99063204.78346  24192239.280    24192235.720          45.400
        37.000
 115996489.741 8  90386900.02147  22073392.860    22073392.100          50.900
        46.800
 125883648.698 7  98091155.72446  23954856.800    23954855.180          47.150
        40.700
 119662047.259 8  93243139.81546  22770929.140    22770925.500          48.600
        41.650
 120486915.208 8  93885907.51047  22927891.520    22927886.800          49.200
        44.250
 133945391.579 7 104373030.00446  25488961.160    25488959.260          45.300
        37.950
 115193176.800 8  89760914.13147  21920528.680    21920525.420          50.150
        45.000
 112476108.521 8  87643720.19047  21403475.960    21403470.020          50.600
        47.250
 116645875.877 8  90892868.24347  22196969.860    22196963.700          50.600
        44.900
 113637081.704 8  88548386.67047  21624409.440    21624405.540          50.250
        45.650
 11  9  3  0  0 30.0000000  0 12G12G04G20G25G29G13G31G05G30G02G23G10
 120669724.712 8  94028352.93447  22962682.700    22962679.240          49.200
        43.650
 110697421.639 8  86257747.46147  21065003.380    21064999.700          50.950
        47.300
 127185074.622 7  99105252.97946  24202507.820    24202504.180          44.850
        36.900
 116007363.253 8  90395372.92047  22075462.000    22075461.260          51.100
        46.700
 125831465.444 7  98050493.56746  23944926.580    23944925.000          47.850
        40.050
 119621336.074 8  93211416.81746  22763182.100    22763178.640          49.000
        41.400
 120498024.100 8  93894563.76547  22930005.420    22930000.680          49.300
        44.300
 133885327.740 6 104326226.48245  25477531.760    25477529.520          40.650
        31.700
 115197251.641 8  89764089.26647  21921304.180    21921300.780          50.200
        44.600
 112446774.687 8  87620862.65548  21397893.960    21397888.040          51.100
        48.300
 116632345.209 8  90882324.93547  22194394.960    22194388.800          50.650
        44.700
 113602126.508 8  88521148.86947  21617757.700    21617753.720          50.400
        45.450
 11  9  3  0  0 45.0000000  0 12G12G04G20G25G29G13G31G05G30G02G23G10
 120711861.247 8  94061186.60847  22970701.020    22970697.620          49.400
        43.400
 110724174.055 8  86278593.50847  21070094.260    21070090.600          50.950
        47.100
 127239080.708 7  99147335.70345  24212784.700    24212781.260          44.300
        35.500
 116018384.011 8  90403960.53047  22077559.200    22077558.460          51.250
        46.800
 125779329.628 7  98009868.36046  23935005.440    23935003.380          47.800
        40.850
 119580732.375 8  93179777.64746  22755455.540    22755452.080          49.300
        41.250
 120509272.992 8  93903329.08947  22932145.980    22932141.060          49.250
        44.050
 133825263.360 7 104279423.54446  25466101.580    25466100.260          42.950
        37.200
 115201489.299 8  89767391.30647  21922110.620    21922107.160          50.100
        44.950
 112417547.365 8  87598088.11047  21392332.240    21392326.320          50.850
        47.350
 116618955.944 8  90871891.69947  22191846.980    22191840.820          50.650
        44.600
 113567292.812 8  88494005.74247  21611129.020    21611125.200          50.150
        45.600
 11  9  3  0  1  0.0000000  0 12G12G04G20G25G29G13G31G05G30G02G23G10
 120754107.993 8  94094106.15547  22978740.360    22978736.840          49.550
        44.100
 110751066.423 8  86299548.62447  21075211.720    21075208.160          50.900
        47.300
 127293147.414 7  99189465.68346  24223073.120    24223069.820          44.550
        37.350
 116029568.602 8  90412675.79847  22079687.600    22079686.820          51.150
        46.900
 125727258.154 7  97969293.32546  23925096.520    23925094.480          47.250
        39.600
 119540253.154 8  93148235.42446  22747752.680    22747749.140          49.400
        41.400
 120520678.464 8  93912216.46947  22934316.340    22934311.260          49.100
        43.550
 133765213.313 7 104232631.71945  25454674.240    25454673.300          45.350
        35.900
 115205906.345 8  89770833.12647  21922951.180    21922947.760          50.150
        44.300
 112388443.349 8  87575409.67147  21386794.000    21386787.980          50.900
        47.300
 116605725.617 8  90861582.43347  22189329.280    22189323.200          50.550
        44.200
 113532597.628 8  88466970.60147  21604526.640    21604523.040          50.000
        45.600
 11  9  3  0  1 15.0000000  0 12G12G04G20G25G29G13G31G05G30G02G23G10
 120796458.931 8  94127106.89647  22986799.580    22986795.940          49.800
        43.750
 110778092.732 8  86320608.07747  21080354.620    21080351.100          50.850
        47.300
 127347268.733 7  99231638.21546  24233371.980    24233368.780          45.000
        36.550
 116040911.241 8  90421514.19247  22081846.080    22081845.160          51.300
        47.000
 125675245.618 7  97928764.18746  23915198.720    23915196.640          47.400
        40.650
 119499892.950 8  93116785.92046  22740072.480    22740068.920          49.650
        41.350
 120532234.733 8  93921221.34847  22936515.380    22936510.340          49.250
        43.950
 133705172.341 6 104185846.32645  25443248.760    25443246.620          39.450
        35.950
 115210497.015 8  89774410.24147  21923824.740    21923821.440          50.050
        45.000
 112359457.073 8  87552822.98147  21381278.120    21381272.060          51.100
        47.700
 116592647.928 8  90851392.01347  22186840.680    22186834.440          50.850
        44.650
 113498035.305 8  88440038.99847  21597949.520    21597946.180          50.100
        45.350
 11  9  3  0  1 30.0000000  0 12G12G04G20G25G29G13G31G05G30G02G23G10
 120838916.562 8  94160190.75647  22994879.080    22994875.460          49.750
        43.450
 110805255.524 8  86341773.79747  21085523.520    21085520.000          50.850
        47.250
 127401446.908 7  99273855.06746  24243681.580    24243678.300          44.700
        36.000
 116052414.532 8  90430477.79547  22084035.160    22084034.100          51.150
        46.850
 125623295.131 7  97888283.41146  23905312.760    23905310.620          47.200
        39.800
 119459654.805 8  93085431.52946  22732415.480    22732411.760          49.700
        41.150
 120543944.295 8  93930345.69647  22938743.600    22938738.720          49.350
        43.950
 133645143.414 7 104139070.73746  25431825.180    25431823.580          44.850
        38.200
 115215264.032 8  89778124.83247  21924731.840    21924728.580          50.000
        45.000
 112330591.602 8  87530330.41847  21375785.200    21375779.100          50.850
        47.200
 116579725.972 8  90841322.96547  22184381.760    22184375.460          50.800
        44.550
 113463608.745 8  88413213.14247  21591398.240    21591394.980          50.100
        46.100
 11  9  3  0  1 45.0000000  0 12G12G04G20G25G29G13G31G05G30G02G23G10
 120881477.039 8  94193354.75347  23002978.120    23002974.560          49.650
        43.150
 110832551.035 8  86363042.88547  21090717.760    21090714.200          51.050
        47.150
 127455678.160 7  99316113.22046  24254001.360    24253998.180          44.500
        36.050
 116064074.944 8  90439563.83047  22086254.080    22086252.980          51.250
        46.700
 125571403.487 7  97847848.47246  23895437.940    23895435.620          47.400
        39.850
 119419535.481 8  93054169.68646  22724781.080    22724777.240          49.750
        40.900
 120555803.743 8  93939586.83147  22941000.340    22940995.620          49.300
        43.300
 133585124.036 7 104092302.60545  25420403.900    25420402.580          42.400
        31.950
 115220203.881 8  89781974.10147  21925671.800    21925668.640          49.950
        44.850
 112301843.599 8  87507929.36947  21370314.600    21370308.480          50.950
        47.150
 116566956.265 8  90831372.54647  22181951.820    22181945.480          50.750
        44.650
 113429314.867 8  88386490.66647  21584872.240    21584869.100          50.200
        45.400
 11  9  3  0  2  0.0000000  0 12G12G04G20G25G29G13G31G05G30G02G23G10
 120924143.836 8  94226601.60847  23011097.380    23011093.840          49.550
        43.900
 110859983.289 8  86384418.64847  21095938.020    21095934.440          50.950
        47.300
 127509966.052 7  99358415.51346  24264331.900    24264328.780          44.250
        39.300
 116075896.217 8  90448775.21647  22088503.600    22088502.520          51.000
        46.650
 125519574.743 7  97807462.54446  23885575.040    23885572.820          47.050
        40.250
 119379539.477 8  93023003.97746  22717170.180    22717166.080          49.600
        40.550
 120567816.820 8  93948947.66247  22943286.280    22943281.600          49.050
        43.750
 133525117.716 6 104045544.56344  25408984.720    25408983.280          41.200
        24.750
 115225320.225 8  89785960.85147  21926645.420    21926642.240          50.100
        44.650
 112273217.235 8  87485623.09747  21364867.140    21364860.960          50.950
        47.900
 116554342.803 8  90821543.81047  22179551.540    22179545.300          50.450
        44.000
 113395157.938 8  88359874.93547  21578372.260    21578369.260          50.050
        45.850
 11  9  3  0  2 15.0000000  0 12G12G04G20G25G29G13G31G05G30G02G23G10
 120966914.375 8  94259929.29347  23019236.340    23019232.680          49.950
        42.900
 110887549.653 8  86405898.94147  21101183.780    21101180.200          51.250
        46.800
 127564308.093 7  99400760.01445  24274672.740    24274669.680          45.350
        35.600
 116087875.945 8  90458110.06147  22090783.240    22090782.160          51.500
        46.550
 125467806.921 7  97767124.08446  23875723.780    23875721.820          47.050
        39.900
 119339664.712 8  92991932.74946  22709582.240    22709577.940          49.750
        39.200
 120579981.071 8  93958426.29147  22945600.960    22945596.400          49.600
        42.850
 133465122.689 7 103998795.16946  25397568.000    25397566.200          46.050
        37.250
 115230610.958 8  89790083.54747  21927652.260    21927649.100          50.550
        44.400
 112244710.543 8  87463410.12947  21359442.440    21359436.300          50.900
        46.150
 116541883.707 8  90811835.40647  22177180.620    22177174.520          50.850
        44.650
 113361135.829 8  88333364.24247  21571898.020    21571895.060          50.700
        45.700
 11  9  3  0  2 30.0000000  0 12G12G04G20G25G29G13G31G05G30G02G23G10
 121009787.826 8  94293337.16347  23027394.880    23027391.260          49.100
        43.550
 110915249.312 8  86427483.07347  21106454.860    21106451.300          50.650
        47.300
 127618703.483 7  99443146.15046  24285023.760    24285020.660          44.300
        38.500
 116100013.498 8  90467567.90947  22093092.900    22093091.860          50.950
        46.850
 125416099.924 7  97726833.02446  23865884.140    23865882.400          46.600
        40.350
 119299911.099 8  92960955.98646  22702017.360    22702012.880          48.750
        39.550
 120592295.842 8  93968022.22247  22947944.360    22947939.760          49.000
        43.350
 133405138.522 6 103952054.42145  25386153.240    25386152.100          40.900
        35.100
 115236075.430 8  89794341.66447  21928692.140    21928688.960          50.000
        45.750
 112216323.110 8  87441290.11747  21354040.480    21354034.380          50.600
        47.000
 116529578.411 8  90802246.85147  22174838.940    22174833.020          50.200
        44.850
 113327248.029 8  88306958.13347  21565449.380    21565446.360          50.000
        46.000
 11  9  3  0  2 45.0000000  0 12G12G04G20G25G29G13G31G05G30G02G23G10
 121052766.623 8  94326827.10547  23035573.500    23035569.840          49.550
        42.700
 110943084.857 8  86449173.14047  21111751.780    21111748.280          51.000
        46.950
 127673154.542 7  99485575.63346  24295385.380    24295382.380          45.700
        37.400
 116112311.553 8  90477150.82747  22095433.100    22095432.080          51.300
        46.200
 125364456.801 8  97686591.74046  23856056.680    23856055.040          48.400
        40.400
 119260281.602 8  92930075.93446  22694475.980    22694471.580          49.000
        39.700
 120604763.679 8  93977737.43047  22950316.980    22950312.140          49.700
        42.800
 133345168.265 7 103905324.44845  25374741.060    25374739.740          44.900
        33.050
 115241716.283 8  89798737.22547  21929765.600    21929762.300          50.550
        44.900
 112188057.911 8  87419265.35847  21348661.760    21348655.640          50.900
        46.950
 116517429.733 8  90792780.37447  22172527.120    22172521.200          50.650
        44.350
 113293497.894 8  88280659.33147  21559026.940    21559023.860          50.300
        45.400
 11  9  3  0  3  0.0000000  0 12G12G04G20G25G29G13G31G05G30G02G23G10
 121095848.294 8  94360397.23147  23043771.680    23043767.900          48.950
        43.850
 110971053.701 8  86470967.03647  21117074.060    21117070.580          50.400
        47.450
 127727658.745 7  99528046.48846  24305757.160    24305754.000          45.100
        37.950
 116124767.718 8  90486856.92847  22097803.420    22097802.380          50.700
        47.300
 125312875.532 7  97646398.59146  23846241.120    23846239.180          47.650
        41.250
 119220774.482 8  92899291.21046  22686957.880    22686953.640          48.050
        40.200
 120617382.357 8  93987570.15247  22952718.380    22952713.260          48.950
        43.750
 133285210.126 7 103858603.77346  25363331.520    25363329.780          44.550
        36.100
 115247531.163 8  89803268.34847  21930872.120    21930868.820          49.600
        45.000
 112159912.871 8  87397334.18148  21343305.900    21343299.760          50.400
        48.100
 116505435.680 8  90783434.31947  22170244.720    22170238.800          50.000
        44.850
 113259883.503 8  88254466.34047  21552630.300    21552627.160          49.800
        45.900
 11  9  3  0  3 15.0000000  0 12G12G04G20G25G29G13G31G05G30G02G23G10
 121139032.591 8  94394047.33247  23051989.360    23051985.560          49.050
        43.700
 110999155.823 8  86492864.81847  21122421.720    21122418.280          50.800
        47.250
 127782216.069 7  99570558.79046  24316139.000    24316135.880          45.150
        36.800
 116137382.050 8  90496686.27347  22100203.860    22100202.860          51.050
        46.900
 125261356.534 7  97606253.96646  23836437.460    23836435.600          47.500
        41.100
 119181389.925 8  92868601.97246  22679463.120    22679458.900          48.450
        40.300
 120630151.914 8  93997520.44047  22955148.420    22955143.100          49.150
        43.450
 133225264.296 7 103811892.87146  25351924.000    25351923.100          42.750
        38.400
 115253520.238 8  89807935.22147  21932011.740    21932008.420          49.950
        45.100
 112131888.211 8  87375496.77347  21337972.980    21337966.860          50.650
        47.250
 116493596.258 8  90774208.75347  22167991.760    22167985.800          50.250
        45.000
 113226405.117 8  88228379.31747  21546259.600    21546256.340          50.200
        46.050
 11  9  3  0  3 30.0000000  0 12G12G04G20G25G29G13G31G05G30G02G23G10
 121182320.181 8  94427777.88747  23060226.660    23060222.980          49.250
        43.750
 111027391.848 8  86514866.89047  21127794.900    21127791.420          50.950
        47.350
 127836826.991 7  99613112.79746  24326531.060    24326527.900          44.600
        36.650
 116150155.478 8  90506639.58747  22102634.640    22102633.600          51.150
        46.850
 125209901.397 7  97566159.13846  23826645.900    23826643.740          47.450
        41.350
 119142129.620 8  92838009.55446  22671992.040    22671987.960          48.900
        41.050
 120643073.195 8  94007588.96647  22957607.260    22957601.920          48.950
        43.400
 133165332.390 7 103765192.72546  25340519.440    25340518.380          45.950
        36.550
 115259684.423 8  89812738.49547  21933184.640    21933181.380          49.900
        44.700
 112103985.520 8  87353754.40847  21332663.240    21332657.120          50.800
        47.800
 116481912.990 8  90765104.89947  22165768.480    22165762.540          50.150
        44.750
 113193064.027 8  88202399.31247  21539915.080    21539911.680          50.300
        45.900
 11  9  3  0  3 45.0000000  0 12G12G04G20G25G29G13G31G05G30G02G23G10
 121225708.353 8  94461586.84047  23068483.220    23068479.580          49.450
        43.650
 111055759.683 8  86536971.68647  21133193.200    21133189.640          50.950
        47.300
 127891489.100 7  99655706.67146  24336932.840    24336929.680          45.150
        36.000
 116163085.690 8  90516715.07947  22105095.300    22105094.180          51.300
        46.950
 125158507.909 7  97526112.37546  23816865.880    23816864.020          47.800
        41.400
 119102991.509 8  92807512.32246  22664544.280    22664540.260          49.050
        40.800
 120656143.932 8  94017773.98947  22960094.500    22960089.340          48.900
        43.600
 133105412.269 7 103718501.61746  25329117.120    25329115.300          44.150
        36.550
 115266021.444 8  89817676.45147  21934390.420    21934387.120          49.850
        44.750
 112076202.608 8  87332105.37547  21327376.300    21327370.220          50.850
        47.700
 116470383.684 8  90756121.06847  22163574.460    22163568.560          50.050
        44.000
 113159858.354 8  88176524.82947  21533596.300    21533592.720          50.300
        45.450
 11  9  3  0  4  0.0000000  0 12G12G04G20G25G29G13G31G05G30G02G23G10
 121269199.759 8  94495476.23547  23076759.400    23076755.780          49.900
        42.700
 111084261.895 8  86559181.31447  21138617.040    21138613.420          51.150
        46.700
 127946205.018 7  99698342.50045  24347344.920    24347341.720          44.900
        35.650
 116176175.347 8  90526914.82947  22107586.280    22107585.040          51.700
        46.300
 125107179.342 7  97486116.15946  23807098.200    23807096.140          47.550
        40.250
 119063978.454 8  92777112.49246  22657120.340    22657116.540          49.700
        41.650
 120669366.736 8  94028077.46747  22962610.680    22962605.760          49.550
        43.450
 133045507.048 7 103671822.37446  25317717.460    25317716.080          46.050
        36.450
 115272534.110 8  89822751.27847  21935629.600    21935626.280          50.350
        44.050
 112048542.468 8  87310552.08747  21322112.720    21322106.700          51.100
        46.950
 116459011.039 8  90747259.22347  22161410.200    22161404.360          50.400
        44.150
 113126791.067 8  88150758.17747  21527303.760    21527300.060          50.650
        45.350
 11  9  3  0  4 15.0000000  0 12G12G04G20G25G29G13G31G05G30G02G23G10
 121312791.957 8  94529444.15947  23085054.740    23085051.040          49.450
        43.050
 111112896.131 8  86581493.89647  21144065.880    21144062.260          51.050
        46.900
 128000972.188 7  99741018.24445  24357766.760    24357763.520          45.650
        35.850
 116189422.199 8  90537237.06147  22110107.140    22110105.760          51.650
        46.250
 125055913.902 7  97446169.09746  23797342.620    23797340.520          47.050
        39.200
 119025089.090 8  92746809.13646  22649719.960    22649716.180          49.700
        41.500
 120682739.406 8  94038497.74347  22965155.340    22965150.680          49.300
        43.550
 132985614.962 7 103625153.30045  25306320.580    25306319.380          46.100
        33.300
 115279220.186 8  89827961.23847  21936901.780    21936898.500          50.150
        44.550
 112021002.935 8  87289092.77047  21316872.080    21316866.080          51.000
        47.400
 116447793.057 8  90738517.84247  22159275.400    22159269.620          50.250
        43.950
 113093860.350 8  88125097.94847  21521037.180    21521033.300          50.550
        45.100
 11  9  3  0  4 30.0000000  0 12G12G04G20G25G29G13G31G05G30G02G23G10
 121356484.745 8  94563490.47947  23093369.180    23093365.480          49.700
        43.000
 111141661.990 8  86603908.92347  21149539.780    21149536.060          50.900
        46.600
 128055790.317 7  99783733.69146  24368198.320    24368195.180          43.150
        37.250
 116202826.239 8  90547681.78647  22112657.860    22112656.440          51.350
        46.350
 125004711.947 7  97406271.52946  23787599.160    23787597.200          47.600
        40.400
 118986323.691 8  92716602.37946  22642343.180    22642339.500          49.750
        41.850
 120696261.942 8  94049034.78247  22967728.560    22967723.960          49.300
        43.600
 132925736.200 7 103578494.49245  25294925.940    25294924.260          43.400
        32.150
 115286079.839 8  89833306.48847  21938207.000    21938203.820          49.950
        44.300
 111993584.367 8  87267727.63647  21311654.500    21311648.440          50.900
        47.300
 116436730.090 8  90729897.25047  22157170.140    22157164.380          50.350
        43.850
 113061066.446 8  88099544.28547  21514796.620    21514792.620          50.300
        44.850
 11  9  3  0  4 45.0000000  0 12G12G04G20G25G29G13G31G05G30G02G23G10
 121400278.771 8  94597615.68347  23101702.920    23101699.220          49.600
        43.150
 111170560.316 8  86626427.09747  21155038.880    21155035.160          50.950
        47.000
 128110660.202 7  99826489.44046  24378639.780    24378636.620          44.600
        36.550
 116216388.376 8  90558249.70247  22115238.660    22115237.220          51.350
        46.450
 124953574.895 7  97366424.53346  23777868.080    23777866.000          47.300
        40.650
 118947683.875 8  92686493.48546  22634990.300    22634986.640          49.600
        41.550
 120709935.329 8  94059689.38147  22970330.500    22970325.760          49.050
        43.500
 132865872.292 7 103531847.30946  25283534.200    25283532.660          46.000
        37.400
 115293113.937 8  89838787.66747  21939545.460    21939542.360          49.850
        44.750
 111966288.499 8  87246458.17747  21306460.260    21306454.200          50.900
        47.350
 116425823.346 8  90721398.44547  22155094.720    22155088.920          50.400
        44.250
 113028410.783 8  88074098.36347  21508582.320    21508578.360          50.150
        45.650
 11  9  3  0  5  0.0000000  0 12G12G04G20G25G29G13G31G05G30G02G23G10
 121444173.457 8  94631819.33147  23110055.760    23110052.300          48.550
        43.600
 111199590.774 8  86649048.30547  21160563.140    21160559.440          50.700
        47.050
 128165580.998 7  99869284.86546  24389090.860    24389087.500          44.050
        36.050
 116230108.008 8  90568940.32547  22117849.400    22117847.960          50.900
        46.550
 124902502.408 7  97326627.84946  23768149.180    23768147.380          46.450
        41.050
 118909169.568 8  92656482.36946  22627661.280    22627657.640          49.000
        41.800
 120723758.739 8  94070460.88447  22972960.880    22972956.140          48.450
        43.600
 132806022.906 7 103485211.46846  25272145.340    25272143.900          42.700
        37.100
 115300321.944 8  89844404.36947  21940917.060    21940913.980          49.750
        44.850
 111939114.721 8  87225283.82147  21301289.260    21301283.180          50.750
        47.900
 116415072.392 8  90713021.01347  22153049.000    22153043.200          50.250
        44.900
 112995893.023 8  88048759.83347  21502394.220    21502390.420          49.800
        45.950
 11  9  3  0  5 15.0000000  0 12G12G04G20G25G29G13G31G05G30G02G23G10
 121488170.369 8  94666102.61647  23118428.000    23118424.620          48.850
        43.800
 111228754.983 8  86671773.81847  21166112.820    21166109.120          50.950
        47.350
 128220554.757 7  99912121.54046  24399552.080    24399548.680          44.150
        36.000
 116243987.192 8  90579755.26247  22120490.420    22120489.080          51.100
        46.550
 124851497.200 7  97286883.57446  23758443.140    23758441.000          47.150
        41.100
 118870782.916 8  92626570.74946  22620356.460    22620352.760          48.950
        41.750
 120737734.417 8  94081351.02747  22975620.160    22975615.600          48.850
        44.100
 132746190.441 7 103438588.74045  25260759.360    25260757.360          44.000
        35.150
 115307705.973 8  89850158.19547  21942322.160    21942319.040          50.100
        44.850
 111912065.466 8  87204206.48247  21296141.960    21296135.840          50.850
        47.500
 116404479.528 8  90704766.84447  22151033.380    22151027.500          50.650
        44.800
 112963515.741 8  88023530.80647  21496232.900    21496229.220          50.000
        45.400
 11  9  3  0  5 30.0000000  0 12G12G04G20G25G29G13G31G05G30G02G23G10
 121532265.558 8  94700462.47947  23126818.980    23126815.660          49.000
        43.100
 111258049.183 8  86694600.59747  21171687.200    21171683.520          50.700
        47.150
 128275577.380 7  99954996.31545  24410022.500    24410019.120          44.250
        35.400
 116258022.178 8  90590691.60647  22123161.080    22123159.900          50.750
        46.850
 124800555.863 7  97247189.05346  23748749.340    23748747.320          47.650
        41.100
 118832520.711 8  92596756.09146  22613075.320    22613071.680          48.800
        41.100
 120751858.478 8  94092356.78747  22978307.780    22978303.440          48.850
        44.400
 132686371.700 7 103391976.64846  25249376.360    25249374.420          44.600
        37.600
 115315262.228 8  89856046.24747  21943760.040    21943756.920          49.800
        44.650
 111885137.356 8  87183223.53947  21291017.700    21291011.580          50.650
        47.550
 116394041.259 8  90696633.16547  22149047.240    22149041.180          50.750
        44.650
 112931275.570 8  87998408.63047  21490097.760    21490094.100          50.150
        45.700
 11  9  3  0  5 45.0000000  0 12G12G04G20G25G29G13G31G05G30G02G23G10
 121576460.070 8  94734899.73747  23135228.920    23135225.580          49.000
        43.200
 111287474.539 8  86717529.47047  21177286.560    21177282.880          50.750
        47.250
 128330650.133 7  99997910.18245  24420502.600    24420498.840          45.300
        35.850
 116272214.402 8  90601750.49347  22125861.600    22125860.640          50.750
        46.900
 124749680.194 8  97207545.75446  23739068.060    23739066.100          48.200
        41.950
 118794384.840 8  92567039.84046  22605818.220    22605814.600          48.850
        40.850
 120766132.271 8  94103479.20847  22981024.000    22981019.840          49.000
        44.350
 132626568.434 7 103345376.78346  25237996.060    25237994.660          42.200
        39.350
 115322992.243 8  89862069.67547  21945231.020    21945227.820          49.850
        45.250
 111858331.819 8  87162336.00847  21285916.760    21285910.580          50.800
        47.800
 116383759.062 8  90688620.97947  22147090.800    22147084.560          50.750
        44.550
 112899174.140 8  87973394.56547  21483989.080    21483985.460          50.150
        46.000
 11  9  3  0  6  0.0000000  0 12G12G04G20G25G29G13G31G05G30G02G23G10
 121620754.125 8  94769414.57947  23143657.800    23143654.460          48.950
        43.450
 111317031.239 8  86740560.64447  21182910.920    21182907.220          50.750
        46.900
 128385772.891 7 100040862.98645  24430992.180    24430988.320          45.450
        35.750
 116286563.997 8  90612932.00747  22128592.100    22128591.280          51.000
        46.650
 124698870.777 7  97167954.04446  23729399.480    23729397.360          47.750
        41.900
 118756375.878 8  92537422.50846  22598585.280    22598581.640          48.950
        40.250
 120780556.143 8  94114718.61147  22983768.860    22983764.620          49.300
        43.900
 132566781.218 7 103298789.33745  25226618.960    25226617.200          45.900
        35.700
 115330896.197 8  89868228.65347  21946735.060    21946731.900          50.050
        44.500
 111831649.731 8  87141544.74448  21280839.300    21280833.180          51.000
        48.150
 116373633.641 8  90680731.11947  22145164.140    22145157.720          50.700
        44.600
 112867212.097 8  87948489.13347  21477906.900    21477903.420          50.350
        46.050
 11  9  3  0  6 15.0000000  0 12G12G04G20G25G29G13G31G05G30G02G23G10
 121665146.442 8  94804005.96247  23152105.380    23152102.080          49.200
        43.050
 111346718.140 8  86763693.30747  21188560.060    21188556.420          51.000
        47.550
 128440944.576 7 100083853.90345  24441491.020    24441487.160          45.800
        35.550
 116301069.949 8  90624235.35547  22131352.420    22131351.640          51.000
        46.750
 124648127.091 7  97128413.57846  23719743.320    23719741.300          47.700
        41.950
 118718493.231 8  92507903.59146  22591376.420    22591372.520          49.100
        40.500
 120795128.913 8  94126073.98847  22986542.060    22986537.600          49.300
        43.900
 132507009.504 7 103252213.89446  25215244.920    25215242.820          43.650
        37.400
 115338973.145 8  89874522.40547  21948272.040    21948268.900          50.050
        44.700
 111805090.312 8  87120849.04947  21275785.200    21275779.080          50.950
        47.750
 116363663.804 8  90672962.41447  22143267.000    22143260.480          50.750
        44.700
 112835388.769 8  87923691.80247  21471851.180    21471847.780          50.350
        46.000
 11  9  3  0  6 30.0000000  0 12G12G04G20G25G29G13G31G05G30G02G23G10
 121709638.315 8  94838674.94247  23160571.920    23160568.620          49.200
        42.150
 111376536.591 8  86786928.57247  21194234.260    21194230.640          50.950
        46.600
 128496166.501 7 100126884.02245  24451999.420    24451995.460          45.600
        33.850
 116315733.555 8  90635661.51347  22134142.800    22134142.020          51.100
        46.450
 124597450.892 7  97088925.70946  23710099.820    23710098.040          47.600
        40.500
 118680738.528 8  92478484.35346  22584191.900    22584187.820          49.450
        40.350
 120809851.985 8  94137546.51047  22989343.800    22989339.180          49.300
        43.300
 132447254.950 7 103205652.04746  25203873.900    25203872.560          44.950
        38.400
 115347224.541 8  89880952.09947  21949842.220    21949839.080          50.100
        44.400
 111778655.358 8  87100250.39847  21270754.820    21270748.680          50.950
        47.250
 116353851.281 8  90665316.31347  22141399.780    22141393.140          50.950
        44.400
 112803705.900 8  87899003.91347  21465822.140    21465818.780          50.450
        45.850
 11  9  3  0  6 45.0000000  0 12G12G04G20G25G29G13G31G05G30G02G23G10
 121754227.173 7  94873419.47447  23169056.900    23169053.680          47.950
        43.450
 111406484.429 8  86810264.67247  21199933.120    21199929.420          50.250
        47.400
 128551436.250 7 100169951.36946  24462516.900    24462512.900          43.400
        36.400
 116330552.832 8  90647208.98347  22136962.840    22136962.040          50.250
        46.950
 124546840.617 7  97049489.21347  23700468.840    23700467.160          46.200
        42.200
 118643110.677 8  92449163.96046  22577031.620    22577027.380          48.550
        41.150
 120824723.355 8  94149134.58647  22992173.740    22992169.120          48.150
        44.650
 132387516.114 7 103159102.31345  25192506.160    25192504.300          44.100
        34.350
 115355648.276 8  89887516.06947  21951445.160    21951442.040          48.900
        45.650
 111752343.101 8  87079747.32047  21265747.780    21265741.640          50.000
        47.650
 116344194.389 8  90657791.47847  22139562.240    22139555.520          50.100
        45.000
 112772161.691 8  87874424.02247  21459819.500    21459816.120          49.450
        46.850
 11  9  3  0  7  0.0000000  0 12G12G04G20G25G29G13G31G05G30G02G23G10
 121798915.493 8  94908241.52147  23177560.800    23177557.620          48.350
        43.650
 111436563.894 8  86833703.25447  21205657.060    21205653.240          50.650
        47.100
 128606756.195 7 100213057.80546  24473043.960    24473040.000          44.600
        37.050
 116345530.358 8  90658879.76647  22139813.020    22139812.160          50.800
        46.600
 124496299.226 7  97010106.33546  23690851.060    23690849.040          47.050
        41.850
 118605612.639 8  92419944.72746  22569896.060    22569891.680          49.300
        40.500
 120839745.494 8  94160840.14547  22995032.420    22995027.860          48.900
        44.000
 132327795.744 7 103112566.94146  25181141.720    25181139.220          43.650
        37.550
 115364247.022 8  89894216.39747  21953081.400    21953078.320          49.750
        45.100
 111726156.269 8  87059341.96647  21260764.620    21260758.460          50.600
        47.800
 116334695.854 8  90650390.03347  22137754.800    22137748.060          50.600
        45.100
 112740759.125 8  87849954.48547  21453843.760    21453840.380          49.850
        46.250
 11  9  3  0  7 15.0000000  0 12G12G04G20G25G29G13G31G05G30G02G23G10
 121843700.490 8  94943138.88447  23186083.080    23186079.920          48.850
        43.150
 111466772.479 8  86857242.44747  21211405.580    21211401.720          50.850
        46.950
 128662123.609 7 100256201.28545  24483580.080    24483576.160          45.550
        34.350
 116360663.452 8  90670671.77747  22142692.800    22142691.860          51.100
        46.450
 124445824.568 7  96970775.48446  23681246.060    23681243.960          47.600
        40.450
 118568242.250 8  92390824.99746  22562784.780    22562780.340          49.650
        40.900
 120854915.903 8  94172661.25847  22997919.360    22997914.820          49.000
        44.350
 132268091.791 7 103066044.42446  25169780.400    25169778.520          46.050
        37.700
 115373018.210 8  89901051.09747  21954750.540    21954747.420          50.100
        44.400
 111700092.567 8  87039032.64547  21255804.900    21255798.740          50.800
        47.750
 116325353.061 8  90643109.91847  22135976.920    22135970.300          50.600
        44.550
 112709495.984 8  87825593.57947  21447894.600    21447891.200          50.300
        46.150
 11  9  3  0  7 30.0000000  0 12G12G04G20G25G29G13G31G05G30G02G23G10
 121888579.186 8  94978109.28447  23194623.220    23194620.020          48.900
        42.850
 111497107.376 8  86880880.08147  21217178.080    21217174.200          50.700
        47.150
 128717535.669 7 100299379.55145  24494124.580    24494120.660          45.350
        35.500
 116375949.394 8  90682582.85747  22145601.660    22145600.720          50.950
        46.300
 124395414.298 7  96931494.79347  23671653.260    23671651.080          47.550
        42.050
 118530996.676 8  92361802.48047  22555697.220    22555692.740          49.600
        42.000
 120870231.836 8  94184595.72047  23000833.920    23000829.440          49.000
        44.000
 132208401.832 7 103019532.79445  25158421.720    25158419.840          44.550
        34.550
 115381959.246 8  89908018.16447  21956452.020    21956448.820          49.800
        44.950
 111674149.479 8  87018817.20747  21250868.140    21250861.960          50.800
        47.950
 116316163.798 8  90635949.52147  22134228.180    22134221.660          50.600
        45.150
 112678370.001 8  87801339.54847  21441971.540    21441968.160          50.200
        46.250
 11  9  3  0  7 45.0000000  0 12G12G04G20G25G29G13G31G05G30G02G23G10
 121933562.156 8  95013160.94147  23203183.240    23203179.880          48.750
        43.400
 111527579.133 8  86904624.33547  21222976.600    21222972.720          50.800
        47.000
 128773002.857 7 100342600.80846  24504679.660    24504675.880          45.300
        36.850
 116391399.003 8  90694621.50847  22148541.660    22148540.720          50.950
        46.650
 124345079.595 7  96892272.98646  23662074.820    23662072.380          47.800
        40.750
 118493887.713 8  92332886.47246  22548635.640    22548631.260          49.650
        41.450
 120885703.877 8  94196651.85547  23003778.200    23003773.720          49.300
        43.550
 132148737.056 7 102973040.78346  25147067.680    25147065.600          45.800
        37.350
 115391080.807 8  89915125.89547  21958187.780    21958184.540          49.750
        44.650
 111648338.214 8  86998704.39947  21245956.460    21245950.320          50.750
        47.400
 116307138.661 8  90628916.87547  22132510.660    22132504.140          50.550
        44.600
 112647392.287 8  87777201.09647  21436076.700    21436073.280          50.150
        45.700
 11  9  3  0  8  0.0000000  0 12G12G04G20G25G29G13G31G05G30G02G23G10
 121978637.178 8  95048284.32047  23211760.760    23211757.380          49.050
        42.450
 111558175.379 8  86928465.53747  21228798.800    21228795.000          50.900
        46.950
 128828512.993 7 100385855.53145  24515242.820    24515238.920          45.200
        34.700
 116407000.053 8  90706778.16247  22151510.480    22151509.540          51.100
        46.600
 124294808.783 7  96853100.93446  23652508.580    23652506.180          47.800
        40.750
 118456903.582 8  92304067.69247  22541597.840    22541593.460          49.750
        42.050
 120901319.969 8  94208820.24347  23006749.960    23006745.320          49.550
        44.000
 132089085.661 7 102926559.20346  25135716.400    25135714.740          46.550
        39.950
 115400370.719 8  89922364.78447  21959955.500    21959952.280          49.900
        44.800
 111622646.829 8  86978684.88847  21241067.620    21241061.520          50.950
        47.550
 116298266.175 8  90622003.24947  22130822.240    22130815.600          50.750
        43.900
 112616551.151 8  87753169.07547  21430207.780    21430204.260          50.250
        45.850
 11  9  3  0  8 15.0000000  0 12G12G04G20G25G29G13G31G05G30G02G23G10
 122023809.247 8  95083483.31747  23220356.800    23220353.440          49.200
        42.450
 111588901.597 8  86952408.05747  21234645.740    21234642.020          50.900
        47.100
 128884070.841 7 100429147.29146  24525815.140    24525811.080          45.600
        36.100
 116422757.963 8  90719057.04247  22154509.140    22154508.140          51.100
        46.400
 124244607.712 7  96813983.23246  23642955.660    23642953.180          47.750
        41.500
 118420049.609 8  92275350.32846  22534584.780    22534580.360          49.750
        41.850
 120917085.390 8  94221105.00647  23009750.080    23009745.400          49.300
        43.600
 132029453.492 7 102880092.67246  25124368.520    25124367.440          45.850
        37.250
 115409834.460 8  89929739.07247  21961756.280    21961753.100          49.900
        44.850
 111597081.509 8  86958763.78147  21236202.840    21236196.740          51.050
        47.650
 116289551.755 8  90615212.83547  22129163.920    22129157.120          50.850
        44.250
 112585852.220 8  87729247.83647  21424365.940    21424362.320          50.350
        45.800
 11  9  3  0  8 30.0000000  0 12G12G04G20G25G29G13G31G05G30G02G23G10
 122069078.979 8  95118758.41447  23228971.360    23228968.060          49.100
        42.450
 111619758.312 8  86976452.23047  21240517.580    21240513.880          50.900
        47.250
 128939677.190 7 100472476.87345  24536396.640    24536392.580          45.100
        35.700
 116438673.387 8  90731458.65947  22157537.780    22157536.780          51.000
        46.650
 124194477.575 7  96774920.83246  23633416.220    23633413.640          47.750
        40.500
 118383327.802 8  92246736.20047  22527596.820    22527592.500          49.600
        42.100
 120933000.922 8  94233506.71747  23012778.600    23012774.100          48.850
        43.650
 131969841.407 7 102833641.40246  25113024.720    25113023.320          44.650
        37.150
 115419472.902 8  89937249.53047  21963590.320    21963587.220          49.650
        44.950
 111571643.457 8  86938942.04447  21231362.240    21231356.140          50.950
        47.600
 116280996.323 8  90608546.25347  22127535.860    22127529.000          50.800
        44.600
 112555296.792 8  87705438.45547  21418551.400    21418547.740          50.300
        45.950
 11  9  3  0  8 45.0000000  0 12G12G04G20G25G29G13G31G05G30G02G23G10
 122114442.996 8  95154106.99547  23237603.940    23237600.440          49.250
        42.600
 111650742.077 8  87000595.42647  21246413.580    21246409.900          50.950
        46.900
 128995328.636 7 100515841.63645  24546986.780    24546982.860          45.400
        35.850
 116454742.922 8  90743980.37347  22160595.720    22160594.740          51.000
        46.650
 124144415.393 8  96735911.40946  23623889.620    23623887.100          48.000
        40.600
 118346734.163 8  92218221.69847  22520633.160    22520628.840          49.350
        42.150
 120949063.025 8  94246022.64547  23015834.900    23015830.860          49.000
        44.400
 131910247.143 7 102787204.41746  25101684.360    25101682.960          43.500
        38.650
 115429282.624 8  89944893.49647  21965456.960    21965453.960          49.650
        44.550
 111546329.015 8  86919216.50847  21226545.100    21226539.000          50.950
        47.350
 116272596.588 8  90602000.95347  22125937.440    22125930.620          50.600
        44.000
 112524881.472 8  87681738.20747  21412763.540    21412759.880          50.150
        45.450
 11  9  3  0  9  0.0000000  0 12G12G04G20G25G29G13G31G05G30G02G23G10
 122159901.499 8  95189529.18947  23246254.500    23246250.740          49.350
        42.850
 111681853.692 8  87024838.22447  21252333.920    21252330.240          51.000
        47.050
 129051025.982 7 100559242.18646  24557585.640    24557581.800          45.450
        36.100
 116470967.540 8  90756622.93447  22163683.200    22163682.220          51.150
        46.650
 124094422.559 8  96696955.99346  23614376.240    23614373.600          48.000
        40.350
 118310271.166 8  92189808.98046  22513694.380    22513690.080          49.600
        41.650
 120965272.844 8  94258653.66247  23018919.460    23018915.540          49.150
        44.000
 131850671.822 7 102740782.29446  25090347.460    25090346.400          45.650
        37.450
 115439264.661 8  89952671.72547  21967356.440    21967353.440          49.900
        44.450
 111521139.704 8  86899588.46748  21221751.760    21221745.640          51.000
        48.000
 116264354.002 8  90595578.21047  22124368.840    22124362.260          50.600
        44.300
 112494607.686 8  87658148.22547  21407002.620    21406998.940          50.350
        45.550
 11  9  3  0  9 15.0000000  0 12G12G04G20G25G29G13G31G05G30G02G23G10
 122205452.967 8  95225023.81647  23254922.680    23254918.960          49.200
        42.850
 111713091.733 8  87049179.56747  21258278.360    21258274.700          51.000
        46.850
 129106767.223 7 100602676.91945  24568192.820    24568189.180          44.350
        35.100
 116487345.767 8  90769385.19347  22166799.900    22166798.920          51.100
        46.450
 124044497.911 7  96658053.71346  23604875.840    23604873.380          47.550
        41.500
 118273937.410 8  92161496.94346  22506780.200    22506776.020          49.400
        41.900
 120981628.732 8  94271398.52447  23022031.980    23022027.860          49.600
        43.650
 131791113.933 7 102694373.48045  25079014.060    25079012.100          44.550
        35.400
 115449417.521 8  89960583.08347  21969288.460    21969285.440          49.900
        44.450
 111496074.168 8  86880056.76347  21216981.940    21216975.860          50.850
        47.550
 116256267.120 8  90589276.80747  22122829.820    22122823.560          50.350
        44.650
 112464474.477 8  87634667.76847  21401268.500    21401264.700          50.250
        45.600
 11  9  3  0  9 30.0000000  0 12G12G04G20G25G29G13G31G05G30G02G23G10
 122251103.250 8  95260595.46946  23263609.700    23263606.040          49.300
        41.900
 111744461.964 8  87073624.02447  21264247.920    21264244.220          51.050
        46.600
 129162558.206 7 100646150.37946  24578809.500    24578805.860          44.350
        36.300
 116503883.356 8  90782271.62647  22169946.960    22169945.920          51.200
        46.400
 123994648.051 7  96619209.71346  23595389.660    23595387.380          47.750
        41.700
 118237739.293 8  92133290.70146  22499891.800    22499887.680          49.650
        41.400
 120998136.538 8  94284261.76647  23025173.400    23025169.000          49.650
        43.900
 131731579.941 7 102647983.38346  25067684.960    25067683.540          43.350
        37.900
 115459747.008 8  89968632.04647  21971254.100    21971251.060          50.100
        44.450
 111471138.659 8  86860626.41347  21212236.860    21212230.860          50.900
        47.150
 116248341.817 8  90583101.16647  22121321.560    22121315.560          50.550
        44.650
 112434488.022 8  87611301.65347  21395562.320    21395558.480          50.450
        45.850
 11  9  3  0  9 45.0000000  0 12G12G04G20G25G29G13G31G05G30G02G23G10
 122296844.374 8  95296237.91247  23272314.020    23272310.320          49.250
        42.900
 111775956.175 8  87098165.01447  21270241.040    21270237.320          50.950
        46.700
 129218390.982 7 100689656.40846  24589434.140    24589430.420          43.850
        37.700
 116520572.618 8  90795276.23647  22173122.840    22173121.800          51.150
        46.800
 123944865.432 8  96580418.12946  23585916.300    23585914.180          48.100
        41.850
 118201668.838 8  92105183.83246  22493027.780    22493023.680          49.700
        41.650
 121014788.507 8  94297237.30547  23028342.260    23028337.720          49.550
        44.200
 131672062.812 7 102601606.51646  25056359.380    25056358.280          47.250
        36.500
 115470245.439 8  89976812.65047  21973251.940    21973248.820          50.000
        44.950
 111446325.746 8  86841291.56447  21207515.120    21207509.220          50.750
        47.450
 116240570.943 8  90577045.92447  22119842.760    22119836.980          50.550
        44.850
 112404640.895 8  87588044.11047  21389882.660    21389878.760          50.400
        45.950
 11  9  3  0 10  0.0000000  0 12G12G04G20G25G29G13G31G05G30G02G23G10
 122342679.802 8  95331953.83047  23281036.260    23281032.440          49.350
        42.800
 111807578.193 8  87122805.58347  21276258.420    21276254.720          50.750
        46.550
 129274269.182 7 100733197.82045  24600067.420    24600063.760          43.750
        35.950
 116537417.185 8  90808401.86447  22176328.260    22176327.240          51.000
        46.750
 123895154.099 8  96541682.06146  23576456.600    23576454.440          48.350
        41.500
 118165731.037 8  92077180.41846  22486189.040    22486184.860          49.600
        41.200
 121031588.456 8  94310328.16847  23031539.240    23031534.640          49.550
        44.350
 131612566.386 7 102555245.66846  25045037.640    25045036.000          44.650
        37.250
 115480916.493 8  89985127.73447  21975282.660    21975279.440          50.200
        44.550
 111421639.673 8  86822055.62447  21202817.520    21202811.740          50.700
        47.600
 116232958.173 8  90571113.86547  22118394.060    22118388.380          50.550
        44.900
 112374937.217 8  87564898.36247  21384230.300    21384226.420          50.450
        46.150
 11  9  3  0 10 15.0000000  0 12G12G04G20G25G29G13G31G05G30G02G23G10
 122388609.077 8  95367742.87047  23289776.340    23289772.460          49.450
        42.400
 111839327.696 8  87147545.46947  21282300.060    21282296.380          50.750
        46.650
 129330192.558 7 100776774.48445  24610709.240    24610705.680          44.550
        35.850
 116554416.904 8  90821648.38647  22179563.180    22179562.140          51.250
        46.100
 123845514.490 7  96503001.88946  23567010.500    23567008.140          47.950
        41.200
 118129925.554 8  92049280.09346  22479375.480    22479371.180          49.850
        41.000
 121048536.022 8  94323534.06547  23034764.360    23034759.740          49.650
        43.700
 131553090.930 7 102508901.19246  25033719.800    25033718.360          45.550
        37.300
 115491760.151 8  89993577.31547  21977346.220    21977342.960          50.100
        44.350
 111397080.417 8  86802918.49147  21198144.060    21198138.300          50.800
        47.100
 116225503.748 8  90565305.19147  22116975.560    22116969.880          50.750
        44.950
 112345377.335 8  87541864.67347  21378605.340    21378601.440          50.550
        46.050
 11  9  3  0 10 30.0000000  0 12G12G04G20G25G29G13G31G05G30G02G23G10
 122434631.619 8  95403604.60547  23298534.180    23298530.260          49.450
        42.150
 111871204.178 8  87172384.32447  21288365.860    21288362.280          50.800
        46.800
 129386160.551 7 100820385.92646  24621359.660    24621356.120          43.350
        36.100
 116571571.402 8  90835015.56147  22182827.580    22182826.480          51.100
        46.400
 123795946.544 7  96464377.54046  23557577.980    23557575.520          47.500
        40.050
 118094252.518 8  92021482.87346  22472587.120    22472582.740          49.900
        40.900
 121065630.857 8  94336854.71447  23038017.500    23038012.740          49.700
        43.650
 131493636.431 7 102462573.09546  25022406.040    25022404.940          46.400
        38.600
 115502775.950 8  90002161.01447  21979442.520    21979439.220          50.150
        44.650
 111372648.025 8  86783880.27447  21193494.720    21193488.960          50.800
        47.250
 116218207.144 8  90559619.40947  22115587.180    22115581.380          50.950
        44.950
 112315960.934 8  87518942.77247  21373007.640    21373003.720          50.550
        45.650
 11  9  3  0 10 45.0000000  0 12G12G04G20G25G29G13G31G05G30G02G23G10
 122480746.318 8  95439538.13347  23307309.540    23307305.640          49.350
        42.650
 111903206.519 8  87197321.20947  21294455.700    21294452.060          50.850
        46.850
 129442171.832 7 100864031.06046  24632018.320    24632014.420          44.300
        37.300
 116588879.639 8  90848502.50947  22186121.260    22186120.100          51.300
        46.400
 123746449.812 7  96425808.68046  23548158.900    23548156.180          47.200
        40.700
 118058711.785 8  91993788.82246  22465823.940    22465819.520          49.800
        41.600
 121082872.059 8  94350289.42047  23041298.400    23041293.620          49.350
        44.100
 131434202.479 7 102416260.98846  25011096.100    25011094.720          45.150
        36.600
 115513963.109 8  90010878.28347  21981571.420    21981568.100          49.950
        44.650
 111348341.736 8  86764940.33347  21188869.400    21188863.640          50.850
        47.600
 116211067.908 8  90554056.37847  22114228.800    22114222.800          51.000
        44.850
 112286687.578 8  87496132.38747  21367437.140    21367433.260          50.650
        46.250
 11  9  3  0 11  0.0000000  0 12G12G04G20G25G29G13G31G05G30G02G23G10
 122526954.158 8  95475544.19647  23316102.560    23316098.740          49.150
        42.600
 111935335.867 8  87222356.98647  21300569.760    21300566.120          50.950
        46.700
 129498227.288 7 100907710.62546  24642685.380    24642681.360          43.750
        36.800
 116606342.837 8  90862110.19347  22189444.400    22189443.240          51.300
        46.400
 123697025.964 7  96387296.62046  23538753.720    23538750.860          47.400
        40.800
 118023305.335 8  91966199.36246  22459086.300    22459081.820          49.700
        41.250
 121100260.703 8  94363839.03047  23044607.280    23044602.440          49.350
        43.800
 131374790.690 7 102369966.09646  24999790.420    24999788.780          45.050
        38.100
 115525322.769 8  90019729.96447  21983733.140    21983729.780          50.200
        44.650
 111324163.192 8  86746099.94647  21184268.420    21184262.600          50.900
        47.550
 116204087.313 8  90548616.89847  22112900.580    22112894.480          51.000
        44.800
 112257558.900 8  87473434.74547  21361894.200    21361890.340          50.800
        46.250
 11  9  3  0 11 15.0000000  0 12G12G04G20G25G29G13G31G05G30G02G23G10
 122573255.837 8  95511623.39247  23324913.400    23324909.620          48.850
        42.550
 111967593.313 8  87247492.61447  21306708.200    21306704.520          50.850
        46.650
 129554328.005 7 100951425.46846  24653361.020    24653356.940          43.550
        36.950
 116623961.933 8  90875839.35147  22192797.180    22192796.100          51.050
        46.700
 123647676.533 7  96348842.55546  23529362.700    23529360.160          47.300
        40.750
 117988034.375 8  91938715.59546  22452374.420    22452369.980          49.600
        41.750
 121117797.868 8  94377504.38047  23047944.440    23047939.460          49.350
        44.250
 131315402.583 7 102323689.83946  24988489.100    24988487.820          44.750
        40.550
 115536856.030 8  90028716.93147  21985927.860    21985924.540          49.900
        44.750
 111300113.816 8  86727360.22447  21179691.980    21179686.120          50.750
        47.850
 116197266.874 8  90543302.31147  22111602.820    22111596.620          50.800
        44.750
 112228576.266 8  87450850.92147  21356379.080    21356375.220          50.750
        47.050
 11  9  3  0 11 30.0000000  0 12G12G04G20G25G29G13G31G05G30G02G23G10
 122619646.446 8  95547771.90847  23333741.180    23333737.560          48.650
        42.600
 111999973.794 8  87272724.19647  21312870.020    21312866.340          50.750
        46.750
 129610468.997 7 100995171.67945  24664044.340    24664040.200          45.350
        35.650
 116641732.135 8  90889686.25947  22196178.680    22196177.660          51.100
        46.150
 123598397.115 7  96310443.05746  23519985.040    23519982.740          47.300
        41.800
 117952894.263 8  91911333.77846  22445687.400    22445682.940          49.250
        41.550
 121135478.503 8  94391281.49247  23051308.960    23051303.760          49.450
        43.900
 131256033.552 7 102277428.30846  24977191.280    24977189.880          44.800
        36.200
 115548557.951 8  90037835.33347  21988154.620    21988151.340          49.600
        44.800
 111276188.904 8  86708717.46347  21175139.220    21175133.300          50.650
        47.850
 116190601.655 8  90538108.65447  22110334.560    22110328.280          50.900
        44.900
 112199735.157 8  87428377.38347  21350890.880    21350886.960          50.550
        46.350
 11  9  3  0 11 45.0000000  0 12G12G04G20G25G29G13G31G05G30G02G23G10
 122666129.910 8  95583992.77147  23342586.660    23342583.180          48.750
        42.350
 112032481.225 8  87298054.66447  21319055.980    21319052.280          50.800
        46.700
 129666654.217 7 101038952.43446  24674736.040    24674732.040          44.600
        36.250
 116659657.479 8  90903654.06447  22199589.720    22199588.760          50.850
        46.300
 123549192.155 7  96272101.56346  23510621.580    23510619.360          47.300
        41.750
 117917889.153 8  91884057.03246  22439026.020    22439021.680          49.100
        41.300
 121153306.894 8  94405173.74447  23054701.640    23054696.360          49.350
        43.700
 131196688.431 7 102231185.39346  24965898.260    24965896.360          43.850
        36.950
 115560432.731 8  90047088.41747  21990414.260    21990410.940          49.700
        44.750
 111252392.789 8  86690175.00847  21170610.920    21170605.020          50.600
        47.550
 116184095.947 8  90533039.28847  22109096.640    22109090.240          50.900
        44.700
 112171039.980 8  87406017.58147  21345430.420    21345426.400          50.700
        45.850
 11  9  3  0 12  0.0000000  0 12G12G04G20G25G29G13G31G05G30G02G23G10
 122712704.320 8  95620284.51447  23351449.420    23351446.060          48.900
        42.100
 112065113.881 8  87323482.69147  21325265.800    21325262.020          50.900
        46.600
 129722881.691 7 101082766.05046  24685435.680    24685431.460          42.850
        37.450
 116677736.269 8  90917741.42147  22203029.960    22203029.120          50.950
        46.450
 123500060.446 7  96233817.15947  23501272.100    23501270.100          47.700
        42.000
 117883018.001 8  91856884.68946  22432390.120    22432386.000          49.000
        41.600
 121171281.236 8  94419179.72347  23058122.040    23058116.880          49.150
        44.400
 131137365.647 7 102184960.02946  24954609.300    24954607.900          46.600
        37.700
 115572478.709 8  90056474.90047  21992706.500    21992703.180          49.850
        44.800
 111228724.330 8  86671732.04947  21166106.920    21166101.060          50.600
        47.650
 116177748.074 8  90528092.74047  22107888.780    22107882.260          50.900
        44.850
 112142489.470 8  87383770.49747  21339997.440    21339993.340          50.700
        46.400
 11  9  3  0 12 15.0000000  0 12G12G04G20G25G29G13G31G05G30G02G23G10
 122759368.790 8  95656646.44047  23360329.400    23360325.940          48.850
        42.000
 112097871.137 8  87349007.84647  21331499.380    21331495.560          50.900
        46.650
 129779150.827 7 101126612.20146  24696143.220    24696139.340          43.100
        36.850
 116695967.906 8  90931947.89147  22206499.320    22206498.460          50.950
        46.300
 123451001.915 7  96195589.76147  23491936.620    23491934.420          47.950
        42.050
 117848281.076 8  91829816.92346  22425779.780    22425775.780          49.050
        41.500
 121189400.882 8  94433298.92847  23061570.040    23061565.260          49.250
        43.900
 131078065.162 7 102138751.93946  24943324.800    24943323.040          45.450
        38.150
 115584695.261 8  90065994.29347  21995031.200    21995027.820          50.050
        44.600
 111205183.358 8  86653388.48547  21161627.200    21161621.360          50.650
        47.550
 116171558.289 8  90523269.61347  22106711.020    22106704.440          50.900
        44.750
 112114083.323 8  87361635.90747  21334591.900    21334587.680          50.700
        46.200
 11  9  3  0 12 30.0000000  0 12G12G04G20G25G29G13G31G05G30G02G23G10
 122806124.685 8  95693079.60546  23369226.780    23369223.240          48.700
        41.950
 112130754.269 8  87374631.07047  21337756.880    21337752.980          50.700
        46.700
 129835462.912 7 101170491.72945  24706859.000    24706854.980          44.600
        35.800
 116714353.977 8  90946274.69547  22209998.080    22209997.180          50.900
        46.450
 123402018.471 8  96157420.86447  23482615.480    23482613.100          48.100
        42.650
 117813680.449 8  91802855.50846  22419195.420    22419191.580          48.900
        41.550
 121207667.351 8  94447532.51947  23065045.920    23065041.580          48.700
        44.650
 131018788.780 7 102092562.60846  24932044.840    24932043.000          45.400
        39.700
 115597083.965 8  90075647.79147  21997388.720    21997385.300          49.650
        44.850
 111181771.618 8  86635145.63547  21157172.080    21157166.260          50.550
        47.750
 116165527.910 8  90518570.58147  22105563.560    22105556.860          50.600
        44.650
 112085823.442 8  87339615.24147  21329214.120    21329209.940          50.250
        46.800
 11  9  3  0 12 45.0000000  0 12G12G04G20G25G29G13G31G05G30G02G23G10
 122852969.004 8  95729581.66547  23378140.980    23378137.440          48.800
        42.250
 112163760.448 8  87400350.12547  21344037.800    21344033.820          50.750
        46.400
 129891814.765 7 101214402.19445  24717582.380    24717578.480          45.100
        35.500
 116732891.577 8  90960719.59747  22213525.700    22213524.720          50.850
        46.200
 123353107.811 8  96119308.68047  23473308.220    23473305.860          48.350
        42.000
 117779213.257 8  91775997.98846  22412636.440    22412632.660          49.050
        41.700
 121226077.950 8  94461878.46347  23068549.200    23068545.200          48.750
        44.050
 130959534.303 7 102046390.40546  24920769.020    24920767.460          46.550
        39.950
 115609642.097 8  90085433.32647  21999778.480    21999775.100          49.850
        44.550
 111158486.488 8  86617001.40647  21152741.060    21152735.200          50.650
        47.950
 116159654.428 8  90513993.84247  22104445.820    22104439.140          50.500
        44.400
 112057707.403 8  87317706.64347  21323863.720    21323859.620          50.250
        46.050
 11  9  3  0 13  0.0000000  0 12G12G04G20G25G29G13G31G05G30G02G23G10
 122899904.506 8  95766154.75747  23387072.480    23387068.920          48.350
        42.500
 112196892.372 8  87426167.15647  21350342.580    21350338.700          50.700
        46.900
 129948209.417 7 101258346.02645  24728313.940    24728310.140          45.350
        34.950
 116751583.530 8  90975284.75347  22217082.680    22217081.620          50.750
        46.700
 123304273.224 8  96081255.79847  23464015.380    23464013.000          48.100
        42.250
 117744883.051 8  91749247.16647  22406103.600    22406099.880          49.200
        42.250
 121244635.437 8  94476338.84947  23072080.420    23072076.600          48.700
        44.100
 130900305.077 7 102000237.89246  24909498.060    24909496.720          44.600
        37.950
 115622372.515 8  90095353.11047  22002201.020    22002197.620          49.700
        44.800
 111135331.286 8  86598958.40148  21148334.760    21148328.860          50.400
        48.050
 116153941.098 8  90509541.99147  22103358.460    22103351.880          50.300
        44.600
 112029738.430 8  87295912.66947  21318541.280    21318537.200          50.100
        46.750
 11  9  3  0 13 15.0000000  0 12G12G04G20G25G29G13G31G05G30G02G23G10
 122946927.007 8  95802795.62647  23396020.540    23396016.960          48.600
        42.250
 112230145.871 8  87452078.70147  21356670.500    21356666.640          50.650
        46.450
 130004642.935 7 101302320.19245  24739052.880    24739049.100          45.550
        35.900
 116770426.091 8  90989967.27847  22220668.280    22220667.160          50.800
        46.100
 123255511.413 7  96043259.60047  23454736.400    23454733.980          47.800
        42.400
 117710686.465 8  91722600.44746  22399596.260    22399592.580          49.350
        41.900
 121263336.062 8  94490910.77547  23075638.980    23075635.040          49.000
        43.600
 130841097.735 7 101954102.41646  24898231.160    24898229.580          43.600
        39.750
 115635271.367 8  90105404.14747  22004655.620    22004652.280          49.850
        44.650
 111112302.412 8  86581013.80847  21143952.420    21143946.560          50.300
        47.350
 116148384.205 8  90505212.06147  22102300.860    22102294.400          50.350
        44.500
 112001913.270 8  87274230.77547  21313246.160    21313242.200          50.150
        46.200
 11  9  3  0 13 30.0000000  0 12G12G04G20G25G29G13G31G05G30G02G23G10
 122994039.562 8  95839506.68947  23404985.780    23404982.180          49.050
        42.200
 112263524.461 8  87478087.86347  21363022.300    21363018.500          50.800
        46.300
 130061118.095 7 101346326.79145  24749799.780    24749795.800          46.000
        35.050
 116789422.287 8  91004769.51547  22224283.100    22224281.960          51.050
        45.950
 123206825.943 7  96005322.90147  23445471.800    23445469.460          47.750
        42.300
 117676627.177 8  91696060.71747  22393115.080    22393111.340          49.950
        42.550
 121282182.837 8  94505596.56747  23079225.480    23079221.060          49.450
        43.150
 130781915.620 7 101907986.60346  24886969.180    24886967.580          45.950
        38.900
 115648341.875 8  90115588.93247  22007142.900    22007139.680          50.200
        44.450
 111089403.458 8  86563170.47147  21139594.820    21139589.000          50.650
        47.800
 116142986.819 8  90501006.31647  22101273.660    22101267.240          50.700
        44.100
 111974235.287 8  87252663.57747  21307979.080    21307975.260          50.400
        46.850
 11  9  3  0 13 45.0000000  0 12G12G04G20G25G29G13G31G05G30G02G23G10
 123041241.717 8  95876287.56347  23413968.100    23413964.560          48.950
        42.200
 112297027.885 8  87504194.44947  21369397.880    21369394.100          51.000
        46.550
 130117634.493 7 101390365.51245  24760554.520    24760550.800          45.750
        33.550
 116808571.820 8  91019691.23247  22227927.100    22227926.000          51.150
        45.950
 123158216.991 7  95967445.82846  23436221.720    23436219.360          47.950
        41.500
 117642705.316 8  91669628.08447  22386660.080    22386656.260          50.150
        42.650
 121301175.257 8  94520395.87747  23082839.820    23082834.780          49.800
        42.900
 130722759.071 7 101861890.70546  24875712.000    24875710.280          46.050
        37.650
 115661583.742 8  90125907.24147  22009662.820    22009659.620          50.350
        44.400
 111066634.427 8  86545428.39047  21135262.020    21135256.200          50.850
        47.600
 116137749.120 8  90496925.06547  22100276.840    22100270.480          50.700
        44.700
 111946704.634 8  87231211.19447  21302740.020    21302736.360          50.300
        45.900
 11  9  3  0 14  0.0000000  0 12G12G04G20G25G29G13G31G05G30G02G23G10
 123088531.471 8  95913136.70347  23422967.060    23422963.580          48.700
        42.400
 112330653.777 8  87530396.40847  21375796.800    21375793.000          50.900
        46.800
 130174190.178 7 101434434.84945  24771316.760    24771312.720          44.650
        31.900
 116827872.798 8  91034730.96547  22231599.960    22231598.860          50.850
        46.200
 123109683.018 8  95929627.15446  23426986.020    23426983.420          48.350
        41.250
 117608919.805 8  91643301.70047  22380231.020    22380227.100          49.950
        42.450
 121320311.577 8  94535307.24947  23086481.460    23086476.060          49.300
        43.250
 130663626.475 7 101815813.41146  24864459.340    24864457.420          46.600
        38.550
 115674995.129 8  90136357.65447  22012214.980    22012211.820          50.000
        44.600
 111043993.871 8  86527786.44847  21130953.700    21130947.900          50.800
        47.850
 116132669.537 8  90492967.11947  22099310.120    22099303.880          50.600
        44.800
 111919319.759 8  87209872.42047  21297528.740    21297525.160          50.400
        46.500
 11  9  3  0 14 15.0000000  0 12G12G04G20G25G29G13G31G05G30G02G23G10
 123135908.309 8  95950053.69547  23431982.600    23431979.080          48.800
        42.300
 112364401.917 8  87556693.60947  21382218.960    21382215.140          50.700
        46.700
 130230784.755 7 101478534.56245  24782086.400    24782082.180          44.750
        33.300
 116847325.006 8  91049888.55047  22235301.620    22235300.500          50.850
        46.550
 123061224.318 8  95891867.13246  23417764.740    23417761.880          48.650
        41.850
 117575270.604 8  91617081.59247  22373827.900    22373823.880          49.950
        42.550
 121339591.721 8  94550330.72647  23090150.340    23090145.020          49.000
        43.450
 130604518.140 7 101769755.05446  24853211.340    24853209.700          46.050
        37.950
 115688575.856 8  90146940.02947  22014799.320    22014796.140          49.900
        44.950
 111021481.862 8  86510244.68547  21126669.860    21126663.960          50.700
        47.700
 116127747.857 8  90489132.22447  22098373.420    22098367.200          50.550
        44.700
 111892080.792 8  87188647.33547  21292345.280    21292341.700          50.400
        46.250
 11  9  3  0 14 30.0000000  0 12G12G04G20G25G29G13G31G05G30G02G23G10
 123183373.616 8  95987039.65447  23441015.040    23441011.360          48.950
        42.000
 112398274.023 8  87583087.52147  21388664.680    21388660.820          50.900
        46.950
 130287419.539 7 101522665.52045  24792863.720    24792859.600          44.650
        33.000
 116866929.993 8  91065165.18847  22239032.340    22239031.280          51.000
        46.250
 123012842.985 8  95854167.38447  23408558.180    23408555.360          48.950
        42.400
 117541759.624 8  91590969.04847  22367451.080    22367446.960          50.150
        42.200
 121359017.236 8  94565467.49947  23093846.800    23093841.720          49.050
        43.700
 130545436.113 7 101723717.24046  24841968.280    24841966.660          45.900
        38.050
 115702327.435 8  90157655.51847  22017416.140    22017412.860          49.950
        44.350
 110999100.017 8  86492804.31548  21122410.720    21122404.820          50.800
        48.200
 116122985.675 8  90485421.52347  22097467.120    22097460.760          50.650
        44.450
 111864989.734 8  87167537.48947  21287189.980    21287186.380          50.600
        46.850
 11  9  3  0 14 45.0000000  0 12G12G04G20G25G29G13G31G05G30G02G23G10
 123230926.137 8  96024093.53947  23450064.040    23450060.200          48.850
        42.000
 112432268.679 8  87609576.85847  21395133.680    21395129.800          50.900
        46.750
 130344093.596 7 101566827.09845  24803648.440    24803644.340          45.350
        34.600
 116886686.716 8  91080560.07647  22242791.920    22242790.820          51.100
        46.400
 122964538.683 8  95816527.69747  23399366.260    23399363.500          48.600
        42.700
 117508386.013 8  91564963.57847  22361100.360    22361096.100          49.950
        42.650
 121378586.948 8  94580716.62447  23097570.660    23097565.940          48.900
        43.950
 130486379.798 7 101677699.41046  24830730.220    24830728.520          45.800
        37.950
 115716248.962 8  90168503.44947  22020065.340    22020062.080          50.000
        44.600
 110976847.976 8  86475465.05547  21118176.300    21118170.360          50.750
        47.800
 116118382.422 8  90481834.72047  22096590.980    22096584.600          50.600
        44.600
 111838045.927 8  87146542.39947  21282062.740    21282059.080          50.600
        46.450
 11  9  3  0 15  0.0000000  0 12G12G04G20G25G29G13G31G05G30G02G23G10
 123278565.314 8  96061214.93047  23459129.460    23459125.800          48.650
        42.550
 112466385.483 8  87636161.38347  21401625.900    21401621.980          50.850
        46.400
 130400806.236 7 101611018.77845  24814440.500    24814436.240          44.150
        34.200
 116906594.761 8  91096072.85347  22246580.280    22246579.160          50.900
        46.600
 122916311.250 8  95778947.89347  23390188.840    23390186.220          48.500
        42.550
 117475150.105 8  91539065.44946  22354775.820    22354771.520          49.750
        41.950
 121398300.421 8  94596077.78347  23101321.880    23101317.400          48.900
        44.000
 130427349.163 7 101631701.53946  24819496.980    24819495.160          45.400
        38.700
 115730340.096 8  90179483.55547  22022746.820    22022743.500          49.900
        44.700
 110954725.733 8  86458226.92048  21113966.560    21113960.660          50.700
        48.050
 116113938.073 8  90478371.81447  22095745.060    22095738.660          50.550
        44.500
 111811249.232 8  87125661.94847  21276963.480    21276959.780          50.600
        47.000
 11  9  3  0 15 15.0000000  0 12G12G04G20G25G29G13G31G05G30G02G23G10
 123326291.878 8  96098404.43047  23468211.500    23468207.940          48.800
        42.000
 112500625.298 8  87662841.77647  21408141.520    21408137.540          50.950
        46.300
 130457558.186 7 101655241.08745  24825240.080    24825235.940          44.500
        33.600
 116926654.990 8  91111704.22847  22250397.600    22250396.520          50.900
        46.200
 122868161.911 8  95741428.93847  23381026.300    23381023.700          48.700
        42.400
 117442053.137 8  91513275.55746  22348477.660    22348473.300          49.450
        41.250
 121418158.482 8  94611551.59747  23105100.760    23105096.380          49.350
        43.450
 130368345.740 7 101585724.94846  24808268.960    24808267.020          46.100
        37.350
 115744601.613 8  90190596.43047  22025460.680    22025457.280          50.050
        44.600
 110932734.447 8  86441090.86047  21109781.760    21109775.840          50.850
        47.950
 116109653.178 8  90475032.96347  22094929.520    22094923.060          50.700
        44.300
 111784600.818 8  87104897.01647  21271892.420    21271888.680          50.700
        46.850
 11  9  3  0 15 30.0000000  0 12G12G04G20G25G29G13G31G05G30G02G23G10
 123374105.088 8  96135661.47146  23477310.080    23477306.580          49.050
        41.800
 112534987.470 8  87689617.53647  21414680.440    21414676.400          50.950
        46.050
 130514348.918 7 101699493.65445  24836046.940    24836043.000          45.100
        32.250
 116946866.797 8  91127453.70247  22254243.780    22254242.740          51.000
        46.000
 122820090.651 8  95703970.83246  23371878.640    23371875.980          48.750
        41.900
 117409095.407 8  91487594.25446  22342205.920    22342201.640          49.250
        41.400
 121438160.716 8  94627137.76247  23108907.120    23108902.680          49.300
        43.200
 130309369.512 7 101539769.55346  24797046.080    24797044.040          46.700
        37.650
 115759033.067 8  90201841.71747  22028206.900    22028203.380          50.050
        44.350
 110910873.999 8  86424056.78148  21105621.840    21105615.880          50.950
        48.050
 116105527.502 8  90471818.07947  22094144.360    22094137.980          50.750
        44.250
 111758100.612 8  87084247.55847  21266849.540    21266845.760          50.700
        46.550
 11  9  3  0 15 45.0000000  0 12G12G04G20G25G29G13G31G05G30G02G23G10
 123422001.169 8  96172983.05947  23486424.440    23486420.900          48.700
        42.600
 112569468.052 8  87716485.55047  21421241.900    21421237.760          50.850
        46.750
 130571174.549 7 101743773.44445  24846860.480    24846856.540          43.300
        34.350
 116967226.546 8  91143318.46547  22258118.120    22258117.060          50.950
        46.300
 122772094.355 8  95666571.13546  23362745.220    23362742.500          48.700
        41.950
 117376273.580 8  91462018.84146  22335960.000    22335955.780          49.000
        41.900
 121458303.330 8  94642833.28047  23112740.100    23112735.680          48.900
        43.700
 130250417.126 7 101493832.71946  24785827.800    24785825.640          46.900
        38.400
 115773630.773 8  90213216.53647  22030984.760    22030981.200          50.000
        44.350
 110889140.814 8  86407121.83848  21101486.140    21101480.200          50.850
        48.100
 116101557.987 8  90468724.98647  22093388.940    22093382.720          50.650
        45.100
 111731745.427 8  87063711.12847  21261834.320    21261830.380          50.550
        46.850
 11  9  3  0 16  0.0000000  0 12G12G04G20G25G29G13G31G05G30G02G23G10
 123469984.217 8  96210372.41747  23495555.360    23495551.780          48.500
        42.350
 112604071.491 8  87743449.28547  21427826.740    21427822.640          50.700
        46.550
 130628039.125 7 101788083.46545  24857681.420    24857677.580          43.450
        33.350
 116987738.608 8  91159301.90447  22262021.420    22262020.360          50.700
        46.350
 122724177.907 8  95629233.65547  23353626.980    23353624.160          48.150
        42.350
 117343592.457 8  91436553.09446  22329740.880    22329736.760          49.100
        41.650
 121478590.815 8  94658641.73547  23116600.640    23116596.140          48.750
        43.800
 130191493.276 7 101447918.12246  24774615.000    24774612.760          46.600
        37.400
 115788399.186 8  90224724.38047  22033795.120    22033791.580          49.700
        44.700
 110867539.744 8  86390289.89147  21097375.600    21097369.700          50.700
        47.900
 116097749.040 8  90465756.98547  22092664.100    22092657.940          50.650
        45.300
 111705540.066 8  87043291.43947  21256847.560    21256843.540          50.250
        46.300
 11  9  3  0 16 15.0000000  0 12G12G04G20G25G29G13G31G05G30G02G23G10
 123518053.261 8  96247828.78646  23504702.640    23504699.080          48.800
        41.650
 112638796.592 8  87770507.68247  21434434.700    21434430.720          50.750
        46.600
 130684941.758 7 101832423.14845  24868509.700    24868505.720          42.800
        32.900
 117008402.132 8  91175403.37247  22265953.500    22265952.400          50.750
        46.000
 122676340.977 7  95591958.13646  23344523.800    23344521.080          47.900
        41.400
 117311051.478 8  91411196.48746  22323548.500    22323544.360          49.400
        41.700
 121499022.185 8  94674562.26547  23120488.560    23120484.000          48.800
        43.100
 130132597.557 7 101402025.37546  24763407.500    24763405.140          46.100
        37.550
 115803337.465 8  90236364.58147  22036637.760    22036634.200          49.800
        44.350
 110846070.255 8  86373560.42748  21093290.100    21093284.160          50.750
        48.000
 116094100.217 8  90462913.84747  22091969.780    22091963.680          50.800
        45.350
 111679483.960 8  87022988.02147  21251889.200    21251885.160          50.600
        46.850
 11  9  3  0 16 30.0000000  0 12G12G04G20G25G29G13G31G05G30G02G23G10
 123566205.664 8  96285350.14946  23513865.820    23513862.220          48.650
        41.750
 112673641.150 8  87797659.20447  21441065.380    21441061.540          50.750
        46.350
 130741880.282 7 101876790.91145  24879344.740    24879340.580          42.350
        32.650
 117029214.645 8  91191620.93747  22269913.920    22269912.820          50.850
        46.000
 122628581.636 8  95554743.09947  23335435.380    23335432.840          48.100
        42.100
 117278648.945 8  91385947.84246  22317382.540    22317378.340          49.650
        41.950
 121519594.950 8  94690592.98647  23124403.440    23124398.920          48.900
        43.400
 130073728.044 7 101356153.05346  24752204.960    24752202.500          44.900
        39.850
 115818443.146 8  90248135.22947  22039512.240    22039508.780          49.800
        44.200
 110824730.268 8  86356931.90648  21089229.200    21089223.300          50.750
        48.000
 116090609.003 8  90460193.36747  22091305.460    22091299.400          50.750
        45.350
 111653575.101 8  87002799.35347  21246958.880    21246954.820          50.350
        46.200
 11  9  3  0 16 45.0000000  0 12G12G04G20G25G29G13G31G05G30G02G23G10
 123614444.766 8  96322939.03147  23523045.440    23523041.660          48.600
        42.350
 112708608.687 8  87824906.62147  21447719.480    21447715.680          50.850
        46.200
 130798857.579 7 101921188.75445  24890187.200    24890183.020          43.550
        31.650
 117050179.688 8  91207957.36447  22273903.360    22273902.260          50.750
        46.150
 122580903.802 8  95517591.55947  23326362.560    23326360.000          48.400
        42.550
 117246388.613 8  91360809.93647  22311243.640    22311239.420          50.050
        42.100
 121540312.770 8  94706736.72847  23128346.000    23128341.440          49.100
        43.250
 130014888.954 7 101310304.53746  24741008.200    24741005.800          47.050
        37.400
 115833719.849 8  90260039.15247  22042419.260    22042415.860          49.850
        44.150
 110803523.601 8  86340407.26847  21085193.700    21085187.760          50.950
        47.950
 116087279.270 8  90457598.75247  22090671.860    22090665.860          50.800
        45.300
 111627817.358 8  86982728.42747  21242057.340    21242053.240          50.500
        46.400
 11  9  3  0 17  0.0000000  0 12G12G04G20G25G29G13G31G05G30G02G23G10
 123662764.610 8  96360590.83146  23532240.360    23532236.500          48.650
        41.050
 112743693.361 8  87852245.38447  21454395.880    21454392.060          50.850
        46.000
 130855868.069 7 101965612.49145  24901035.980    24901031.900          42.100
        34.250
 117071291.396 8  91224408.05647  22277920.760    22277919.600          50.900
        45.850
 122533302.199 8  95480499.42946  23317304.280    23317301.680          48.250
        41.650
 117214265.335 8  91335778.91947  22305130.840    22305126.560          50.100
        42.850
 121561169.832 8  94722988.96847  23132315.080    23132310.360          49.250
        43.350
 129956075.015 7 101264475.54646  24729816.240    24729813.880          45.950
        37.900
 115849161.784 8  90272071.81247  22045357.740    22045354.460          49.900
        44.150
 110782444.716 8  86323982.16447  21081182.520    21081176.540          51.000
        47.800
 116084105.276 8  90455125.42847  22090067.960    22090061.960          50.850
        45.150
 111602205.335 8  86962771.07447  21237183.460    21237179.360          50.600
        46.600
 11  9  3  0 17 15.0000000  0 12G12G04G20G25G29G13G31G05G30G02G23G10
 123711170.825 8  96398309.94946  23541451.760    23541447.900          48.800
        41.300
 112778900.906 8  87879679.99247  21461095.680    21461091.700          51.050
        46.450
 130912917.301 6 102010066.42045  24911892.100    24911888.240          40.950
        33.800
 117092555.621 8  91240977.58947  22281967.140    22281966.060          50.900
        46.100
 122485783.162 8  95443471.63147  23308261.640    23308259.160          48.000
        42.850
 117182285.189 8  91310859.33247  22299045.280    22299041.020          50.250
        43.150
 121582171.826 8  94739354.14547  23136311.800    23136306.760          49.350
        43.550
 129897292.172 7 101218670.74246  24718630.160    24718628.060          45.850
        38.750
 115864774.789 8  90284237.77547  22048328.760    22048325.600          49.950
        44.250
 110761500.020 8  86307661.61848  21077196.900    21077190.860          51.000
        48.250
 116081093.308 8  90452778.39247  22089494.900    22089488.860          50.900
        45.800
 111576745.155 8  86942932.02147  21232338.440    21232334.360          50.350
        46.700
 11  9  3  0 17 30.0000000  0 12G12G04G20G25G29G13G31G05G30G02G23G10
 123759660.540 8  96436094.14746  23550679.040    23550675.280          48.850
        40.600
 112814227.958 8  87907207.54747  21467818.180    21467814.100          51.050
        46.250
 130970002.318 6 102054548.17845  24922754.980    24922751.260          41.050
        35.750
 117113969.628 8  91257663.85247  22286042.020    22286041.040          50.900
        45.900
 122438344.367 8  95406506.35147  23299234.300    23299231.860          48.050
        42.400
 117150445.835 8  91286049.35847  22292986.540    22292982.220          50.400
        43.200
 121603315.994 8  94755830.07047  23140335.520    23140330.380          49.550
        43.350
 129838538.274 7 101172888.48846  24707449.540    24707447.420          45.350
        39.100
 115880556.099 8  90296534.87847  22051331.840    22051328.700          50.200
        43.900
 110740687.168 8  86291443.84947  21073236.400    21073230.280          51.050
        47.950
 116078240.783 8  90450555.62547  22088952.140    22088946.040          50.900
        44.900
 111551434.482 8  86923209.45947  21227521.880    21227517.880          50.400
        46.650
 11  9  3  0 17 45.0000000  0 12G12G04G20G25G29G13G31G05G30G02G23G10
 123808232.660 8  96473942.56246  23559922.000    23559918.300          48.850
        41.200
 112849673.987 8  87934827.96647  21474563.300    21474559.180          51.000
        46.100
 131027122.323 6 102099057.25245  24933624.600    24933620.660          41.350
        34.550
 117135532.271 8  91274465.90647  22290145.200    22290144.300          51.050
        45.600
 122390985.205 8  95369603.13447  23290222.020    23290219.720          48.400
        42.350
 117118747.159 8  91261349.14547  22286954.560    22286950.200          50.350
        42.650
 121624601.400 8  94772416.09847  23144386.120    23144380.920          49.700
        43.000
 129779812.762 7 101127128.35746  24696274.380    24696272.180          45.650
        38.050
 115896504.790 8  90308962.41947  22054366.800    22054363.660          50.050
        44.200
 110720005.317 8  86275328.16348  21069300.820    21069294.600          51.150
        48.150
 116075546.875 8  90448456.55047  22088439.500    22088433.320          50.850
        44.950
 111526272.765 8  86903603.00247  21222733.600    21222729.800          50.400
        46.650
 11  9  3  0 18  0.0000000  0 12G12G04G20G25G29G13G31G05G30G02G23G10
 123856889.771 8  96511857.20346  23569181.140    23569177.480          48.950
        41.050
 112885241.346 8  87962542.76947  21481331.440    21481327.460          50.900
        46.350
 131084279.462 7 102143595.12546  24944501.180    24944497.220          43.000
        36.000
 117157246.495 8  91291386.08247  22294277.280    22294276.340          51.000
        45.700
 122343709.132 8  95332764.65447  23281225.640    23281223.380          48.800
        42.150
 117087192.187 8  91236760.85147  22280949.900    22280945.540          50.200
        42.450
 121646030.775 8  94789114.30647  23148464.140    23148458.980          49.750
        43.250
 129721118.897 7 101081392.85846  24685105.140    24685103.020          44.850
        39.950
 115912623.708 8  90321522.60647  22057434.180    22057430.960          50.200
        44.200
 110699457.626 8  86259317.00647  21065390.740    21065384.440          51.100
        47.800
 116073014.574 8  90446483.37747  22087957.560    22087951.300          50.700
        44.600
 111501263.108 8  86884115.01547  21217974.320    21217970.560          50.550
        46.400
 11  9  3  0 18 15.0000000  0 12G12G04G20G25G29G13G31G05G30G02G23G10
 123905625.898 8  96549833.36046  23578455.360    23578451.700          48.700
        40.900
 112920924.698 8  87990348.02747  21488121.660    21488117.900          50.900
        46.150
 131141468.332 7 102188157.75445  24955383.860    24955379.720          42.000
        34.650
 117179106.626 8  91308419.93647  22298437.160    22298436.140          51.050
        45.900
 122296511.028 8  95295986.91147  23272244.160    23272241.800          48.700
        42.450
 117055775.862 8  91212280.66247  22274971.560    22274967.140          50.000
        42.050
 121667598.557 8  94805920.35047  23152568.500    23152563.340          49.650
        43.200
 129662451.789 7 101035678.29746  24673941.100    24673939.140          47.300
        37.300
 115928907.218 8  90334211.04847  22060532.860    22060529.560          50.150
        43.550
 110679038.994 8  86243406.40947  21061505.220    21061498.880          50.950
        47.750
 116070638.604 8  90444632.01747  22087505.360    22087499.080          50.600
        44.400
 111476400.324 8  86864741.45647  21213242.960    21213239.200          50.350
        46.300
 11  9  3  0 18 30.0000000  0 12G12G04G20G25G29G13G31G05G30G02G23G10
 123954444.531 8  96587873.83546  23587745.240    23587741.620          48.650
        41.550
 112956727.062 8  88018245.99647  21494934.520    21494930.820          50.850
        46.150
 131198692.510 7 102232748.10846  24966273.300    24966269.440          42.100
        36.950
 117201115.923 8  91325570.02547  22302625.480    22302624.440          51.050
        46.000
 122249394.688 8  95259272.89847  23263278.240    23263275.900          48.650
        42.550
 117024501.884 8  91187911.36247  22269020.300    22269015.900          49.850
        42.100
 121689308.031 8  94822836.80647  23156699.740    23156694.640          49.450
        43.250
 129603815.037 7 100989987.30946  24662782.840    24662780.760          46.000
        36.950
 115945358.690 8  90347030.36247  22063663.460    22063660.120          49.900
        44.250
 110658752.941 8  86227599.15047  21057644.900    21057638.560          50.950
        47.850
 116068422.230 8  90442905.02747  22087083.500    22087077.280          50.450
        44.550
 111451688.102 8  86845485.22447  21208540.280    21208536.660          50.300
        46.450
 11  9  3  0 18 45.0000000  0 12G12G04G20G25G29G13G31G05G30G02G23G10
 124003345.540 8  96625978.48646  23597050.760    23597047.240          48.600
        40.750
 112992648.688 8  88046236.86947  21501770.180    21501766.380          51.100
        46.000
 131255951.563 7 102277365.44845  24977169.360    24977165.720          42.900
        35.950
 117223274.747 8  91342836.62347  22306842.280    22306841.220          51.250
        45.900
 122202360.828 8  95222623.14347  23254328.000    23254325.700          48.400
        42.350
 116993370.865 8  91163653.38447  22263096.180    22263091.760          49.900
        42.300
 121711159.446 8  94839863.86247  23160857.860    23160852.800          49.450
        43.150
 129545209.449 7 100944320.64246  24651630.600    24651628.660          47.400
        38.050
 115961978.478 8  90359980.83647  22066826.100    22066822.820          50.000
        43.900
 110638600.151 8  86211895.73447  21053809.860    21053803.560          50.900
        47.850
 116066365.890 8  90441302.62547  22086692.100    22086685.840          50.600
        44.400
 111427127.073 8  86826346.80447  21203866.400    21203862.900          50.450
        46.450
 11  9  3  0 19  0.0000000  0 12G12G04G20G25G29G13G31G05G30G02G23G10
 124052328.290 8  96664146.84946  23606371.840    23606368.400          48.450
        41.850
 113028688.840 8  88074320.11147  21508628.420    21508624.460          50.850
        46.050
 131313245.186 7 102322009.79946  24988072.020    24988068.300          42.450
        37.200
 117245582.475 8  91360219.26247  22311087.420    22311086.320          51.050
        46.050
 122155409.437 8  95186037.67247  23245393.360    23245391.040          48.300
        42.350
 116962382.641 8  91139506.56447  22257199.260    22257194.800          49.650
        42.100
 121733152.095 8  94857000.85547  23165042.880    23165037.720          49.250
        43.000
 129486634.845 7 100898678.10646  24640484.240    24640482.360          46.150
        38.500
 115978765.870 8  90373061.88847  22070020.660    22070017.380          49.950
        44.100
 110618580.431 8  86196295.98748  21050000.160    21049993.920          50.700
        48.100
 116064469.437 8  90439824.84747  22086331.160    22086324.940          50.550
        44.700
 111402717.141 8  86807326.11147  21199221.360    21199217.800          50.300
        46.800
 11  9  3  0 19 15.0000000  0 12G12G04G20G25G29G13G31G05G30G02G23G10
 124101390.728 8  96702377.28546  23615708.140    23615704.840          48.600
        41.150
 113064845.881 8  88102494.43647  21515508.880    21515504.820          50.850
        45.800
 131370571.293 7 102366679.43345  24998980.820    24998977.120          42.700
        35.200
 117268037.283 8  91377716.48747  22315360.560    22315359.360          51.000
        45.750
 122108539.116 8  95149515.33446  23236474.180    23236471.560          48.200
        41.550
 116931536.132 8  91115470.23846  22251329.320    22251324.920          49.650
        41.600
 121755284.342 8  94874246.67947  23169254.540    23169249.260          49.450
        42.950
 129428090.053 7 100853058.85746  24629343.540    24629341.600          46.600
        38.300
 115995719.232 8  90386272.27547  22073246.860    22073243.600          50.200
        43.800
 110598692.353 8  86180798.83347  21046215.460    21046209.320          50.800
        47.700
 116062731.428 8  90438470.54747  22086000.460    22085994.140          50.700
        44.400
 111378456.955 8  86788422.09347  21194604.820    21194601.140          50.450
        46.450
 11  9  3  0 19 30.0000000  0 12G12G04G20G25G29G13G31G05G30G02G23G10
 124150534.540 8  96740671.12846  23625059.900    23625056.680          48.300
        40.900
 113101120.902 8  88130760.61147  21522411.740    21522407.680          50.700
        45.800
 131427931.529 7 102411375.67046  25009896.160    25009892.360          43.950
        36.550
 117290640.665 8  91395329.50147  22319661.920    22319660.580          50.950
        46.050
 122061751.859 8  95113057.72747  23227570.860    23227568.080          48.100
        42.600
 116900833.330 8  91091545.89847  22245486.740    22245482.460          49.700
        42.000
 121777557.760 8  94891602.57147  23173493.060    23173487.820          49.300
        43.650
 129369576.991 7 100807464.32346  24618208.920    24618206.740          45.900
        39.300
 116012839.982 8  90399613.09347  22076504.880    22076501.620          50.150
        44.100
 110578937.700 8  86165405.66447  21042456.160    21042450.060          50.750
        47.900
 116061153.656 8  90437241.23347  22085700.240    22085693.840          50.850
        44.500
 111354348.231 8  86769636.11547  21190017.120    21190013.300          50.450
        46.650
 11  9  3  0 19 45.0000000  0 12G12G04G20G25G29G13G31G05G30G02G23G10
 124199757.924 8  96779027.01146  23634426.780    23634423.560          48.250
        41.900
 113137512.910 8  88159117.99847  21529336.860    21529332.860          50.650
        45.850
 131485324.242 7 102456097.18646  25020817.720    25020813.960          43.550
        36.100
 117313391.390 8  91413057.33747  22323991.260    22323989.840          50.950
        45.900
 122015047.051 7  95076664.37647  23218683.240    23218680.640          47.900
        42.750
 116870273.556 8  91067733.12947  22239671.380    22239667.220          49.750
        42.550
 121799970.938 8  94909067.34247  23177758.180    23177753.060          49.200
        43.900
 129311094.784 7 100761893.80846  24607080.140    24607077.880          46.350
        38.400
 116030126.986 8  90413083.45947  22079794.560    22079791.380          50.250
        44.350
 110559315.515 8  86150115.68748  21038722.120    21038716.020          50.700
        48.200
 116059734.671 8  90436135.51947  22085430.340    22085423.760          50.850
        44.800
 111330389.986 8  86750967.39847  21185458.100    21185454.140          50.450
        46.800
 11  9  3  0 20  0.0000000  0 12G12G04G20G25G29G13G31G05G30G02G23G10
 124249060.012 8  96817444.24246  23643808.620    23643805.400          48.450
        41.150
 113174021.082 8  88187565.90747  21536284.140    21536280.300          50.850
        46.200
 131542748.663 7 102500843.45845  25031745.320    25031741.720          43.200
        34.900
 117336288.678 8  91430899.38547  22328348.440    22328347.060          51.000
        45.850
 121968424.387 8  95040335.05647  23209811.200    23209808.780          48.150
        43.150
 116839856.294 8  91044031.34047  22233883.200    22233879.060          50.050
        42.900
 121822523.204 8  94926640.48747  23182049.680    23182044.820          48.950
        43.400
 129252643.284 7 100716347.23346  24595957.280    24595954.920          46.850
        38.800
 116047579.474 8  90426682.78647  22083115.760    22083112.560          50.300
        43.900
 110539825.385 8  86134928.60947  21035013.200    21035007.100          50.850
        47.900
 116058474.174 8  90435153.40747  22085190.520    22085183.800          50.900
        44.250
 111306582.008 8  86732415.76247  21180927.640    21180923.560          50.650
        46.600
 11  9  3  0 20 15.0000000  0 12G12G04G20G25G29G13G31G05G30G02G23G10
 124298444.960 8  96855926.00746  23653206.260    23653203.100          48.300
        41.000
 113210649.522 8  88216107.55947  21543254.320    21543250.560          50.850
        46.400
 131600209.320 7 102545618.12346  25042679.800    25042676.180          44.400
        37.650
 117359336.811 8  91448858.95047  22332734.300    22332733.020          50.750
        45.650
 121921888.625 8  95004073.44447  23200955.620    23200953.420          48.100
        43.000
 116809586.573 8  91020444.54447  22228123.120    22228118.960          49.950
        42.700
 121845218.803 8  94944325.37247  23186368.360    23186363.780          48.750
        43.250
 129194227.207 7 100670828.18446  24584841.140    24584838.580          46.850
        38.150
 116065201.860 8  90440414.50147  22086469.240    22086466.040          50.200
        44.050
 110520472.035 8  86119848.10448  21031330.320    21031324.220          50.750
        48.150
 116057376.545 8  90434298.13147  22084981.620    22084974.860          50.750
        44.450
 111282928.981 8  86713984.84547  21176426.660    21176422.400          50.550
        46.850
 11  9  3  0 20 30.0000000  0 12G12G04G20G25G29G13G31G05G30G02G23G10
 124347905.464 8  96894466.64146  23662618.260    23662615.180          48.050
        41.600
 113247390.836 8  88244737.08047  21550246.000    21550242.220          50.900
        46.150
 131657698.475 7 102590414.83246  25053619.580    25053616.040          44.650
        37.550
 117382528.583 8  91466930.45847  22337147.480    22337146.280          50.750
        45.950
 121875433.163 8  94967874.40347  23192115.480    23192113.260          48.900
        42.750
 116779457.539 8  90996967.43247  22222389.820    22222385.740          50.100
        43.400
 121868050.435 8  94962116.20447  23190712.920    23190708.620          48.900
        43.200
 129135839.929 7 100625331.63746  24573730.380    24573727.760          45.900
        39.450
 116082986.829 8  90454272.90047  22089853.620    22089850.380          50.150
        44.550
 110501248.653 8  86104868.90248  21027672.180    21027666.080          50.750
        48.050
 116056434.742 8  90433564.22947  22084802.300    22084795.600          50.750
        44.850
 111259424.014 8  86695669.31147  21171953.820    21171949.420          50.600
        46.700
 11  9  3  0 20 45.0000000  0 12G12G04G20G25G29G13G31G05G30G02G23G10
 124397447.087 7  96933070.45646  23672045.600    23672042.620          47.900
        41.150
 113284250.884 8  88273459.20047  21557260.260    21557256.480          50.850
        46.250
 131715222.080 7 102635238.56046  25064565.980    25064562.300          45.050
        36.650
 117405869.604 8  91485118.25447  22341589.000    22341587.900          50.800
        45.450
 121829064.131 8  94931742.71847  23183291.860    23183289.340          49.000
        42.250
 116749475.202 8  90973604.62747  22216684.400    22216680.300          50.050
        43.100
 121891023.842 8  94980017.48147  23195084.500    23195080.340          49.150
        43.100
 129077487.642 7 100579862.41146  24562626.220    24562623.680          46.050
        38.400
 116100940.029 8  90468262.37647  22093270.040    22093266.780          50.100
        44.100
 110482161.208 8  86089995.60347  21024039.900    21024033.800          50.750
        47.900
 116055655.040 8  90432956.82647  22084653.840    22084647.240          50.800
        44.550
 111236073.109 8  86677473.82347  21167510.260    21167505.840          50.550
        46.600
 11  9  3  0 21  0.0000000  0 12G12G04G20G25G29G13G31G05G30G02G23G10
 124447064.904 7  96971733.67146  23681487.520    23681484.600          47.950
        41.400
 113321224.633 8  88302269.92247  21564296.080    21564292.200          50.650
        45.850
 131772774.989 7 102680085.03246  25075517.880    25075514.080          44.400
        37.550
 117429355.175 8  91503418.70147  22346058.060    22346056.920          50.650
        45.600
 121782777.150 8  94895674.95647  23174483.840    23174480.920          48.750
        42.450
 116719635.353 8  90950352.82147  22211006.080    22211002.000          49.850
        43.200
 121914134.326 8  94998025.62447  23199482.280    23199478.080          49.000
        43.300
 129019165.976 7 100534417.01246  24551527.940    24551525.400          46.350
        37.900
 116119056.898 8  90482379.40847  22096717.560    22096714.240          50.000
        44.150
 110463205.265 8  86075224.70247  21020432.660    21020426.540          50.650
        47.900
 116055032.531 8  90432471.79347  22084535.340    22084528.700          50.650
        44.250
 111212872.103 8  86659395.13647  21163095.220    21163090.820          50.350
        46.650
 11  9  3  0 21 15.0000000  0 12G12G04G20G25G29G13G31G05G30G02G23G10
 124496763.619 8  97010459.92246  23690944.920    23690941.840          48.050
        41.050
 113358316.902 8  88331172.96447  21571354.440    21571350.500          50.650
        45.750
 131830361.933 7 102724958.03446  25086476.340    25086472.580          45.200
        38.300
 117452989.988 8  91521835.44147  22350555.540    22350554.440          50.350
        45.900
 121736577.506 8  94859675.24947  23165692.340    23165689.280          48.250
        43.000
 116689943.244 8  90927216.22547  22205355.820    22205351.740          49.700
        43.300
 121937386.529 8  95016144.21547  23203907.020    23203902.800          48.800
        43.450
 128960880.116 7 100488999.47746  24540436.520    24540434.000          46.350
        38.300
 116137342.067 8  90496627.58047  22100197.140    22100193.760          49.850
        44.600
 110444386.058 8  86060560.39548  21016851.500    21016845.340          50.650
        48.250
 116054572.029 8  90432112.90947  22084447.720    22084441.080          50.600
        44.600
 111189825.896 8  86641437.06347  21158709.660    21158705.260          50.250
        46.650
 11  9  3  0 21 30.0000000  0 12G12G04G20G25G29G13G31G05G30G02G23G10
 124546537.733 8  97049244.92846  23700416.580    23700413.380          48.650
        39.850
 113395522.695 8  88360164.54047  21578434.480    21578430.500          51.300
        45.300
 131887977.642 7 102769853.40245  25097440.200    25097436.420          45.850
        35.100
 117476769.066 8  91540364.58047  22355080.460    22355079.520          51.250
        44.900
 121690460.849 8  94823740.21047  23156916.500    23156913.860          49.000
        42.200
 116660394.426 8  90904191.31247  22199732.800    22199728.660          50.350
        42.600
 121960775.507 8  95034369.38847  23208357.860    23208353.600          49.900
        42.700
 128902625.714 7 100443606.48246  24529351.100    24529348.480          46.950
        37.550
 116155790.629 8  90511003.05047  22103707.820    22103704.440          50.650
        43.650
 110425698.992 8  86045999.07547  21013295.480    21013289.240          51.300
        47.300
 116054268.698 8  90431876.34547  22084390.020    22084383.300          51.350
        44.150
 111166929.958 8  86623596.08747  21154352.640    21154348.260          50.900
        45.950
 11  9  3  0 21 45.0000000  0 12G12G04G20G25G29G13G31G05G30G02G23G10
 124596391.445 8  97088091.97046  23709903.380    23709900.080          48.250
        40.250
 113432845.930 8  88389247.64047  21585536.900    21585532.860          51.050
        45.800
 131945626.091 7 102814774.15745  25108410.280    25108406.380          45.800
        34.900
 117500696.443 8  91559009.26147  22359633.620    22359632.760          50.750
        45.600
 121644431.752 8  94787873.38747  23148157.460    23148155.080          49.100
        42.900
 116630993.107 8  90881281.22847  22194137.800    22194133.640          50.050
        42.600
 121984305.220 8  95052704.16647  23212835.500    23212831.180          49.450
        42.850
 128844407.318 7 100398241.55946  24518272.500    24518269.760          46.650
        38.000
 116174406.649 8  90525509.00947  22107250.320    22107246.960          50.200
        43.700
 110407148.417 8  86031544.08847  21009765.420    21009759.160          50.950
        47.700
 116054127.516 8  90431766.36447  22084363.220    22084356.500          50.900
        44.250
 111144188.882 8  86605875.78447  21150025.100    21150020.800          50.600
        46.450
 11  9  3  0 22  0.0000000  0 12G12G04G20G25G29G13G31G05G30G02G23G10
 124646321.996 8  97126998.88346  23719404.880    23719401.500          48.400
        40.650
 113470283.922 8  88418420.12847  21592661.200    21592657.220          50.900
        46.000
 132003304.990 7 102859718.76346  25119386.200    25119382.140          45.650
        36.000
 117524769.595 8  91577767.55147  22364214.540    22364213.820          50.650
        45.400
 121598488.135 8  94752073.18747  23139414.740    23139412.300          49.150
        43.050
 116601737.655 8  90858484.96647  22188570.580    22188566.420          49.900
        42.450
 122007973.193 8  95071146.69547  23217339.400    23217335.080          49.150
        42.850
 128786222.811 7 100352903.00246  24507200.320    24507197.740          46.650
        39.400
 116193187.681 8  90540143.54747  22110824.260    22110820.800          50.200
        44.150
 110388732.143 8  86017193.74647  21006260.900    21006254.660          50.900
        47.650
 116054145.904 8  90431780.82047  22084366.760    22084359.980          50.900
        44.150
 111121600.417 8  86588274.38947  21145726.580    21145722.400          50.350
        46.600
 11  9  3  0 22 15.0000000  0 12G12G04G20G25G29G13G31G05G30G02G23G10
 124696327.403 8  97165964.13546  23728920.680    23728917.260          48.350
        40.300
 113507834.663 8  88447680.40047  21599806.920    21599803.020          50.800
        45.850
 132061012.263 7 102904685.47446  25130367.520    25130363.520          45.650
        36.250
 117548986.674 8  91596637.97647  22368822.900    22368822.180          50.450
        45.700
 121552628.670 8  94716338.53147  23130688.120    23130685.380          49.250
        42.400
 116572626.356 8  90835800.91547  22183030.740    22183026.520          49.950
        42.350
 122031777.639 8  95089695.56947  23221869.180    23221865.000          48.650
        43.250
 128728070.883 7 100307589.84046  24496134.280    24496131.660          46.700
        37.800
 116212131.827 8  90554905.19047  22114429.260    22114425.780          50.100
        44.150
 110370448.650 8  86002946.87547  21002781.660    21002775.440          50.850
        47.700
 116054321.848 8  90431917.97347  22084400.260    22084393.320          50.850
        43.650
 111099163.070 8  86570790.76147  21141456.820    21141452.820          50.400
        46.650
 11  9  3  0 22 30.0000000  0 12G12G04G20G25G29G13G31G05G30G02G23G10
 124746409.625 8  97204989.23346  23738451.040    23738447.720          48.250
        40.850
 113545500.183 8  88477030.06847  21606974.400    21606970.600          50.700
        45.700
 132118749.939 7 102949675.93946  25141354.620    25141350.640          44.900
        36.300
 117573349.673 8  91615622.11447  22373459.020    22373458.300          50.850
        45.450
 121506855.958 8  94680671.48947  23121977.960    23121974.860          49.150
        42.450
 116543661.872 8  90813231.25147  22177518.880    22177514.600          50.100
        42.300
 122055720.639 8  95108352.49847  23226425.260    23226421.260          48.900
        43.400
 128669954.105 7 100262304.11446  24485074.940    24485072.500          46.450
        39.050
 116231241.146 8  90569795.55847  22118065.680    22118062.220          50.400
        44.050
 110352300.369 8  85988805.37647  20999328.160    20999322.000          50.900
        47.850
 116054657.920 8  90432179.89547  22084464.180    22084457.120          50.600
        43.400
 111076879.313 8  86553426.81947  21137216.320    21137212.400          50.600
        46.650
 11  9  3  0 22 45.0000000  0 12G12G04G20G25G29G13G31G05G30G02G23G10
 124796569.225 8  97244074.60946  23747996.100    23747992.880          48.300
        40.800
 113583281.315 8  88506469.76247  21614163.820    21614160.140          50.650
        45.300
 132176518.568 7 102994690.40745  25152347.580    25152343.720          45.350
        35.950
 117597859.487 8  91634720.65647  22378123.120    22378122.340          50.950
        45.550
 121461171.279 8  94645073.01747  23113284.440    23113281.240          49.050
        43.000
 116514845.273 8  90790776.73947  22172035.200    22172030.940          50.050
        42.300
 122079802.938 8  95127117.98547  23231008.080    23231003.780          49.450
        43.050
 128611873.780 7 100217046.78946  24474022.580    24474020.160          46.200
        39.250
 116250516.526 8  90584815.33547  22121733.700    22121730.220          50.350
        43.900
 110334288.525 8  85974770.19347  20995900.620    20995894.480          50.950
        47.750
 116055155.125 8  90432567.40347  22084558.700    22084551.620          50.800
        43.950
 111054750.283 8  86536183.42647  21133005.320    21133001.360          50.700
        46.850
 11  9  3  0 23  0.0000000  0 12G12G04G20G25G29G13G31G05G30G02G23G10
 124846801.450 8  97283216.56546  23757555.020    23757551.740          48.150
        41.750
 113621173.742 8  88535996.34447  21621374.440    21621370.800          50.400
        45.650
 132234313.658 7 103039725.61445  25163345.580    25163341.860          45.350
        35.500
 117622511.397 8  91653929.92247  22382814.320    22382813.380          50.800
        45.300
 121415570.519 8  94609539.96647  23104606.960    23104603.860          48.900
        43.100
 116486172.822 8  90768434.62547  22166578.980    22166574.720          49.900
        42.850
 122104019.725 8  95145988.24247  23235616.620    23235611.800          49.400
        42.650
 128553825.791 7 100171814.63946  24462976.340    24462973.960          45.250
        40.600
 116269953.352 8  90599960.90647  22125432.400    22125428.880          50.000
        44.000
 110316408.842 8  85960837.98547  20992498.260    20992492.060          50.850
        47.950
 116055808.826 8  90433076.84547  22084683.000    22084675.960          50.550
        44.100
 111032771.854 8  86519057.39047  21128823.000    21128818.960          50.550
        46.800
 11  9  3  0 23 15.0000000  0 12G12G04G20G25G29G13G31G05G30G02G23G10
 124897112.495 8  97322419.96846  23767128.940    23767125.600          48.250
        40.650
 113659183.311 8  88565614.23147  21628607.360    21628603.660          50.600
        45.100
 132292141.180 7 103084786.02545  25174349.800    25174345.900          45.300
        34.900
 117647311.683 8  91673254.82647  22387533.760    22387532.700          50.750
        45.300
 121370060.422 8  94574077.55247  23095946.760    23095943.760          48.850
        43.100
 116457650.949 8  90746209.84247  22161151.400    22161147.140          49.950
        42.450
 122128377.198 8  95164968.07047  23240251.960    23240246.700          49.450
        42.750
 128495817.073 7 100126613.11646  24451937.600    24451935.180          46.800
        38.400
 116289557.811 8  90615237.10747  22129162.940    22129159.440          49.850
        43.750
 110298667.966 8  85947013.97147  20989122.340    20989116.060          50.900
        47.750
 116056625.553 8  90433713.25447  22084838.340    22084831.400          50.450
        44.100
 111010950.608 8  86502053.84047  21124670.600    21124666.480          50.650
        46.500
 11  9  3  0 23 30.0000000  0 12G12G04G20G25G29G13G31G05G30G02G23G10
 124947496.571 8  97361680.25746  23776716.700    23776713.360          48.050
        40.400
 113697304.366 8  88595318.92547  21635861.580    21635857.780          50.750
        45.300
 132349995.639 7 103129867.42845  25185359.100    25185355.280          45.400
        35.900
 117672254.780 8  91692690.99847  22392280.400    22392279.300          51.050
        45.650
 121324635.980 8  94538681.89947  23087302.880    23087299.880          49.100
        43.150
 116429274.932 8  90724098.83647  22155751.580    22155747.240          50.050
        42.750
 122152870.091 8  95184053.43747  23244912.920    23244907.740          49.200
        42.550
 128437842.205 7 100081437.92746  24440905.360    24440903.000          46.200
        39.900
 116309324.406 8  90630639.65747  22132924.360    22132920.840          50.050
        43.950
 110281060.654 8  85933294.03947  20985771.840    20985765.480          51.000
        47.950
 116057600.141 8  90434472.69447  22085023.700    22085016.920          50.450
        44.150
 110989281.332 8  86485168.69147  21120547.120    21120543.020          50.750
        46.800
 11  9  3  0 23 45.0000000  0 12G12G04G20G25G29G13G31G05G30G02G23G10
 124997956.247 7  97400999.44646  23786318.880    23786315.520          47.750
        41.150
 113735539.644 8  88625112.70947  21643137.580    21643133.720          50.700
        46.000
 132407879.618 7 103174971.87646  25196374.040    25196370.040          44.850
        36.050
 117697343.268 8  91712240.44647  22397054.680    22397053.520          50.900
        45.600
 121279300.360 8  94503355.44147  23078675.820    23078672.720          48.300
        43.150
 116401047.277 8  90702103.26947  22150380.000    22150375.660          50.000
        42.750
 122177501.126 8  95203246.45147  23249599.940    23249595.140          48.600
        43.150
 128379904.354 7 100036291.57446  24429880.160    24429877.580          46.850
        39.300
 116329255.779 8  90646170.55647  22136717.140    22136713.680          49.750
        43.950
 110263589.800 8  85919680.45447  20982447.240    20982440.800          50.850
        47.850
 116058735.279 8  90435357.23747  22085239.600    22085233.020          50.200
        44.200
 110967767.033 8  86468404.30847  21116453.160    21116449.040          50.550
        47.000
 11  9  3  0 24  0.0000000  0 12G12G04G20G25G29G13G31G05G30G02G23G10
 125048489.640 7  97440376.11646  23795935.060    23795931.720          47.650
        40.150
 113773887.138 8  88654993.87647  21650434.920    21650431.140          50.750
        45.650
 132465791.213 7 103220097.85145  25207394.220    25207390.280          45.100
        35.700
 117722575.383 8  91731901.80947  22401856.280    22401855.080          50.800
        45.750
 121234052.387 8  94468097.29047  23070065.240    23070062.120          48.350
        43.250
 116372967.032 8  90680222.53047  22145036.520    22145032.200          50.150
        42.850
 122202268.189 8  95222545.44347  23254312.760    23254308.400          48.600
        43.600
 128322002.460 7  99991173.25046  24418861.880    24418859.040          47.550
        39.400
 116349350.262 8  90661828.55147  22140540.920    22140537.540          49.700
        44.000
 110246254.035 8  85906172.11247  20979148.340    20979141.880          50.800
        47.850
 116060029.334 8  90436365.58847  22085485.700    22085479.440          50.250
        44.500
 110946406.394 8  86451759.64847  21112388.400    21112384.260          50.600
        46.950
 11  9  3  0 24 15.0000000  0 12G12G04G20G25G29G13G31G05G30G02G23G10
 125099095.934 7  97479809.57546  23805565.180    23805562.020          47.900
        40.650
 113812346.047 8  88684961.88147  21657753.400    21657749.760          50.600
        45.700
 132523729.673 7 103265244.78246  25218419.560    25218415.540          44.850
        36.350
 117747950.350 8  91751674.49347  22406685.020    22406683.880          50.550
        46.000
 121188891.616 7  94432907.09147  23061471.320    23061468.220          47.950
        43.600
 116345033.831 8  90658456.40747  22139721.020    22139716.660          50.100
        43.100
 122227170.549 8  95241949.90447  23259051.420    23259047.320          48.700
        42.950
 128264136.175 7  99946082.66346  24407850.280    24407847.340          47.400
        37.750
 116369607.036 8  90677613.04547  22144395.640    22144392.300          49.850
        43.450
 110229052.945 8  85892768.71148  20975875.080    20975868.600          50.800
        48.050
 116061481.818 8  90437497.38947  22085761.960    22085755.940          50.100
        44.350
 110925198.886 8  86435234.29947  21108352.780    21108348.540          50.550
        46.900
 11  9  3  0 24 30.0000000  0 12G12G04G20G25G29G13G31G05G30G02G23G10
 125149775.028 7  97519299.73846  23815209.140    23815206.020          47.750
        41.550
 113850916.719 8  88715016.91047  21665093.120    21665089.500          50.500
        45.850
 132581694.898 7 103310412.51045  25229450.020    25229445.840          44.800
        35.800
 117773468.505 8  91771558.76047  22411540.980    22411539.860          50.750
        45.700
 121143819.064 8  94397785.63247  23052894.220    23052891.280          48.600
        43.850
 116317248.396 8  90636805.34347  22134433.640    22134429.260          50.000
        43.150
 122252208.586 8  95261460.06747  23263816.000    23263811.880          49.050
        43.200
 128206306.459 7  99901020.57346  24396845.660    24396842.780          46.850
        39.250
 116390026.325 8  90693524.13447  22148281.260    22148278.000          49.700
        43.800
 110211987.259 8  85879470.79948  20972627.580    20972621.100          50.800
        48.050
 116063093.224 8  90438753.01947  22086068.480    22086062.640          50.000
        44.900
 110904145.270 8  86418828.87347  21104346.400    21104342.180          50.550
        47.300
 11  9  3  0 24 45.0000000  0 12G12G04G20G25G29G13G31G05G30G02G23G10
 125200529.756 7  97558848.85246  23824867.460    23824864.280          47.900
        40.750
 113889601.884 8  88745161.20647  21672454.640    21672451.080          50.650
        45.750
 132639689.937 7 103355603.40445  25240486.100    25240481.960          44.700
        32.950
 117799132.737 8  91791556.85947  22416424.720    22416423.560          50.800
        45.650
 121098838.012 8  94362735.47647  23044334.680    23044331.840          49.000
        43.300
 116289614.306 8  90615272.27647  22129175.060    22129170.640          50.100
        43.050
 122277385.138 8  95281078.11447  23268607.100    23268602.700          49.300
        43.300
 128148516.579 7  99855989.51446  24385848.540    24385845.760          46.450
        40.150
 116410611.242 8  90709564.31347  22152198.440    22152195.260          49.850
        44.150
 110195060.223 8  85866280.94148  20969406.440    20969399.960          50.850
        48.000
 116064866.731 8  90440134.95347  22086405.880    22086400.160          50.200
        44.750
 110883248.900 8  86402545.95947  21100369.940    21100365.760          50.600
        46.900
 11  9  3  0 25  0.0000000  0 12G12G04G20G25G29G13G31G05G30G02G23G10
 125251356.138 7  97598453.80446  23834539.400    23834536.240          47.900
        40.900
 113928397.745 8  88775391.70447  21679837.260    21679833.620          50.650
        45.650
 132697710.910 7 103400814.53145  25251527.140    25251522.860          45.250
        35.850
 117824939.171 8  91811665.76447  22421335.500    22421334.400          50.750
        45.850
 121053945.164 8  94327754.04847  23035791.840    23035788.980          48.600
        43.400
 116262128.045 8  90593854.43747  22123944.560    22123940.260          50.000
        43.400
 122302696.397 8  95300801.13247  23273423.760    23273419.140          49.200
        43.050
 128090763.240 7  99810986.97846  24374858.240    24374855.640          46.250
        40.400
 116431357.907 8  90725730.56147  22156146.420    22156143.320          49.800
        44.000
 110178268.382 8  85853196.41048  20966211.000    20966204.520          50.800
        48.300
 116066798.802 8  90441640.45747  22086773.480    22086767.920          50.050
        45.300
 110862506.400 8  86386382.95947  21096422.760    21096418.620          50.350
        47.300
 11  9  3  0 25 15.0000000  0 12G12G04G20G25G29G13G31G05G30G02G23G10
 125302255.639 8  97638115.71746  23844225.240    23844222.120          48.000
        40.600
 113967305.810 8  88805709.66947  21687241.280    21687237.480          50.850
        45.800
 132755759.361 7 103446047.03245  25262573.380    25262569.140          44.100
        34.100
 117850889.334 8  91831886.66047  22426273.640    22426272.520          50.850
        45.600
 121009142.587 8  94292842.97047  23027266.060    23027263.260          48.800
        42.400
 116234791.852 8  90572553.59847  22118742.620    22118738.380          50.200
        42.950
 122328143.927 8  95320630.36647  23278266.360    23278261.500          49.150
        43.100
 128033048.536 7  99766014.49246  24363875.340    24363872.820          46.200
        39.450
 116452267.872 8  90742024.03047  22160125.440    22160122.420          50.100
        43.750
 110161613.688 8  85840218.72047  20963041.660    20963035.180          50.900
        47.950
 116068891.137 8  90443270.87047  22087171.560    22087166.220          50.250
        45.150
 110841919.644 8  86370341.32947  21092505.160    21092501.060          50.600
        47.000
 11  9  3  0 25 30.0000000  0 12G12G04G20G25G29G13G31G05G30G02G23G10
 125353226.067 8  97677832.88646  23853924.680    23853921.480          48.050
        40.650
 114006323.957 8  88836113.46147  21694666.240    21694662.300          50.800
        45.450
 132813833.076 7 103491299.35145  25273624.440    25273620.300          44.300
        35.600
 117876981.187 8  91852217.95247  22431238.740    22431237.620          50.750
        45.450
 120964428.769 8  94258001.03647  23018757.260    23018754.400          49.100
        42.650
 116207603.644 8  90551367.91947  22113568.900    22113564.560          50.350
        43.550
 122353725.582 8  95340564.10747  23283134.320    23283129.680          48.750
        43.050
 127975370.956 7  99721071.00346  24352899.480    24352897.180          46.600
        40.200
 116473339.037 8  90758443.10647  22164135.160    22164132.060          50.050
        43.600
 110145094.499 8  85827346.64648  20959898.100    20959891.640          50.850
        48.050
 116071141.645 8  90445024.51547  22087599.820    22087594.560          50.400
        44.800
 110821486.910 8  86354419.71247  21088616.880    21088612.800          50.600
        46.800
 11  9  3  0 25 45.0000000  0 12G12G04G20G25G29G13G31G05G30G02G23G10
 125404269.627 7  97717607.04246  23863637.960    23863634.640          47.800
        40.400
 114045454.336 8  88866604.64647  21702112.600    21702108.520          50.650
        45.700
 132871934.435 7 103536573.07145  25284680.700    25284676.720          44.750
        32.950
 117903217.017 8  91872661.45647  22436231.220    22436230.160          50.700
        45.100
 120919806.574 8  94223230.46947  23010266.000    23010262.900          49.100
        42.550
 116180566.883 8  90530300.36547  22108424.040    22108419.620          50.250
        43.600
 122379443.791 8  95360604.31947  23288028.200    23288023.800          48.600
        42.750
 127917733.073 7  99676158.36846  24341931.240    24341928.980          46.650
        39.600
 116494573.692 8  90774989.57447  22168176.020    22168172.820          49.700
        43.450
 110128713.282 8  85814582.05547  20956780.780    20956774.360          50.700
        47.950
 116073553.091 8  90446903.58947  22088058.720    22088053.480          50.050
        46.050
 110801210.755 8  86338620.10047  21084758.420    21084754.360          50.500
        46.900
 11  9  3  0 26  0.0000000  0 12G12G04G20G25G29G13G31G05G30G02G23G10
 125455383.300 7  97757435.85946  23873364.580    23873361.260          47.750
        40.700
 114084694.101 8  88897181.07047  21709579.700    21709575.680          50.700
        45.400
 132930060.228 7 103581865.96645  25295741.660    25295737.500          42.850
        34.550
 117929593.877 8  91893214.81247  22441250.560    22441249.440          50.650
        45.050
 120875273.858 8  94188529.65247  23001791.800    23001788.640          49.100
        43.300
 116153678.774 8  90509348.59647  22103307.420    22103302.980          50.350
        43.400
 122405295.602 8  95380748.63847  23292947.560    23292943.300          49.000
        42.850
 127860132.766 7  99631275.04946  24330970.160    24330967.980          46.700
        39.700
 116515969.062 8  90791661.27047  22172247.460    22172244.320          49.900
        43.750
 110112467.563 8  85801923.10047  20953689.260    20953682.920          50.750
        47.950
 116076122.814 8  90448906.02147  22088547.700    22088542.480          50.100
        45.050
 110781088.751 8  86322940.60947  21080929.320    21080925.280          50.450
        46.700
 11  9  3  0 26 15.0000000  0 12G12G04G20G25G29G13G31G05G30G02G23G10
 125506568.420 7  97797320.32346  23883104.800    23883101.600          47.900
        40.650
 114124044.723 8  88927843.88147  21717067.840    21717063.960          50.650
        45.800
 132988212.056 7 103627178.88945  25306807.620    25306803.600          43.900
        34.550
 117956113.303 8  91913879.30447  22446297.040    22446295.860          50.750
        45.350
 120830832.302 8  94153899.87847  22993334.820    22993331.820          48.850
        43.700
 116126941.356 8  90488514.29547  22098219.500    22098215.020          50.400
        43.350
 122431282.493 8  95400998.21747  23297892.660    23297888.360          48.800
        43.100
 127802572.090 7  99586422.63346  24320016.740    24320014.640          47.200
        40.050
 116537526.597 8  90808459.33547  22176349.740    22176346.720          49.650
        44.050
 110096359.135 8  85789371.09448  20950623.880    20950617.600          50.850
        48.450
 116078852.377 8  90451032.95947  22089067.140    22089061.820          50.550
        45.300
 110761122.908 8  86307382.82047  21077129.960    21077125.900          50.600
        47.100
 11  9  3  0 26 30.0000000  0 12G12G04G20G25G29G13G31G05G30G02G23G10
 125557824.299 8  97837259.93046  23892858.540    23892855.260          48.050
        40.100
 114163505.389 8  88958592.50947  21724576.920    21724573.180          50.750
        45.800
 133046388.948 7 103672511.54445  25317878.320    25317874.260          43.850
        32.000
 117982774.389 8  91934654.13347  22451370.520    22451369.340          50.800
        45.450
 120786481.700 8  94119340.96347  22984895.140    22984892.240          48.900
        43.550
 116100354.156 8  90467797.03147  22093160.120    22093155.620          50.350
        43.600
 122457403.606 8  95421352.31547  23302863.200    23302858.980          48.650
        42.750
 127745050.492 7  99541600.61046  24309070.800    24309068.640          47.050
        38.950
 116559245.527 8  90825383.15647  22180482.740    22180479.820          50.000
        44.050
 110080387.755 8  85776925.88048  20947584.620    20947578.360          50.900
        48.150
 116081741.033 8  90453283.86047  22089616.960    22089611.420          50.700
        44.850
 110741312.725 8  86291946.31147  21073360.280    21073356.100          50.750
        46.900
 11  9  3  0 26 45.0000000  0 12G12G04G20G25G29G13G31G05G30G02G23G10
 125609151.936 8  97877255.45146  23902625.960    23902622.600          48.250
        40.000
 114203077.291 8  88989427.73447  21732107.180    21732103.460          50.850
        45.650
 133104592.712 6 103717865.20045  25328954.160    25328950.600          41.150
        33.200
 118009578.744 8  91955540.63347  22456471.260    22456470.080          50.900
        45.400
 120742224.106 8  94084854.52147  22976473.160    22976470.300          49.000
        43.150
 116073918.802 8  90447198.07147  22088129.660    22088125.120          50.400
        43.350
 122483660.595 8  95441812.27647  23307859.560    23307855.280          48.600
        42.850
 127687570.226 7  99496810.82446  24298132.680    24298130.640          46.950
        40.500
 116581127.293 8  90842433.83447  22184646.760    22184643.740          50.050
        43.800
 110064555.242 8  85764588.86748  20944571.780    20944565.500          50.900
        48.000
 116084790.767 8  90455660.28847  22090197.440    22090191.660          50.750
        45.050
 110721660.130 8  86276632.61947  21069620.620    21069616.320          50.850
        47.050
 11  9  3  0 27  0.0000000  0 12G12G04G20G25G29G13G31G05G30G02G23G10
 125660546.690 7  97917303.30946  23912406.140    23912402.760          47.900
        40.550
 114242756.077 8  89020346.29847  21739657.800    21739654.060          50.750
        45.700
 133162818.429 7 103763235.90145  25340034.200    25340030.860          44.000
        34.700
 118036521.802 8  91976535.24247  22461598.400    22461597.260          50.850
        45.600
 120698055.572 8  94050437.50647  22968068.160    22968065.240          49.100
        43.300
 116047631.838 8  90426714.72447  22083127.380    22083122.780          50.200
        43.100
 122510048.664 8  95462374.41547  23312880.960    23312876.300          48.750
        42.400
 127630127.199 7  99452050.02046  24287201.600    24287199.520          46.350
        39.850
 116603167.377 8  90859607.89847  22188840.900    22188837.840          49.900
        44.200
 110048857.248 8  85752356.69248  20941584.560    20941578.260          50.850
        48.250
 116087997.084 8  90458158.70847  22090807.720    22090801.620          50.950
        45.100
 110702160.740 8  86261438.32047  21065910.080    21065905.680          50.900
        47.400
 11  9  3  0 27 15.0000000  0 12G12G04G20G25G29G13G31G05G30G02G23G10
 125712013.322 7  97957407.15246  23922199.920    23922196.540          47.500
        41.150
 114282546.457 8  89051351.76647  21747229.640    21747225.800          50.550
        45.750
 133221070.899 7 103808627.49845  25351119.220    25351115.560          44.400
        32.950
 118063608.330 8  91997641.61147  22466752.820    22466751.740          50.850
        45.400
 120653981.495 8  94016094.10447  22959681.120    22959678.240          48.700
        43.050
 116021498.612 8  90406351.18247  22078154.360    22078149.800          50.050
        42.900
 122536572.717 8  95483042.50547  23317928.400    23317923.300          48.900
        42.850
 127572726.923 7  99407322.52446  24276278.660    24276276.340          46.500
        39.000
 116625370.808 8  90876909.26147  22193066.100    22193063.040          49.850
        43.900
 110033299.117 8  85740233.51048  20938623.920    20938617.640          50.750
        48.250
 116091365.302 8  90460783.29947  22091448.900    22091442.480          50.900
        45.100
 110682819.929 8  86246367.59747  21062229.740    21062225.260          50.750
        47.150
 11  9  3  0 27 30.0000000  0 12G12G04G20G25G29G13G31G05G30G02G23G10
 125763546.231 7  97997562.57746  23932006.260    23932002.840          47.450
        40.600
 114322442.880 8  89082439.83747  21754821.640    21754817.720          50.250
        45.350
 133279344.749 7 103854035.71145  25362208.320    25362204.580          42.850
        33.850
 118090832.930 8  92018855.53647  22471933.520    22471932.500          50.600
        45.950
 120609996.862 8  93981820.37647  22951310.960    22951308.300          48.350
        44.000
 115995513.936 8  90386103.33547  22073209.560    22073205.100          49.800
        43.250
 122563227.534 8  95503812.51047  23323000.720    23322995.420          48.750
        42.300
 127515364.595 7  99362624.65946  24265362.980    24265360.600          46.350
        40.900
 116647732.066 8  90894333.63147  22197321.320    22197318.340          49.650
        43.950
 110017875.787 8  85728215.36648  20935688.940    20935682.660          50.700
        48.250
 116094889.938 8  90463529.76347  22092119.800    22092113.160          50.950
        45.550
 110663632.654 8  86231416.49847  21058578.560    21058574.000          50.550
        47.550
 11  9  3  0 27 45.0000000  0 12G12G04G20G25G29G13G31G05G30G02G23G10
 125815151.053 7  98037774.14946  23941826.340    23941822.880          47.700
        40.200
 114362450.879 8  89113614.90947  21762434.860    21762430.960          50.250
        45.150
 133337645.440 6 103899464.87845  25373302.480    25373298.540          40.250
        30.200
 118118201.047 8  92040181.32947  22477141.540    22477140.520          50.750
        45.650
 120566107.607 8  93947620.98147  22942959.040    22942956.580          48.750
        43.650
 115969683.676 8  90365975.78447  22068294.120    22068289.740          49.800
        43.050
 122590018.328 8  95524688.40447  23328098.960    23328093.740          48.950
        43.050
 127458045.784 7  99317960.70446  24254455.600    24254453.120          47.100
        39.700
 116670256.575 8  90911885.19647  22201607.580    22201604.640          49.650
        43.750
 110002592.988 8  85716306.71847  20932780.700    20932774.380          50.800
        47.950
 116098576.312 8  90466402.23347  22092821.480    22092814.740          51.050
        45.200
 110644604.702 8  86216589.53747  21054957.700    21054953.060          50.700
        47.050
 11  9  3  0 28  0.0000000  0 12G12G04G20G25G29G13G31G05G30G02G23G10
 125866823.890 7  98078038.69146  23951659.400    23951655.860          47.300
        40.500
 114402566.929 8  89144874.19647  21770068.660    21770064.820          50.200
        45.350
 133395969.139 6 103944912.07244  25384401.100    25384398.140          36.650
        28.350
 118145709.053 8  92061616.13947  22482376.180    22482375.140          50.600
        45.700
 120522310.730 8  93913493.56147  22934624.800    22934622.400          48.850
        43.750
 115944004.451 8  90345965.93547  22063407.440    22063403.080          49.750
        43.200
 122616941.509 8  95545667.48847  23333222.460    23333217.440          48.950
        43.250
 127400767.553 7  99273328.35746  24243555.960    24243553.540          46.900
        40.750
 116692940.740 8  90929561.14647  22205924.200    22205921.180          49.400
        44.100
 109987447.508 8  85704505.05948  20929898.640    20929892.240          50.700
        48.350
 116102421.392 8  90469398.40847  22093553.380    22093546.560          51.000
        45.450
 110625732.858 8  86201884.23047  21051366.540    21051361.800          50.650
        47.350
 11  9  3  0 28 15.0000000  0 12G12G04G20G25G29G13G31G05G30G02G23G10
 125918564.244 7  98118355.79746  23961505.220    23961501.800          47.550
        40.150
 114442790.492 8  89176217.24447  21777722.960    21777719.220          50.600
        45.350
 133454315.698 5 103990376.89945  25395503.960    25395498.840          33.900
        30.550
 118173356.604 8  92083159.67147  22487637.400    22487636.280          50.900
        45.450
 120478606.576 8  93879438.38847  22926308.280    22926305.720          49.100
        43.900
 115918476.787 8  90326074.10947  22058549.660    22058545.340          49.950
        43.250
 122643996.812 8  95566749.51847  23338371.040    23338366.300          49.000
        43.550
 127343530.127 7  99228727.78646  24232664.080    24232661.760          47.300
        40.000
 116715784.269 8  90947361.28047  22210271.160    22210268.080          49.450
        43.550
 109972439.502 8  85692810.52448  20927042.740    20927036.260          50.750
        48.050
 116106425.191 8  90472518.23247  22094315.440    22094308.540          51.050
        45.300
 110607017.230 8  86187300.62047  21047805.100    21047800.300          50.750
        47.100
 11  9  3  0 28 30.0000000  0 11G12G04G25G29G13G31G05G30G02G23G10
 125970380.189 7  98158731.82346  23971365.420    23971362.400          47.550
        39.850
 114483129.821 8  89207650.49947  21785399.360    21785395.620          50.750
        45.650
 118201152.013 8  92104818.41547  22492926.760    22492925.560          50.750
        45.550
 120435003.931 8  93845462.30747  22918011.020    22918008.100          48.750
        43.600
 115893109.753 8  90306307.63247  22053722.520    22053718.260          50.000
        43.300
 122671192.545 8  95587941.00447  23343546.220    23343541.660          48.700
        43.650
 127286342.440 7  99184166.00746  24221781.680    24221779.380          46.850
        40.800
 116738795.467 8  90965292.06347  22214650.000    22214646.980          49.400
        44.150
 109957577.597 8  85681229.85148  20924214.620    20924208.120          50.800
        48.250
 116110596.083 8  90475768.27847  22095109.240    22095102.300          51.150
        45.600
 110588466.471 8  86172845.48447  21044274.980    21044270.240          50.700
        47.400
 11  9  3  0 28 45.0000000  0 11G12G04G25G29G13G31G05G30G02G23G10
 126022254.604 7  98199153.41546  23981236.860    23981233.860          47.400
        40.700
 114523567.731 8  89239160.62747  21793094.560    21793090.720          50.850
        45.850
 118229078.209 8  92126579.08147  22498241.040    22498239.620          50.750
        45.600
 120391486.220 8  93811552.40147  22909729.880    22909726.780          48.600
        43.600
 115867886.411 8  90286653.08447  22048922.740    22048918.460          50.100
        43.450
 122698511.536 8  95609228.49947  23348744.740    23348740.420          48.500
        43.450
 127229187.799 7  99139629.92446  24210905.480    24210903.200          47.200
        40.850
 116761957.312 8  90983340.25247  22219057.480    22219054.520          49.650
        44.000
 109942845.019 8  85669749.93448  20921411.100    20921404.600          50.650
        48.300
 116114917.118 8  90479135.29147  22095931.560    22095924.580          50.950
        45.250
 110570063.842 8  86158505.78147  21040773.000    21040768.440          50.550
        47.600
 11  9  3  0 29  0.0000000  0 11G12G04G25G29G13G31G05G30G02G23G10
 126074196.063 7  98239627.27946  23991121.020    23991117.980          47.550
        40.300
 114564112.684 8  89270754.09247  21800810.100    21800806.180          50.850
        45.600
 118257143.625 8  92148448.22047  22503581.720    22503580.240          50.700
        45.450
 120348062.433 8  93777715.71247  22901466.580    22901463.420          49.000
        43.550
 115842815.756 8  90267117.62347  22044152.040    22044147.660          50.250
        43.400
 122725962.396 8  95630618.72647  23353968.380    23353964.080          48.750
        43.450
 127172075.304 7  99095126.72846  24200037.320    24200034.920          47.300
        39.700
 116785278.313 8  91001512.44447  22223495.340    22223492.380          49.600
        43.850
 109928250.647 8  85658377.70148  20918633.860    20918627.320          50.750
        48.100
 116119397.072 8  90482626.14947  22096784.080    22096776.940          51.000
        45.000
 110551818.269 8  86144288.46647  21037300.920    21037296.540          50.650
        47.200
 11  9  3  0 29 15.0000000  0 11G12G04G25G29G13G31G05G30G02G23G10
 126126205.974 7  98280154.48246  24001018.160    24001014.940          47.550
        40.250
 114604766.377 8  89302432.31147  21808546.220    21808542.300          50.700
        45.500
 118285349.996 8  92170427.19247  22508949.220    22508947.820          50.650
        45.350
 120304734.773 8  93743953.91247  22893221.640    22893218.520          49.150
        43.350
 115817899.804 8  90247702.56147  22039410.760    22039406.320          50.250
        43.700
 122753546.834 8  95652113.04647  23359217.520    23359213.160          48.800
        42.850
 127115007.143 7  99050658.03346  24189177.580    24189175.080          47.100
        40.100
 116808760.095 8  91019809.92047  22227963.800    22227960.880          49.550
        43.500
 109913796.580 8  85647114.79048  20915883.260    20915876.800          50.700
        48.300
 116124037.794 8  90486242.28147  22097667.160    22097659.880          50.900
        44.900
 110533731.835 8  86130195.14047  21033859.140    21033854.880          50.650
        47.350
 11  9  3  0 29 30.0000000  0 11G12G04G25G29G13G31G05G30G02G23G10
 126178280.670 7  98320732.13446  24010927.640    24010924.400          47.400
        39.350
 114645525.362 8  89334192.59247  21816302.320    21816298.380          50.400
        45.000
 118313693.758 8  92192513.22647  22514342.820    22514341.440          50.600
        45.300
 120261500.395 8  93710264.81547  22884994.540    22884991.460          49.200
        43.850
 115793135.465 8  90228405.70247  22034698.260    22034693.880          50.050
        43.550
 122781261.294 8  95673708.74447  23364491.440    23364486.840          48.700
        42.250
 127057980.549 7  99006221.75246  24178325.760    24178323.200          47.000
        40.400
 116832399.207 8  91038229.99347  22232462.200    22232459.260          49.450
        43.500
 109899479.588 8  85635958.69247  20913158.800    20913152.340          50.700
        47.900
 116128836.038 8  90489981.17147  22098580.180    22098572.800          50.850
        44.100
 110515801.410 8  86116223.39947  21030447.060    21030442.900          50.550
        47.300
 11  9  3  0 29 45.0000000  0 11G12G04G25G29G13G31G05G30G02G23G10
 126230421.321 7  98361361.18446  24020849.740    24020846.500          47.600
        39.400
 114686390.698 8  89366035.73647  21824078.620    21824074.740          50.450
        44.800
 118342176.087 8  92214707.18547  22519762.800    22519761.440          50.650
        45.000
 120218360.966 8  93676649.71847  22876785.340    22876782.340          49.050
        43.100
 115768525.075 8  90209229.01547  22030015.040    22030010.640          50.100
        43.150
 122809106.721 8  95695406.40547  23369790.180    23369785.600          48.600
        42.750
 127000997.209 7  98961819.21846  24167482.180    24167479.640          47.850
        40.100
 116856196.885 8  91056773.63647  22236990.800    22236987.860          49.700
        43.600
 109885301.340 8  85624910.71247  20910460.740    20910454.300          50.750
        47.800
 116133793.192 8  90493843.86347  22099523.460    22099515.960          50.800
        44.300
 110498028.491 8  86102374.37947  21027064.980    21027060.820          50.650
        47.000
 11  9  3  0 30  0.0000000  0 11G12G04G25G29G13G31G05G30G02G23G10
 126282629.079 7  98402042.51146  24030784.620    24030781.620          47.750
        39.800
 114727363.498 8  89397962.53147  21831875.460    21831871.540          50.650
        44.850
 118370798.294 8  92237010.18147  22525209.360    22525208.140          50.550
        45.050
 120175318.282 8  93643109.99747  22868594.580    22868591.480          49.150
        43.550
 115744069.638 8  90190172.88147  22025361.220    22025356.820          50.050
        43.250
 122837084.532 8  95717207.24047  23375114.020    23375109.880          48.300
        43.150
 126944058.871 7  98917451.72246  24156647.220    24156644.600          47.900
        39.750
 116880154.332 8  91075441.79147  22241549.820    22241546.800          49.750
        43.800
 109871263.377 8  85613972.05447  20907789.360    20907782.940          50.750
        47.800
 116138910.708 8  90497831.50647  22100497.200    22100489.720          50.850
        44.300
 110480414.737 8  86088649.39047  21023713.200    21023708.980          50.750
        47.400
 11  9  3  0 30 15.0000000  0 11G12G04G25G29G13G31G05G30G02G23G10
 126334900.525 7  98442773.47146  24040731.580    24040728.600          47.500
        40.750
 114768440.673 8  89429970.71447  21839692.180    21839688.260          50.650
        45.300
 118399557.138 8  92259419.63747  22530681.920    22530680.740          50.500
        44.950
 120132369.686 8  93609643.58747  22860421.760    22860418.520          49.400
        43.600
 115719766.444 8  90171235.34847  22020736.320    22020731.980          49.900
        42.900
 122865191.526 8  95739108.67047  23380462.440    23380458.720          48.450
        43.200
 126887162.681 7  98873117.06146  24145820.280    24145817.540          47.950
        39.850
 116904268.386 8  91094231.96147  22246138.560    22246135.460          49.600
        43.650
 109857362.883 8  85603140.51747  20905144.140    20905137.760          50.600
        47.800
 116144185.579 8  90501941.79547  22101500.880    22101493.500          50.850
        44.350
 110462957.285 8  86075046.19447  21020391.140    21020386.840          50.700
        47.500
 11  9  3  0 30 30.0000000  0 11G12G04G25G29G13G31G05G30G02G23G10
 126387238.905 7  98483556.61046  24050691.280    24050688.160          47.750
        39.600
 114809625.476 8  89462062.77847  21847529.400    21847525.540          51.000
        44.850
 118428455.860 8  92281938.08947  22536181.140    22536180.000          50.700
        44.650
 120089519.068 8  93576253.50547  22852267.640    22852264.280          49.900
        43.300
 115695619.685 8  90152419.83247  22016141.280    22016136.980          50.350
        42.600
 122893431.056 8  95761113.39747  23385836.280    23385832.760          49.200
        42.800
 126830312.391 8  98828818.14846  24135002.100    24134999.140          48.050
        39.250
 116928542.315 8  91113146.70947  22250757.780    22250754.600          50.100
        43.100
 109843603.540 8  85592418.97947  20902525.780    20902519.460          50.950
        47.650
 116149621.238 8  90506177.39847  22102535.220    22102527.940          51.150
        44.200
 110445659.792 8  86061567.64847  21017099.520    21017095.180          51.000
        46.950
 11  9  3  0 30 45.0000000  0 11G12G04G25G29G13G31G05G30G02G23G10
 126439639.520 7  98524388.24446  24060662.680    24060659.520          46.250
        40.700
 114850913.168 8  89494235.01247  21855386.220    21855382.360          50.150
        45.500
 118457489.866 8  92304561.96347  22541706.080    22541705.100          50.150
        44.950
 120046762.215 8  93542936.47747  22844131.280    22844128.000          48.900
        44.500
 115671624.733 8  90133722.54947  22011575.120    22011570.780          49.700
        43.250
 122921798.531 8  95783217.87047  23391234.660    23391231.040          48.400
        43.750
 126773504.128 7  98784551.98846  24124191.860    24124188.860          47.050
        40.350
 116952971.453 8  91132182.37447  22255406.540    22255403.360          49.300
        44.100
 109829980.953 8  85581803.96748  20899933.480    20899927.180          50.400
        48.450
 116155213.302 8  90510534.84847  22103599.340    22103592.220          50.400
        45.000
 110428518.135 8  86048210.51647  21013837.560    21013833.120          50.300
        47.450
 11  9  3  0 31  0.0000000  0 11G12G04G25G29G13G31G05G30G02G23G10
 126492105.815 7  98565271.00146  24070646.660    24070643.640          47.050
        39.900
 114892307.201 8  89526490.10647  21863263.200    21863259.400          50.150
        45.200
 118486662.643 8  92327294.00647  22547257.480    22547256.520          50.250
        45.050
 120004103.230 8  93509695.70347  22836013.480    22836010.260          48.900
        43.400
 115647785.698 8  90115146.64547  22007038.640    22007034.320          50.000
        43.700
 122950297.437 8  95805424.79147  23396658.020    23396654.340          48.800
        43.300
 126716741.875 7  98740321.68646  24113390.360    24113387.400          47.500
        40.000
 116977559.375 8  91151341.77647  22260085.540    22260082.340          49.550
        43.800
 109816499.013 8  85571298.55248  20897367.980    20897361.680          50.600
        48.250
 116160965.443 8  90515017.03847  22104693.900    22104686.940          50.550
        44.650
 110411536.080 8  86034977.76547  21010605.940    21010601.480          50.550
        47.400
 11  9  3  0 31 15.0000000  0 11G12G04G25G29G13G31G05G30G02G23G10
 126544635.614 7  98606203.29246  24080642.820    24080640.160          47.400
        39.700
 114933805.446 8  89558826.44647  21871159.940    21871156.300          50.150
        44.650
 118515971.965 8  92350132.42047  22552834.840    22552833.940          50.450
        45.200
 119961540.632 8  93476530.08847  22827914.040    22827910.860          49.250
        43.750
 115624100.783 8  90096690.88647  22002531.500    22002527.140          50.100
        43.550
 122978925.520 8  95827732.34947  23402105.900    23402102.240          49.200
        43.150
 126660024.107 7  98696126.05346  24102597.260    24102594.320          46.900
        40.400
 117002303.884 8  91170623.19547  22264794.320    22264791.060          49.750
        43.400
 109803156.015 8  85560901.39348  20894828.940    20894822.600          50.700
        48.000
 116166875.669 8  90519622.40447  22105818.460    22105811.680          50.600
        44.650
 110394711.905 8  86021868.02547  21007404.340    21007399.880          50.600
        47.150
 11  9  3  0 31 30.0000000  0 11G12G04G25G29G13G31G05G30G02G23G10
 126597229.476 7  98647185.49146  24090651.160    24090648.580          47.250
        40.150
 114975409.015 8  89591244.86747  21879076.740    21879073.040          50.400
        44.650
 118545418.966 8  92373078.13147  22558438.420    22558437.580          50.450
        45.050
 119919075.915 8  93443440.68047  22819833.240    22819830.140          49.450
        43.800
 115600571.477 8  90078356.43747  21998054.020    21998049.660          50.250
        43.250
 123007683.920 8  95850141.43047  23407578.600    23407574.860          49.000
        43.000
 126603352.317 7  98651966.25346  24091812.860    24091810.020          47.400
        40.400
 117027206.144 8  91190027.55147  22269533.080    22269529.840          49.850
        43.550
 109789953.367 8  85550613.63148  20892316.580    20892310.200          50.700
        48.000
 116172945.290 8  90524352.00247  22106973.380    22106966.740          50.700
        44.550
 110378046.964 8  86008882.35847  21004233.060    21004228.580          50.700
        47.200
 11  9  3  0 31 45.0000000  0 11G12G04G25G29G13G31G05G30G02G23G10
 126649887.146 7  98688217.41546  24100671.620    24100668.960          47.100
        39.600
 115017117.409 8  89623744.90847  21887013.540    21887009.860          50.450
        44.950
 118575003.331 8  92396130.88347  22564068.080    22564067.180          50.200
        45.000
 119876709.275 8  93410427.71147  22811771.160    22811768.060          49.100
        44.250
 115577198.275 8  90060143.61447  21993606.200    21993601.820          50.100
        43.450
 123036572.187 8  95872651.70147  23413075.920    23413072.180          48.850
        43.150
 126546726.956 7  98607842.61446  24081037.340    24081034.440          47.800
        39.450
 117052265.798 8  91209554.54247  22274301.740    22274298.620          49.650
        43.600
 109776891.198 8  85540435.34148  20889830.900    20889824.540          50.600
        48.100
 116179174.228 8  90529205.74447  22108158.640    22108152.100          50.550
        44.350
 110361541.404 8  85996020.88147  21001092.140    21001087.660          50.600
        47.150
 11  9  3  0 32  0.0000000  0 11G12G04G25G29G13G31G05G30G02G23G10
 126702605.142 7  98729296.32646  24110703.560    24110700.640          46.900
        39.850
 115058927.341 8  89656324.05647  21894969.720    21894966.020          50.550
        45.250
 118604721.752 8  92419288.11247  22569723.300    22569722.320          50.250
        44.650
 119834438.083 8  93377489.16347  22803727.180    22803724.160          49.150
        44.200
 115553978.381 8  90042050.24547  21989187.540    21989183.200          49.950
        43.800
 123065587.014 8  95895260.58647  23418597.380    23418593.400          49.050
        43.200
 126490145.208 7  98563752.97146  24070270.140    24070267.100          47.350
        40.150
 117077479.592 8  91229201.67347  22279099.740    22279096.660          49.450
        43.850
 109763966.551 8  85530364.19648  20887371.380    20887365.080          50.500
        48.300
 116185559.346 8  90534181.19647  22109373.620    22109367.100          50.350
        44.250
 110345192.298 8  85983281.31847  20997981.040    20997976.600          50.450
        47.200
 11  9  3  0 32 15.0000000  0 11G12G04G25G29G13G31G05G30G02G23G10
 126755388.129 7  98770425.90646  24120747.920    24120744.680          47.400
        39.650
 115100843.267 8  89688985.79447  21902946.120    21902942.380          50.750
        44.700
 118634578.801 8  92442553.36247  22575404.880    22575403.920          50.100
        45.050
 119792267.445 8  93344628.96347  22795702.340    22795699.440          49.350
        44.100
 115530916.537 8  90024080.06747  21984798.940    21984794.700          50.050
        44.150
 123094733.196 8  95917971.80847  23424143.960    23424139.700          49.200
        42.950
 126433612.280 7  98519701.38646  24059512.200    24059509.180          47.200
        40.250
 117102852.162 8  91248972.49447  22283927.980    22283924.880          49.850
        43.550
 109751184.479 8  85520404.14948  20884939.020    20884932.720          50.700
        48.300
 116192105.362 8  90539282.00247  22110619.220    22110612.540          50.400
        44.500
 110329004.668 8  85970667.56247  20994900.660    20994896.260          50.550
        47.350
 11  9  3  0 32 30.0000000  0 11G12G04G25G29G13G31G05G30G02G23G10
 126808230.409 7  98811601.70446  24130803.560    24130800.160          47.250
        39.350
 115142859.906 8  89721726.04047  21910941.700    21910937.920          50.750
        45.200
 118664568.918 8  92465922.27647  22581111.740    22581110.800          50.450
        44.800
 119750192.255 8  93311843.10447  22787695.640    22787692.760          49.450
        44.400
 115508008.034 8  90006229.29647  21980439.580    21980435.340          50.250
        43.800
 123124005.044 8  95940780.99547  23429714.420    23429709.980          49.350
        42.600
 126377123.043 7  98475683.83546  24048762.580    24048759.720          47.300
        40.650
 117128377.819 8  91268862.61647  22288785.400    22288782.200          49.650
        43.700
 109738539.668 8  85510551.05248  20882532.800    20882526.480          50.700
        48.350
 116198807.096 8  90544504.16347  22111894.420    22111887.680          50.450
        44.300
 110312973.294 8  85958175.59647  20991850.000    20991845.620          50.550
        47.350
 11  9  3  0 32 45.0000000  0 11G12G04G25G29G13G31G05G30G02G23G10
 126861134.164 7  98852825.34446  24140870.900    24140867.440          47.400
        39.750
 115184979.386 8  89754546.41647  21918956.800    21918953.100          50.600
        44.950
 118694694.397 8  92489396.67947  22586844.440    22586843.440          50.500
        44.650
 119708215.376 8  93279133.85447  22779707.680    22779704.760          49.450
        44.050
 115485255.636 8  89988500.19647  21976109.920    21976105.700          50.250
        43.900
 123153404.952 8  95963689.96847  23435309.200    23435304.720          49.300
        42.000
 126320680.273 7  98431702.52346  24038021.800    24038019.020          47.400
        40.850
 117154059.069 8  91288873.97047  22293672.380    22293669.240          49.800
        43.450
 109726034.852 8  85500807.04548  20880153.220    20880146.880          50.700
        48.000
 116205666.832 8  90549849.40247  22113199.740    22113193.040          50.550
        44.100
 110297100.941 8  85945807.55547  20988829.560    20988825.240          50.600
        47.050
 11  9  3  0 33  0.0000000  0 11G12G04G25G29G13G31G05G30G02G23G10
 126914102.752 7  98894099.53346  24150950.600    24150947.160          47.200
        39.850
 115227204.965 8  89787449.46047  21926992.040    21926988.360          50.450
        44.900
 118724958.656 8  92512979.21647  22592603.600    22592602.600          50.400
        44.850
 119666340.833 8  93246504.33247  22771739.160    22771736.220          49.200
        44.050
 115462663.064 8  89970895.62747  21971810.700    21971806.380          50.200
        43.800
 123182936.299 8  95986701.34147  23440928.840    23440923.940          48.850
        42.400
 126264288.127 7  98387760.62746  24027290.740    24027287.880          47.550
        41.250
 117179899.153 8  91309009.06847  22298589.640    22298586.520          49.750
        43.450
 109713673.852 8  85491175.09848  20877801.040    20877794.640          50.700
        48.150
 116212688.327 8  90555320.71147  22114535.860    22114529.340          50.450
        44.350
 110281391.309 8  85933566.30447  20985840.100    20985835.780          50.400
        47.400
 11  9  3  0 33 15.0000000  0 11G12G04G25G29G13G31G05G30G02G23G10
 126967129.917 7  98935419.36146  24161041.320    24161038.120          47.350
        40.350
 115269530.518 8  89820430.41747  21935046.320    21935042.680          50.650
        44.950
 118755355.416 8  92536664.98547  22598387.940    22598386.940          50.650
        44.600
 119624563.112 8  93213950.28447  22763789.100    22763786.160          49.250
        44.350
 115440224.572 8  89953411.14147  21967540.800    21967536.360          50.350
        44.000
 123212592.908 8  96009810.33847  23446572.300    23446567.280          49.000
        42.350
 126207941.109 8  98343853.89846  24016568.240    24016565.360          48.100
        39.800
 117205891.941 8  91329263.18247  22303535.940    22303532.800          50.050
        43.400
 109701450.745 8  85481650.60048  20875475.080    20875468.640          50.900
        48.150
 116219865.476 8  90560913.31347  22115901.580    22115895.040          50.600
        44.150
 110265838.585 8  85921447.33147  20982880.460    20982876.200          50.700
        47.300
 11  9  3  0 33 30.0000000  0 11G12G04G25G29G13G31G05G30G02G23G10
 127020219.010 7  98976787.46346  24171143.860    24171140.640          47.600
        39.850
 115311959.601 8  89853492.05447  21943120.340    21943116.660          50.700
        44.800
 118785888.225 8  92560456.78247  22604198.160    22604197.080          50.350
        44.950
 119582886.185 8  93181474.79747  22755858.200    22755855.340          49.250
        43.900
 115417944.015 8  89936049.68947  21963300.960    21963296.440          50.450
        43.350
 123242378.247 8  96033019.63147  23452240.380    23452235.540          49.250
        42.500
 126151642.800 7  98299985.11346  24005855.000    24005852.060          47.400
        41.600
 117232041.002 8  91349639.09847  22308511.940    22308508.800          49.750
        43.450
 109689369.426 8  85472236.61447  20873176.100    20873169.640          50.900
        47.900
 116227201.978 8  90566630.04747  22117297.700    22117291.060          50.700
        44.250
 110250446.578 8  85909453.57647  20979951.400    20979947.180          50.550
        47.350
 11  9  3  0 33 45.0000000  0 11G12G04G25G29G13G31G05G30G02G23G10
 127073368.315 8  99018202.45346  24181257.840    24181254.620          48.050
        38.000
 115354490.642 8  89886633.14147  21951213.820    21951209.940          51.250
        44.400
 118816555.643 8  92584353.47947  22610034.000    22610032.900          50.750
        44.550
 119541309.170 8  93149077.18647  22747946.360    22747943.420          50.000
        43.950
 115395820.479 8  89918810.60247  21959091.000    21959086.400          50.850
        43.000
 123272290.797 8  96056328.03447  23457932.620    23457928.040          49.600
        42.600
 126095392.501 8  98256153.75646  23995150.820    23995148.120          48.400
        39.650
 117258344.804 8  91370135.56747  22313517.380    22313514.160          50.550
        42.900
 109677428.756 8  85462932.19847  20870903.880    20870897.440          51.300
        47.900
 116234696.799 8  90572470.16547  22118724.000    22118717.260          51.350
        43.750
 110235214.219 8  85897584.24747  20977052.760    20977048.600          50.950
        47.050
 11  9  3  0 34  0.0000000  0 11G12G04G25G29G13G31G05G30G02G23G10
 127126576.269 7  99059663.12546  24191382.980    24191379.720          47.700
        38.850
 115397121.988 8  89919852.36847  21959326.360    21959322.400          51.000
        44.900
 118847355.965 8  92608353.73347  22615895.140    22615894.040          50.750
        44.750
 119499830.933 8  93116756.54047  22740053.340    22740050.260          49.800
        43.600
 115373852.557 8  89901692.72047  21954910.640    21954906.020          50.650
        43.450
 123302328.874 8  96079734.26447  23463648.700    23463644.140          49.300
        42.750
 126039189.135 7  98212358.98846  23984455.600    23984453.060          47.950
        40.800
 117284801.656 8  91390751.27747  22318552.000    22318548.700          50.250
        43.250
 109665627.549 8  85453736.44448  20868658.220    20868651.780          51.100
        48.500
 116242348.278 8  90578432.34947  22120180.180    22120173.240          51.100
        44.350
 110220140.258 8  85885838.33347  20974184.260    20974180.120          50.850
        47.100
 11  9  3  0 34 15.0000000  0 11G12G04G25G29G13G31G05G30G02G23G10
 127179845.342 7  99101171.43846  24201519.700    24201516.580          47.150
        39.750
 115439856.257 8  89953151.79747  21967458.420    21967454.480          50.600
        44.550
 118878291.847 8  92632459.62747  22621782.100    22621780.940          50.650
        44.800
 119458454.612 8  93084515.28447  22732179.720    22732176.460          49.600
        44.050
 115352043.540 8  89884698.67347  21950760.500    21950755.820          50.400
        43.700
 123332495.108 8  96103240.32747  23469389.180    23469384.640          49.150
        42.750
 125983035.744 8  98168603.15146  23973769.920    23973767.380          48.250
        41.250
 117311414.251 8  91411488.31847  22323616.220    22323612.840          49.800
        43.500
 109653968.845 8  85444651.75148  20866439.700    20866433.180          50.950
        48.300
 116250159.158 8  90584518.73847  22121666.640    22121659.560          51.000
        44.250
 110205227.678 8  85874218.15047  20971346.500    20971342.380          50.750
        47.450
 11  9  3  0 34 30.0000000  0 11G12G04G25G29G13G31G05G30G02G23G10
 127233173.983 7  99142726.12146  24211667.800    24211664.740          47.550
        38.750
 115482691.872 8  89986530.14947  21975609.720    21975605.760          50.450
        44.600
 118909361.871 8  92656670.00247  22627694.560    22627693.360          50.600
        44.550
 119417179.443 8  93052352.86647  22724325.280    22724322.040          49.350
        44.350
 115330392.723 8  89867827.86947  21946640.460    21946635.820          50.300
        43.950
 123362788.149 8  96126845.22247  23475153.760    23475149.540          48.800
        43.000
 125926931.677 7  98124885.70646  23963093.640    23963091.080          47.850
        41.100
 117338181.260 8  91432345.71147  22328709.800    22328706.440          49.850
        43.400
 109642451.579 8  85435677.27348  20864248.040    20864241.540          50.850
        48.150
 116258128.432 8  90590728.56047  22123183.220    22123176.100          50.950
        44.300
 110190475.512 8  85862722.94947  20968539.260    20968535.160          50.700
        47.600
 11  9  3  0 34 45.0000000  0 11G12G04G25G29G13G31G05G30G02G23G10
 127286559.610 7  99184325.26646  24221826.860    24221823.720          47.600
        40.300
 115525626.424 8  90019985.63147  21983779.800    21983775.980          50.200
        44.550
 118940563.436 8  92680982.88847  22633632.020    22633630.860          50.250
        44.900
 119376003.337 8  93020267.66647  22716489.640    22716486.560          49.350
        44.350
 115308897.618 8  89851078.44547  21942550.060    21942545.440          50.200
        43.650
 123393205.432 8  96150546.88647  23480941.860    23480937.900          48.450
        42.850
 125870875.191 7  98081205.36746  23952426.420    23952423.780          47.600
        41.000
 117365100.077 8  91453321.40447  22333832.280    22333828.900          49.800
        43.550
 109631073.434 8  85426811.19948  20862082.820    20862076.340          50.600
        48.350
 116266253.613 8  90597059.87047  22124729.420    22124722.360          50.650
        44.950
 110175881.561 8  85851351.05747  20965762.160    20965758.060          50.600
        47.550
 11  9  3  0 35  0.0000000  0 11G12G04G25G29G13G31G05G30G02G23G10
 127340005.449 7  99225971.32946  24231997.300    24231994.300          47.200
        39.600
 115568663.054 8  90053520.63147  21991969.300    21991965.600          50.100
        44.800
 118971899.751 8  92705400.78847  22639595.140    22639594.000          50.400
        44.800
 119334929.988 8  92988262.48947  22708673.700    22708670.480          49.700
        44.350
 115287562.163 8  89834453.41847  21938490.040    21938485.500          50.150
        44.050
 123423750.000 8  96174347.71147  23486754.280    23486750.160          48.750
        42.700
 125814869.829 8  98037564.87046  23941768.980    23941766.220          48.250
        40.750
 117392173.923 8  91474417.88947  22338984.260    22338980.920          49.700
        43.400
 109619838.023 8  85418056.36048  20859944.700    20859938.320          50.600
        48.600
 116274538.027 8  90603515.25747  22126305.820    22126298.800          50.500
        44.600
 110161449.286 8  85840105.13547  20963015.800    20963011.640          50.600
        47.800
 11  9  3  0 35 15.0000000  0 11G12G04G25G29G13G31G05G30G02G23G10
 127393508.544 7  99267662.03246  24242178.580    24242175.740          47.600
        39.100
 115611798.724 8  90087132.82347  22000177.740    22000174.060          50.850
        44.700
 119003367.939 8  92729921.44947  22645583.360    22645582.160          50.900
        44.300
 119293957.207 8  92956335.65547  22700876.860    22700873.520          50.050
        43.950
 115266383.874 8  89817950.85647  21934459.940    21934455.460          50.700
        43.600
 123454419.264 8  96198245.77447  23492590.540    23492586.240          49.150
        42.050
 125758913.079 8  97993962.20746  23931120.880    23931117.900          48.700
        40.400
 117419399.836 8  91495632.87447  22344165.220    22344161.920          50.200
        42.800
 109608742.780 8  85409410.73347  20857833.300    20857826.900          51.050
        47.800
 116282979.250 8  90610092.82047  22127912.080    22127905.100          50.900
        44.000
 110147176.410 8  85828983.44947  20960299.780    20960295.560          50.950
        47.100
 11  9  3  0 35 30.0000000  0 11G12G04G25G29G13G31G05G30G02G23G10
 127447070.275 7  99309398.36846  24252371.020    24252368.280          47.050
        39.100
 115655035.269 8  90120823.64447  22008405.440    22008401.780          50.700
        44.750
 119034969.573 8  92754546.10147  22651597.000    22651595.720          50.750
        44.250
 119253087.188 8  92924488.94047  22693099.500    22693096.120          49.750
        43.800
 115245364.846 8  89801572.36947  21930460.160    21930455.720          50.350
        43.650
 123485214.758 8  96222242.20147  23498450.780    23498446.600          48.950
        42.000
 125703007.135 8  97950399.13846  23920482.360    23920479.340          48.300
        40.850
 117446779.522 8  91516967.68647  22349375.440    22349372.140          49.850
        43.550
 109597789.728 8  85400875.87348  20855748.980    20855742.580          50.950
        48.250
 116291578.890 8  90616793.83647  22129548.480    22129541.680          50.700
        44.000
 110133064.817 8  85817987.43647  20957614.440    20957610.140          50.750
        47.100
 11  9  3  0 35 45.0000000  0 11G12G04G25G29G13G31G05G30G02G23G10
 127500687.407 7  99351177.91546  24262573.960    24262571.440          46.850
        40.550
 115698369.277 8  90154590.41547  22016651.740    22016647.920          50.700
        45.150
 119066701.424 8  92779272.19747  22657635.440    22657634.080          50.700
        44.600
 119212317.293 8  92892720.22647  22685341.180    22685337.780          50.000
        44.200
 115224502.436 8  89785315.91747  21926490.180    21926485.780          50.350
        43.850
 123516133.184 8  96246334.43646  23504334.560    23504330.040          49.200
        41.150
 125647149.374 8  97906873.63946  23909852.980    23909849.940          48.200
        40.850
 117474309.683 8  91538419.74347  22354614.240    22354611.000          49.750
        43.250
 109586976.048 8  85392449.65548  20853691.220    20853684.800          51.000
        48.100
 116300333.887 8  90623615.91547  22131214.460    22131207.780          50.800
        44.400
 110119111.518 8  85807114.76947  20954959.220    20954954.860          50.850
        47.150
 11  9  3  0 36  0.0000000  0 11G12G04G25G29G13G31G05G30G02G23G10
 127554363.987 7  99393003.80446  24272788.220    24272785.760          46.700
        39.850
 115741804.957 8  90188436.41247  22024917.320    22024913.380          50.600
        44.700
 119098567.762 8  92804103.07547  22663699.420    22663698.060          50.600
        44.500
 119171652.320 8  92861033.26547  22677602.940    22677599.500          49.900
        43.800
 115203801.312 8  89769185.17547  21922550.860    21922546.500          50.250
        43.450
 123547178.954 8  96270525.90247  23510242.520    23510237.500          48.900
        42.300
 125591344.744 7  97863389.58146  23899233.580    23899230.740          47.750
        40.600
 117501994.592 8  91559992.36747  22359882.460    22359879.340          49.850
        43.100
 109576306.345 8  85384135.58048  20851660.860    20851654.380          50.950
        48.100
 116309248.605 8  90630562.45147  22132910.840    22132904.160          50.700
        43.900
 110105321.054 8  85796368.95547  20952334.980    20952330.540          50.800
        47.300
 11  9  3  0 36 15.0000000  0 11G12G04G25G29G13G31G05G30G02G23G10
 127608097.718 7  99434874.16046  24283013.340    24283010.980          46.300
        40.150
 115785340.337 8  90222360.09347  22033201.820    22033197.880          50.300
        44.300
 119130566.464 8  92829037.10347  22669788.600    22669787.320          50.600
        44.450
 119131090.520 8  92829426.67847  22669884.260    22669880.860          49.650
        44.150
 115183259.646 8  89753178.69647  21918641.860    21918637.620          50.050
        43.550
 123578349.898 8  96294814.90747  23516174.220    23516169.160          48.800
        42.200
 125535591.674 7  97819945.68946  23888624.000    23888621.340          47.750
        40.900
 117529832.215 8  91581684.01947  22365179.820    22365176.720          49.850
        42.850
 109565778.893 8  85375932.33648  20849657.580    20849651.080          50.850
        48.350
 116318321.256 8  90637632.03547  22134637.300    22134630.600          50.800
        44.100
 110091691.841 8  85785748.79547  20949741.440    20949736.880          50.750
        47.250
 11  9  3  0 36 30.0000000  0 11G12G04G25G29G13G31G05G30G02G23G10
 127661886.555 7  99476787.47146  24293248.980    24293246.800          46.700
        39.200
 115828972.965 8  90256359.56047  22041504.760    22041500.940          50.250
        44.400
 119162695.244 8  92854072.53047  22675902.560    22675901.280          50.600
        44.350
 119090630.462 8  92797899.36447  22662184.860    22662181.600          49.600
        44.100
 115162875.690 8  89737295.10047  21914762.840    21914758.640          50.150
        43.250
 123609643.558 8  96319199.47047  23522129.280    23522124.440          48.950
        42.000
 125479888.595 7  97776540.75246  23878023.960    23878021.360          47.600
        41.650
 117557820.087 8  91603492.74247  22370505.760    22370502.620          49.800
        42.850
 109555391.727 8  85367838.45848  20847680.980    20847674.460          50.950
        48.000
 116327549.807 8  90644823.12647  22136393.500    22136386.600          50.900
        43.800
 110078221.955 8  85775252.78847  20947178.240    20947173.580          50.800
        47.050
 11  9  3  0 36 45.0000000  0 11G12G04G25G29G13G31G05G30G02G23G10
 127715731.583 7  99518744.60446  24303495.380    24303493.340          46.650
        39.400
 115872704.272 8  90290435.89947  22049826.420    22049822.700          50.250
        44.400
 119194955.547 8  92879210.43147  22682041.480    22682040.220          50.650
        44.450
 119050274.028 8  92766452.84547  22654505.180    22654501.980          49.500
        44.250
 115142651.344 8  89721535.83747  21910914.280    21910910.000          50.250
        43.500
 123641061.573 8  96343681.00447  23528107.900    23528103.400          48.700
        42.650
 125424237.278 7  97733176.12446  23867433.760    23867431.160          47.400
        41.000
 117585959.877 8  91625419.80647  22375860.580    22375857.360          49.750
        43.050
 109545146.683 8  85359855.31348  20845731.460    20845724.840          50.950
        48.050
 116336935.776 8  90652136.87647  22138179.640    22138172.560          50.800
        43.700
 110064913.279 8  85764882.40547  20944645.620    20944640.980          50.650
        47.000
 11  9  3  0 37  0.0000000  0 11G12G04G25G29G13G31G05G30G02G23G10
 127769633.362 7  99560745.91546  24313752.540    24313750.480          46.650
        39.000
 115916534.786 8  90324589.54247  22058167.020    22058163.400          50.200
        44.400
 119227347.866 8  92904451.18947  22688205.560    22688204.400          50.400
        44.650
 119010022.096 8  92735087.71847  22646845.460    22646842.360          49.350
        44.250
 115122587.537 8  89705901.71447  21907096.300    21907091.940          50.250
        43.350
 123672604.456 8  96368259.85947  23534110.140    23534105.920          48.300
        42.600
 125368638.905 8  97689852.75846  23856853.680    23856850.960          48.100
        40.200
 117614251.995 8  91647465.58247  22381244.420    22381241.220          49.600
        42.850
 109535044.552 8  85351983.45848  20843809.100    20843802.480          50.800
        48.050
 116346479.838 8  90659573.78147  22139995.840    22139988.620          50.750
        44.000
 110051766.593 8  85754638.23147  20942143.800    20942139.180          50.600
        46.950
 11  9  3  0 37 15.0000000  0 11G12G04G25G29G13G31G05G30G02G23G10
 127823588.033 7  99602788.47446  24324019.860    24324017.660          47.000
        39.350
 115960460.592 8  90358817.43147  22066525.780    22066522.280          50.400
        44.800
 119259868.278 8  92929791.78047  22694393.960    22694392.840          50.300
        44.700
 118969871.458 8  92703801.53947  22639205.020    22639201.920          49.350
        44.200
 115102681.084 8  89690390.19847  21903308.300    21903303.720          50.350
        43.350
 123704268.042 8  96392932.74647  23540135.440    23540131.440          48.650
        42.450
 125313090.098 8  97646567.99846  23846283.120    23846280.280          48.050
        40.550
 117642692.517 8  91669626.99747  22386656.480    22386653.340          49.850
        42.850
 109525082.080 8  85344220.49648  20841913.300    20841906.760          50.750
        48.300
 116356178.300 8  90667131.02647  22141841.420    22141834.220          50.800
        44.300
 110038778.369 8  85744517.55547  20939672.160    20939667.480          50.550
        47.100
 11  9  3  0 37 30.0000000  0 11G12G04G25G29G13G31G05G30G02G23G10
 127877598.646 7  99644874.65246  24334297.820    24334295.500          45.550
        39.950
 116004484.867 8  90393122.02447  22074903.340    22074899.920          49.550
        45.700
 119292519.986 8  92955234.69047  22700607.340    22700606.240          49.250
        45.550
 118929826.151 8  92672597.43047  22631584.600    22631581.600          48.550
        45.800
 115082935.341 8  89675003.90947  21899550.900    21899546.160          49.600
        44.450
 123736055.764 7  96417702.36347  23546184.460    23546180.560          47.650
        42.750
 125257594.640 7  97603324.84247  23835722.660    23835719.820          46.400
        42.650
 117671284.669 8  91691906.56747  22392097.420    22392094.240          48.400
        44.200
 109515262.665 8  85336569.00448  20840044.700    20840038.240          49.950
        49.300
 116366034.645 8  90674811.27847  22143717.040    22143709.920          49.900
        45.650
 110025952.227 8  85734523.15947  20937231.340    20937226.640          49.700
        47.900
 11  9  3  0 37 45.0000000  0 11G12G04G25G29G13G31G05G30G02G23G10
 127931662.183 7  99687002.06546  24344585.900    24344583.380          46.550
        38.700
 116048604.771 8  90427501.06547  22083299.140    22083295.740          49.900
        44.900
 119325300.217 8  92980777.73147  22706845.200    22706844.180          49.850
        44.800
 118889883.795 8  92641473.55047  22623983.800    22623980.800          49.050
        45.450
 115063348.106 8  89659741.11247  21895823.700    21895818.800          50.150
        43.900
 123767964.884 7  96442566.57747  23552256.700    23552252.800          47.900
        42.100
 125202150.382 7  97560121.58746  23825171.900    23825169.200          47.100
        41.500
 117700025.708 8  91714302.14547  22397566.700    22397563.560          48.900
        43.450
 109505583.880 8  85329027.06848  20838202.920    20838196.400          50.400
        48.900
 116376046.273 8  90682612.56347  22145622.220    22145615.280          50.350
        45.100
 110013285.808 8  85724653.21547  20934820.920    20934816.260          50.000
        47.550
 11  9  3  0 38  0.0000000  0 11G12G04G25G29G13G31G05G30G02G23G10
 127985782.388 7  99729173.61446  24354884.760    24354882.200          46.750
        39.650
 116092824.247 8  90461957.76347  22091713.860    22091710.420          49.950
        44.550
 119358212.774 8  93006423.86147  22713108.220    22713107.180          50.150
        44.600
 118850048.701 8  92610433.20647  22616403.440    22616400.320          49.450
        44.400
 115043923.653 8  89644605.14447  21892127.520    21892122.380          50.550
        43.550
 123799999.152 8  96467528.28347  23558352.720    23558348.700          48.150
        42.150
 125146761.683 7  97516961.59446  23814631.720    23814629.000          47.200
        41.550
 117728919.525 8  91736816.77947  22403065.000    22403061.820          49.200
        42.950
 109496050.071 8  85321598.17348  20836388.720    20836382.200          50.650
        48.300
 116386217.108 8  90690537.89147  22147557.720    22147550.860          50.650
        44.750
 110000783.385 8  85714911.08647  20932441.720    20932437.180          50.250
        47.400
 11  9  3  0 38 15.0000000  0 11G12G04G25G29G13G31G05G30G02G23G10
 128039955.156 7  99771386.14046  24365193.560    24365190.960          46.900
        38.950
 116137138.960 8  90496488.67147  22100146.700    22100143.180          50.050
        44.100
 119391253.531 8  93032169.87947  22719395.660    22719394.600          50.250
        44.800
 118810317.327 8  92579473.71847  22608842.760    22608839.580          49.350
        44.250
 115024658.154 8  89629593.06947  21888461.540    21888456.220          50.550
        43.750
 123832154.322 7  96492584.16646  23564471.560    23564467.600          47.650
        41.750
 125091425.174 7  97473842.25746  23804101.520    23804098.640          47.650
        41.000
 117757961.878 8  91759447.14147  22408591.540    22408588.480          49.300
        43.250
 109486657.289 8  85314279.16148  20834601.320    20834594.760          50.700
        48.600
 116396543.271 8  90698584.25247  22149522.780    22149515.920          50.900
        45.100
 109988440.993 8  85705293.65347  20930092.980    20930088.580          50.350
        47.400
 11  9  3  0 38 30.0000000  0 11G12G04G25G29G13G31G05G30G02G23G10
 128094180.971 7  99813640.04346  24375512.460    24375509.680          46.900
        38.950
 116181549.685 8  90531094.43147  22108597.800    22108594.240          50.150
        44.350
 119424422.937 8  93058016.16547  22725707.560    22725706.540          50.150
        44.400
 118770690.623 8  92548595.76547  22601302.000    22601298.820          49.300
        44.550
 115005552.981 8  89614705.94247  21884826.000    21884820.680          50.500
        43.350
 123864430.942 7  96517734.74846  23570613.500    23570609.500          47.750
        41.750
 125036141.665 7  97430764.22546  23793581.420    23793578.400          47.750
        40.950
 117787153.303 8  91782193.69847  22414146.440    22414143.420          49.150
        42.750
 109477406.343 8  85307070.62148  20832840.900    20832834.300          50.800
        48.650
 116407025.282 8  90706752.04947  22151517.520    22151510.560          50.800
        44.500
 109976259.464 8  85695801.57247  20927774.880    20927770.540          50.550
        47.250
 11  9  3  0 38 45.0000000  0 11G12G04G25G29G13G31G05G30G02G23G10
 128148461.154 7  99855936.28846  24385841.620    24385838.940          46.350
        39.650
 116226057.818 8  90565776.10347  22117067.440    22117063.860          50.150
        44.200
 119457722.586 8  93083963.91947  22732044.200    22732043.260          50.150
        44.700
 118731170.936 8  92517801.22247  22593781.600    22593778.440          49.250
        44.450
 114986609.913 8  89599945.12847  21881221.260    21881215.860          50.600
        43.800
 123896830.684 8  96542981.30947  23576778.880    23576774.900          48.000
        42.250
 124980913.260 7  97387729.11746  23783071.820    23783068.760          47.850
        41.050
 117816495.335 8  91805057.59447  22419729.920    22419727.100          48.750
        42.900
 109468299.283 8  85299974.20648  20831107.840    20831101.240          50.850
        48.550
 116417665.087 8  90715042.80247  22153542.240    22153535.240          50.850
        44.600
 109964240.725 8  85686436.31947  20925487.800    20925483.440          50.550
        47.700
 11  9  3  0 39  0.0000000  0 11G12G04G25G29G13G31G05G30G02G23G10
 128202795.859 7  99898274.99046  24396181.120    24396178.540          46.400
        39.550
 116270663.344 8  90600533.60547  22125555.600    22125551.980          50.100
        44.450
 119491152.618 8  93110013.27247  22738405.660    22738404.780          50.150
        44.450
 118691758.921 8  92487090.61547  22586281.680    22586278.660          49.200
        45.000
 114967829.593 8  89585311.13747  21877647.440    21877642.080          50.400
        43.700
 123929353.592 8  96568323.77647  23582967.760    23582963.960          48.150
        42.500
 124925740.869 7  97344737.64347  23772572.800    23772569.900          47.800
        42.200
 117845988.136 8  91828038.97547  22425342.100    22425339.420          49.250
        42.700
 109459336.786 8  85292990.45248  20829402.360    20829395.700          50.750
        48.800
 116428462.968 8  90723456.75047  22155597.000    22155589.980          50.700
        44.850
 109952385.373 8  85677198.38247  20923231.800    20923227.400          50.450
        47.550
 11  9  3  0 39 15.0000000  0 11G12G04G25G29G13G31G05G30G02G23G10
 128257180.421 7  99940652.53846  24406530.140    24406527.540          46.550
        38.950
 116315362.166 8  90635363.88847  22134061.500    22134057.920          50.150
        44.550
 119524708.494 8  93136160.69647  22744791.080    22744790.320          50.250
        44.150
 118652450.612 8  92456460.81947  22578801.520    22578798.540          49.550
        44.650
 114949207.921 8  89570800.77847  21874103.780    21874098.520          50.350
        43.800
 123961994.974 8  96593758.53446  23589179.260    23589175.460          48.450
        41.600
 124870620.479 7  97301786.69346  23762083.680    23762080.900          47.800
        41.300
 117875627.167 8  91851134.29547  22430982.140    22430979.660          49.150
        43.250
 109450514.566 8  85286116.02048  20827723.540    20827716.900          50.800
        48.600
 116439414.612 8  90731990.49447  22157680.960    22157673.920          50.700
        44.600
 109940689.190 8  85668084.45547  20921006.080    20921001.700          50.650
        47.700
 11  9  3  0 39 30.0000000  0 11G12G04G25G29G13G31G05G30G02G23G10
 128311618.563 7  99983071.82446  24416889.340    24416886.740          46.350
        39.650
 116360157.649 8  90670269.53147  22142585.800    22142582.260          50.200
        44.900
 119558394.005 8  93162409.14347  22751201.260    22751200.580          50.200
        44.300
 118613250.202 8  92425915.06547  22571341.920    22571338.980          49.500
        45.050
 114930749.128 8  89556417.33347  21870591.100    21870585.920          50.400
        43.600
 123994758.709 8  96619288.68447  23595414.080    23595410.060          48.450
        42.200
 124815556.412 7  97258879.64347  23751605.340    23751602.500          47.900
        42.450
 117905416.237 8  91874346.52047  22436650.840    22436648.440          49.050
        43.450
 109441836.603 8  85279353.93248  20826072.140    20826065.560          50.750
        48.650
 116450524.001 8  90740647.15147  22159795.000    22159787.900          50.750
        44.750
 109929156.513 8  85659097.94747  20918811.540    20918807.060          50.700
        47.300
 11  9  3  0 39 45.0000000  0 11G12G04G25G29G13G31G05G30G02G23G10
 128366107.132 7 100025530.43346  24427258.200    24427255.780          46.650
        38.650
 116405046.496 8  90705247.81047  22151127.840    22151124.280          50.150
        44.550
 119592205.904 8  93188756.05147  22757635.480    22757634.700          50.250
        44.300
 118574155.192 8  92395451.45847  22563902.300    22563899.520          49.550
        44.750
 114912450.403 8  89542158.60347  21867108.880    21867103.840          50.400
        43.950
 124027641.896 8  96644911.91846  23601671.620    23601667.400          48.500
        41.750
 124760546.138 8  97216014.51146  23741137.280    23741134.380          48.300
        41.850
 117935352.122 8  91897673.17647  22442347.480    22442345.060          49.350
        43.250
 109433300.224 8  85272702.19448  20824447.700    20824441.140          50.750
        48.300
 116461787.981 8  90749424.25147  22161938.500    22161931.500          50.950
        44.350
 109917784.390 8  85650236.53747  20916647.520    20916643.000          50.700
        47.450
 11  9  3  0 40  0.0000000  0 11G12G04G25G29G13G31G05G30G02G23G10
 128420647.070 7 100068029.03246  24437636.760    24437634.420          46.100
        38.800
 116450029.960 8  90740299.74947  22159687.900    22159684.480          50.100
        44.150
 119626145.409 8  93215202.41847  22764093.980    22764093.220          50.250
        44.500
 118535167.220 8  92365071.23647  22556483.040    22556480.340          49.700
        44.750
 114894313.463 8  89528025.95547  21863657.460    21863652.520          50.500
        43.900
 124060645.676 8  96670629.12547  23607952.060    23607947.720          48.700
        42.050
 124705591.292 8  97173192.56346  23730679.760    23730676.820          48.350
        41.750
 117965435.994 8  91921115.12547  22448072.320    22448069.840          49.150
        43.250
 109424906.726 8  85266161.71448  20822850.460    20822843.960          50.800
        48.300
 116473207.935 8  90758322.90647  22164111.680    22164104.680          50.900
        44.350
 109906574.241 8  85641501.31447  20914514.320    20914509.820          50.750
        47.250
 11  9  3  0 40 15.0000000  0 11G12G04G25G29G13G31G05G30G02G23G10
 128475237.844 7 100110567.22746  24448025.000    24448022.740          45.800
        38.350
 116495107.875 8  90775425.43447  22168265.980    22168262.660          50.150
        44.300
 119660211.933 8  93241747.77847  22770576.680    22770575.880          50.250
        44.550
 118496286.508 8  92334774.59247  22549084.320    22549081.580          49.550
        44.900
 114876338.141 8  89514019.21947  21860236.840    21860231.980          50.250
        44.200
 124093769.287 8  96696439.63647  23614255.300    23614250.940          48.350
        42.550
 124650692.118 8  97130414.00646  23720232.880    23720230.000          48.350
        41.900
 117995667.346 8  91944672.01147  22453825.220    22453822.680          49.400
        42.450
 109416656.262 8  85259732.73248  20821280.460    20821274.040          50.700
        48.350
 116484783.567 8  90767342.84647  22166314.480    22166307.400          50.700
        44.700
 109895526.081 8  85632892.34847  20912412.000    20912407.460          50.650
        47.650
 11  9  3  0 40 30.0000000  0 11G12G04G25G29G13G31G05G30G02G23G10
 128529881.335 7 100153146.55646  24458423.380    24458421.200          46.150
        39.100
 116540281.849 8  90810625.98947  22176862.360    22176858.920          50.400
        44.250
 119694407.295 8  93268393.50947  22777083.940    22777083.040          50.450
        44.300
 118457515.376 8  92304563.34347  22541706.440    22541703.640          49.550
        44.850
 114858526.535 8  89500140.03347  21856847.380    21856842.560          50.350
        43.700
 124127014.601 8  96722345.00347  23620581.760    23620577.400          48.750
        42.400
 124595850.899 8  97087680.61846  23709797.000    23709794.040          48.400
        41.800
 118026047.956 8  91968345.18347  22459606.560    22459603.780          49.550
        42.850
 109408551.064 8  85253416.99548  20819738.100    20819731.760          50.750
        48.350
 116496516.897 8  90776485.68547  22168547.260    22168540.240          50.700
        44.000
 109884641.883 8  85624411.15747  20910340.880    20910336.320          50.750
        47.450
 11  9  3  0 40 45.0000000  0 11G12G04G25G29G13G31G05G30G02G23G10
 128584573.119 7 100195763.46946  24468830.900    24468828.660          46.150
        37.800
 116585547.600 8  90845898.00347  22185476.240    22185472.680          50.550
        43.950
 119728727.322 8  93295136.36847  22783614.880    22783613.920          50.350
        43.950
 118418850.210 8  92274434.63247  22534348.620    22534345.800          49.450
        44.450
 114840875.349 8  89486385.86847  21853488.380    21853483.680          50.350
        43.750
 124160377.434 8  96748341.95646  23626930.680    23626926.440          49.050
        41.250
 124541064.127 8  97044989.66846  23699371.480    23699368.420          48.300
        41.300
 118056573.667 8  91992131.42647  22465415.520    22465412.640          49.350
        42.650
 109400587.173 8  85247211.36848  20818222.600    20818216.340          50.850
        48.250
 116508403.884 8  90785748.22147  22170809.200    22170802.380          50.600
        44.300
 109873917.982 8  85616054.84047  20908300.240    20908295.640          50.750
        47.250
 11  9  3  0 41  0.0000000  0 11G12G04G25G29G13G31G05G30G02G23G10
 128639314.934 7 100238419.38446  24479248.020    24479245.400          46.300
        37.800
 116630906.969 8  90881242.93347  22194107.920    22194104.240          50.550
        44.250
 119763173.921 8  93321977.85647  22790169.840    22790168.880          50.050
        44.100
 118380293.610 8  92244390.55447  22527011.520    22527008.600          49.750
        44.800
 114823386.927 8  89472758.54347  21850160.340    21850155.800          50.300
        44.050
 124193859.751 8  96774432.04447  23633302.380    23633298.380          49.100
        42.300
 124486334.257 8  97002343.03046  23688956.740    23688953.500          48.350
        41.700
 118087246.402 8  92016032.23547  22471252.380    22471249.420          49.550
        42.400
 109392767.031 8  85241117.79648  20816734.460    20816728.260          50.800
        48.450
 116520446.760 8  90795132.29047  22173100.800    22173094.080          50.650
        44.050
 109863356.687 8  85607825.23347  20906290.560    20906285.900          50.750
        47.200
 11  9  3  0 41 15.0000000  0 11G12G04G25G29G13G31G05G30G02G23G10
 128694106.614 7 100281114.13646  24489674.580    24489672.020          46.050
        38.100
 116676359.645 8  90916660.54147  22202757.340    22202753.560          50.300
        44.000
 119797746.784 8  93348917.74347  22796748.780    22796747.880          50.200
        44.050
 118341845.782 8  92214431.22647  22519695.220    22519692.200          49.800
        44.900
 114806061.183 8  89459257.96747  21846863.320    21846858.820          50.300
        43.900
 124227461.023 8  96800614.81047  23639696.680    23639692.540          48.850
        42.300
 124431661.504 8  96959740.91146  23678552.840    23678549.560          48.350
        41.250
 118118065.835 8  92040047.35047  22477117.160    22477114.180          49.300
        42.750
 109385090.363 8  85235136.01348  20815273.660    20815267.460          50.850
        48.600
 116532645.308 8  90804637.64447  22175422.020    22175415.380          50.550
        44.100
 109852958.010 8  85599722.38047  20904311.760    20904307.100          50.650
        47.600
 11  9  3  0 41 30.0000000  0 11G12G04G25G29G13G31G05G30G02G23G10
 128748949.291 7 100323848.65546  24500110.740    24500108.600          46.250
        38.550
 116721906.950 8  90952151.96847  22211424.680    22211420.940          50.000
        44.100
 119832446.979 8  93375956.84647  22803351.960    22803351.180          49.900
        44.150
 118303508.309 8  92184557.88347  22512399.880    22512396.840          49.800
        44.800
 114788899.680 8  89445885.39847  21843597.580    21843593.100          50.350
        44.350
 124261182.607 8  96826891.34346  23646113.780    23646109.440          48.800
        41.300
 124377047.623 8  96917184.67746  23668160.140    23668157.000          48.250
        41.650
 118149033.094 8  92064177.68647  22483010.040    22483007.100          49.000
        42.800
 109377558.848 8  85229267.30548  20813840.500    20813834.240          50.850
        49.000
 116545000.603 8  90814265.11847  22177772.980    22177766.400          50.250
        44.000
 109842723.408 8  85591747.35147  20902364.160    20902359.560          50.650
        47.400
 11  9  3  0 41 45.0000000  0 11G12G04G25G29G13G31G05G30G02G23G10
 128803841.242 7 100366621.60146  24510556.440    24510554.160          46.450
        38.100
 116767547.450 8  90987716.03147  22220109.680    22220106.020          50.050
        43.750
 119867273.068 8  93403094.04247  22809979.060    22809978.420          50.000
        43.900
 118265280.306 8  92154769.81547  22505125.340    22505122.340          49.800
        44.850
 114771901.324 8  89432639.92047  21840362.940    21840358.400          50.550
        44.100
 124295022.933 8  96853260.32647  23652553.300    23652548.860          48.700
        42.050
 124322491.592 8  96874673.51346  23657778.440    23657775.340          48.700
        41.700
 118180146.677 8  92088422.03947  22488930.740    22488927.760          49.550
        42.300
 109370171.243 8  85223510.72948  20812434.720    20812428.460          50.850
        48.400
 116557511.555 8  90824013.90447  22180153.600    22180147.120          50.500
        43.850
 109832651.765 8  85583899.34647  20900447.540    20900443.020          50.700
        47.500
 11  9  3  0 42  0.0000000  0 11G12G04G25G29G13G31G05G30G02G23G10
 128858778.999 7 100409430.22946  24521010.800    24521008.520          46.300
        38.250
 116813277.497 8  91023349.88747  22228811.700    22228808.080          50.000
        43.900
 119902221.519 8  93430326.59347  22816629.500    22816628.860          49.950
        44.100
 118227158.823 8  92125064.76547  22497871.120    22497868.120          50.050
        45.100
 114755063.276 8  89419519.40047  21837158.800    21837154.220          50.600
        44.150
 124328978.610 8  96879719.20146  23659014.880    23659010.620          48.550
        41.100
 124267990.689 8  96832205.29946  23647407.220    23647404.180          48.750
        41.500
 118211403.050 8  92112777.65247  22494878.660    22494875.680          49.250
        42.850
 109362924.518 8  85217863.96548  20811055.740    20811049.500          50.900
        48.300
 116570174.895 8  90833881.41347  22182563.340    22182556.960          50.700
        43.750
 109822739.848 8  85576175.77947  20898561.320    20898556.880          50.700
        47.350
 11  9  3  0 42 15.0000000  0 11G12G04G25G29G13G31G05G30G02G23G10
 128913766.912 7 100452277.91546  24531474.760    24531472.500          46.600
        38.050
 116859101.390 8  91059056.79247  22237531.640    22237528.140          50.100
        43.350
 119937296.892 8  93457658.02547  22823304.100    22823303.460          49.850
        44.100
 118189149.023 8  92095446.69847  22490638.200    22490635.000          49.750
        44.750
 114738390.431 8  89406527.58347  21833986.080    21833981.500          50.550
        44.200
 124363054.262 8  96906271.58946  23665499.260    23665494.940          48.800
        41.850
 124213550.319 8  96789784.26847  23637047.520    23637044.480          48.550
        42.000
 118242806.800 8  92137248.09047  22500854.580    22500851.600          49.150
        42.700
 109355823.625 8  85212330.82448  20809704.500    20809698.260          50.900
        48.500
 116582995.342 8  90843871.34547  22185003.060    22184996.620          50.750
        43.950
 109812992.667 8  85568580.59947  20896706.460    20896702.100          50.700
        47.250
 11  9  3  0 42 30.0000000  0 11G12G04G25G29G13G31G05G30G02G23G10
 128968801.472 7 100495161.94446  24541947.560    24541945.340          45.900
        38.350
 116905015.826 8  91094834.28547  22246268.900    22246265.420          50.100
        43.750
 119972495.487 8  93485085.47847  22830002.160    22830001.560          49.950
        44.100
 118151247.815 8  92065913.26747  22483425.920    22483422.540          49.450
        44.950
 114721879.585 8  89393661.99347  21830844.220    21830839.640          50.600
        44.150
 124397246.014 8  96932914.42546  23672005.760    23672001.360          48.600
        41.400
 124159166.837 8  96747407.55447  23626698.700    23626695.580          48.600
        42.350
 118274354.192 8  92161830.43047  22506857.860    22506854.880          49.200
        42.450
 109348865.094 8  85206908.56548  20808380.340    20808374.100          50.800
        48.600
 116595969.239 8  90853980.84047  22187471.980    22187465.560          50.650
        44.300
 109803406.791 8  85561111.08947  20894882.300    20894877.940          50.550
        47.650
 11  9  3  0 42 45.0000000  0 11G12G04G25G29G13G31G05G30G02G23G10
 129023885.056 7 100538084.23046  24552429.580    24552427.220          46.150
        38.050
 116951023.052 8  91130684.08147  22255023.800    22255020.340          50.300
        43.800
 120007819.841 8  93512610.93847  22836724.160    22836723.660          50.050
        43.700
 118113458.374 8  92036466.95147  22476234.820    22476231.420          49.700
        44.950
 114705533.836 8  89380925.06847  21827733.780    21827729.160          50.800
        44.650
 124431556.424 8  96959649.69746  23678534.920    23678530.480          48.650
        41.850
 124104843.494 8  96705077.70746  23616361.280    23616358.140          48.700
        41.900
 118306047.810 8  92186526.73247  22512888.980    22512886.100          49.400
        42.350
 109342052.140 8  85201599.77848  20807083.880    20807077.640          50.900
        48.450
 116609099.345 8  90864212.08947  22189970.600    22189964.280          50.750
        44.400
 109793985.180 8  85553769.57047  20893089.440    20893085.160          50.700
        47.550
 11  9  3  0 43  0.0000000  0 11G12G04G25G29G13G31G05G30G02G23G10
 129079013.523 7 100581041.46046  24562920.220    24562917.920          46.950
        39.300
 116997119.256 8  91166603.20547  22263795.680    22263792.140          50.450
        43.850
 120043265.972 8  93540231.27947  22843469.360    22843468.840          49.900
        44.300
 118075777.303 8  92007105.07947  22469064.320    22469061.020          49.950
        44.750
 114689349.601 8  89368313.99047  21824654.080    21824649.400          50.900
        44.250
 124465981.615 8  96986474.47246  23685085.800    23685081.760          48.050
        41.850
 124050576.942 8  96662792.09446  23606034.680    23606031.500          49.000
        41.700
 118337883.621 8  92211333.82947  22518947.160    22518944.340          49.600
        42.450
 109335381.009 8  85196401.50548  20805814.380    20805808.140          51.000
        48.250
 116622381.859 8  90874562.07247  22192498.220    22192491.920          50.900
        44.600
 109784724.207 8  85546553.24247  20891327.160    20891322.900          50.900
        47.350
 11  9  3  0 43 15.0000000  0 11G12G04G25G29G13G31G05G30G02G23G10
 129134189.609 7 100624035.77846  24573419.960    24573417.680          46.650
        38.750
 117043307.242 8  91202593.83647  22272584.940    22272581.460          50.200
        43.700
 120078836.582 8  93567948.60347  22850238.220    22850237.720          50.000
        44.000
 118038207.898 8  91977830.22547  22461915.060    22461911.840          49.800
        44.900
 114673330.038 8  89355831.22647  21821605.700    21821600.920          50.750
        44.300
 124500524.240 8  97013390.76446  23691658.880    23691654.880          48.000
        41.350
 123996370.626 8  96620553.43146  23595719.580    23595716.280          49.000
        41.600
 118369864.503 8  92236253.98847  22525032.960    22525030.060          49.200
        42.950
 109328854.673 8  85191316.08148  20804572.440    20804566.180          50.900
        48.500
 116635819.642 8  90885033.02247  22195055.420    22195049.100          50.900
        44.350
 109775627.044 8  85539464.57747  20889596.100    20889591.780          50.800
        47.650
 11  9  3  0 43 30.0000000  0 11G12G04G25G29G13G31G05G30G02G23G10
 129189413.539 7 100667067.42046  24583928.900    24583926.300          46.750
        38.750
 117089587.115 8  91238656.13847  22281391.720    22281388.160          50.100
        43.600
 120114531.783 8  93595763.01747  22857030.800    22857030.280          49.650
        43.850
 118000750.681 8  91948642.76647  22454787.180    22454783.840          49.650
        44.600
 114657475.528 8  89343477.08547  21818588.680    21818583.880          50.700
        44.400
 124535184.447 7  97040398.67246  23698254.420    23698250.600          47.950
        41.100
 123942225.199 8  96578362.22046  23585416.100    23585412.560          49.100
        41.700
 118401990.414 8  92261287.15547  22531146.380    22531143.440          49.300
        42.800
 109322473.633 8  85186343.87348  20803358.160    20803351.880          50.900
        48.550
 116649413.150 8  90895625.37647  22197642.300    22197635.940          50.900
        44.850
 109766694.031 8  85532503.80747  20887896.260    20887891.840          50.700
        47.650
 11  9  3  0 43 45.0000000  0 11G12G04G25G29G13G31G05G30G02G23G10
 129244681.514 7 100710133.35946  24594446.180    24594443.680          46.100
        38.800
 117135955.186 8  91274787.08047  22290215.240    22290211.660          49.900
        43.850
 120150348.145 8  93623671.83547  22863846.440    22863845.920          49.950
        43.600
 117963403.033 8  91919540.72247  22447680.100    22447676.740          49.450
        44.650
 114641783.065 8  89331249.20647  21815602.540    21815597.700          50.700
        44.400
 124569958.961 8  97067495.69846  23704871.800    23704867.780          48.050
        41.100
 123888137.771 8  96536216.19047  23575123.660    23575120.200          48.850
        42.100
 118434257.919 8  92286430.62947  22537286.760    22537283.700          49.400
        42.400
 109316234.857 8  85181482.50848  20802170.960    20802164.640          50.850
        48.750
 116663158.982 8  90906336.38247  22200258.200    22200251.780          50.900
        44.700
 109757922.170 8  85525668.59647  20886227.100    20886222.580          50.700
        47.550
 11  9  3  0 44  0.0000000  0 11G12G04G25G29G13G31G05G30G02G23G10
 129299994.646 7 100753234.40246  24604971.880    24604969.620          45.850
        38.550
 117182412.839 8  91310987.84647  22299055.860    22299052.240          50.000
        44.150
 120186286.791 8  93651675.93647  22870685.360    22870684.760          50.050
        43.550
 117926166.446 8  91890525.22147  22440594.120    22440590.940          49.600
        44.800
 114626254.524 8  89319149.04447  21812647.600    21812642.680          50.750
        44.200
 124604848.631 7  97094682.37046  23711511.000    23711507.340          47.850
        41.550
 123834110.252 8  96494116.84346  23564842.560    23564839.160          48.850
        41.950
 118466668.150 8  92311685.32047  22543454.320    22543451.160          49.550
        42.300
 109310139.747 8  85176733.05048  20801011.120    20801004.740          51.000
        48.750
 116677058.499 8  90917167.10447  22202903.320    22202896.780          51.000
        44.250
 109749312.848 8  85518960.01047  20884588.820    20884584.260          50.750
        47.450
 11  9  3  0 44 15.0000000  0 11G12G04G25G29G13G31G05G30G02G23G10
 129355357.180 7 100796374.03946  24615506.940    24615504.520          46.150
        37.150
 117228963.895 8  91347261.38347  22307914.280    22307910.560          50.300
        43.300
 120222351.666 8  93679778.39947  22877548.380    22877547.780          50.200
        43.700
 117889045.606 8  91861599.91447  22433530.240    22433527.180          49.950
        44.750
 114610894.239 8  89307179.99147  21809724.640    21809719.660          50.700
        44.350
 124639857.407 8  97121961.83946  23718173.020    23718169.240          48.100
        41.200
 123780147.141 8  96452067.71747  23554573.640    23554570.380          48.800
        42.300
 118499225.087 8  92337054.33446  22549649.740    22549646.520          49.700
        41.550
 109304192.841 8  85172099.10048  20799879.480    20799873.040          51.000
        48.350
 116691115.829 8  90928120.82147  22205578.500    22205571.740          51.250
        44.000
 109740870.523 8  85512381.56947  20882982.280    20882977.760          50.750
        47.150
 11  9  3  0 44 30.0000000  0 11G12G04G25G29G13G31G05G30G02G23G10
 129410762.097 7 100839546.65646  24626050.020    24626047.640          46.100
        38.250
 117275601.768 8  91383602.55147  22316789.220    22316785.460          50.150
        43.600
 120258536.219 8  93707974.15147  22884434.180    22884433.420          50.150
        43.950
 117852034.438 8  91832760.06647  22426487.300    22426484.220          49.750
        45.300
 114595695.986 8  89295337.20247  21806832.480    21806827.480          50.700
        44.200
 124674978.929 7  97149329.20446  23724856.460    23724852.900          47.750
        41.200
 123726242.277 8  96410063.94246  23544315.820    23544312.540          48.600
        41.900
 118531922.130 8  92362532.53447  22555871.820    22555868.560          49.400
        42.300
 109298387.824 8  85167575.69848  20798774.860    20798768.360          51.050
        48.800
 116705324.727 8  90939192.68647  22208282.500    22208275.440          51.000
        44.400
 109732588.948 8  85505928.41247  20881406.300    20881401.840          50.600
        47.350
 11  9  3  0 44 45.0000000  0 11G12G04G25G29G13G31G05G30G02G23G10
 129466213.026 7 100882755.12546  24636601.960    24636599.800          46.000
        39.250
 117322330.226 8  91420014.30447  22325681.380    22325677.560          50.000
        44.100
 120294844.068 8  93736265.98647  22891343.380    22891342.660          49.650
        44.650
 117815137.308 8  91804009.04947  22419466.000    22419462.820          49.400
        45.400
 114580663.838 8  89283623.80647  21803971.920    21803966.880          50.300
        44.400
 124710216.725 7  97176787.13446  23731562.080    23731558.560          47.250
        41.750
 123672400.014 8  96368108.96647  23534069.940    23534066.680          48.500
        42.400
 118564762.923 8  92388122.73347  22562121.280    22562117.980          49.050
        42.750
 109292728.761 8  85163166.06248  20797698.000    20797691.420          50.800
        48.700
 116719688.857 8  90950385.52047  22211015.960    22211008.820          50.750
        44.800
 109724472.041 8  85499603.56247  20879861.600    20879857.200          50.250
        47.600
 11  9  3  0 45  0.0000000  0 11G12G04G25G29G13G31G05G30G02G23G10
 129521707.018 7 100925997.17646  24647162.120    24647159.560          46.200
        38.400
 117369146.365 8  91456494.42947  22334590.220    22334586.360          49.900
        43.700
 120331272.279 8  93764651.60447  22898275.500    22898274.760          49.850
        44.200
 117778351.726 8  91775344.96747  22412465.860    22412462.660          49.300
        45.350
 114565795.357 8  89272037.96847  21801142.520    21801137.480          50.250
        44.350
 124745568.047 7  97204333.57046  23738289.260    23738285.900          47.400
        41.700
 123618618.016 8  96326200.94247  23523835.540    23523832.180          48.350
        42.600
 118597744.508 8  92413822.63547  22568397.500    22568394.140          49.050
        42.300
 109287213.102 8  85158868.17748  20796648.420    20796641.780          50.800
        48.650
 116734205.433 8  90961697.14247  22213778.400    22213771.220          50.700
        44.450
 109716517.233 8  85493405.01747  20878347.780    20878343.440          50.300
        47.650
 11  9  3  0 45 15.0000000  0 11G12G04G25G29G13G31G05G30G02G23G10
 129577245.146 7 100969273.62246  24657730.680    24657728.240          46.150
        37.550
 117416051.106 8  91493043.60247  22343515.900    22343511.980          50.050
        43.200
 120367821.797 8  93793131.73247  22905230.700    22905229.860          50.000
        44.100
 117741679.206 8  91746768.99647  22405487.320    22405484.220          49.750
        45.250
 114551091.894 8  89260580.74247  21798344.480    21798339.420          50.400
        43.800
 124781033.924 7  97231969.29646  23745038.140    23745035.020          47.650
        40.650
 123564897.956 8  96284341.20747  23513612.860    23513609.600          48.350
        42.400
 118630867.858 8  92439632.99946  22574700.660    22574697.320          49.050
        41.800
 109281841.982 8  85154682.90648  20795626.320    20795619.640          50.900
        48.450
 116748875.516 8  90973128.33547  22216569.980    22216562.940          50.750
        44.300
 109708725.805 8  85487333.77847  20876865.060    20876860.780          50.550
        47.250
 11  9  3  0 45 30.0000000  0 11G12G04G25G29G13G31G05G30G02G23G10
 129632827.664 7 101012584.63246  24668307.700    24668305.660          46.100
        39.250
 117463044.652 8  91529661.93247  22352458.460    22352454.580          49.900
        43.350
 120404492.937 8  93821706.60847  22912209.020    22912208.080          50.050
        43.950
 117705120.809 8  91718281.91747  22398530.540    22398527.480          49.750
        45.600
 114536554.222 8  89249252.68847  21795577.980    21795573.020          50.450
        43.950
 124816614.534 7  97259694.40646  23751808.720    23751805.860          47.200
        41.650
 123511240.725 8  96242530.42947  23503402.140    23503398.900          48.500
        42.050
 118664133.349 8  92465554.10747  22581030.860    22581027.660          49.250
        42.200
 109276616.141 8  85150610.84248  20794631.860    20794625.180          50.750
        48.400
 116763699.777 8  90984679.69847  22219390.920    22219384.020          50.700
        44.200
 109701098.468 8  85481390.42747  20875413.620    20875409.320          50.550
        47.300
 11  9  3  0 45 45.0000000  0 11G12G04G25G29G13G31G05G30G02G23G10
 129688453.121 7 101055929.11746  24678892.880    24678890.900          46.900
        36.050
 117510125.924 8  91566348.65347  22361417.680    22361413.880          50.750
        42.800
 120441284.360 8  93850375.21847  22919210.240    22919209.380          50.800
        43.050
 117668675.780 8  91689883.22847  22391595.280    22391592.260          50.650
        44.850
 114522181.447 8  89238053.12447  21792842.880    21792838.000          51.200
        43.650
 124852308.370 8  97287507.72346  23758601.060    23758598.260          48.600
        40.700
 123457645.446 8  96200767.92146  23493203.180    23493199.980          49.200
        41.550
 118697539.607 8  92491584.93946  22587387.840    22587384.780          49.950
        41.300
 109271534.685 8  85146651.27447  20793664.840    20793658.200          51.300
        47.750
 116778676.893 8  90996350.16247  22222240.880    22222234.080          51.250
        43.800
 109693634.129 8  85475574.06147  20873993.180    20873988.900          51.150
        46.900
 11  9  3  0 46  0.0000000  0 11G12G04G25G29G13G31G05G30G02G23G10
 129744122.103 7 101099307.55346  24689486.400    24689483.860          46.950
        37.050
 117557295.485 8  91603104.19047  22370393.760    22370389.880          50.450
        43.200
 120478196.725 8  93879138.06747  22926234.420    22926233.620          50.150
        43.200
 117632345.187 8  91661573.71447  22384681.800    22384678.740          50.250
        44.850
 114507974.651 8  89226982.87247  21790139.420    21790134.580          50.850
        43.850
 124888116.420 7  97315410.08846  23765415.120    23765412.420          47.950
        40.800
 123404113.685 8  96159054.91947  23483016.300    23483013.160          48.750
        42.350
 118731087.276 8  92517725.97146  22593771.780    22593768.740          49.450
        41.700
 109266598.646 8  85142805.05347  20792725.440    20792718.880          50.950
        47.950
 116793807.706 8  91008140.33947  22225120.160    22225113.440          50.900
        44.000
 109686333.965 8  85469885.62247  20872604.020    20872599.700          50.850
        47.250
 11  9  3  0 46 15.0000000  0 11G12G04G25G29G13G31G05G30G02G23G10
 129799831.909 7 101142717.77646  24700087.740    24700085.240          46.550
        37.800
 117604550.435 8  91639926.21247  22379386.060    22379382.320          50.300
        43.550
 120515227.360 8  93907993.07747  22933281.080    22933280.320          49.800
        43.350
 117596126.996 8  91633351.75747  22377789.800    22377786.580          50.300
        45.050
 114493931.685 8  89216040.29847  21787467.180    21787462.360          50.800
        44.250
 124924035.789 7  97343399.19346  23772250.440    23772247.560          47.750
        41.350
 123350643.087 8  96117389.56747  23472841.120    23472838.080          48.950
        42.100
 118764773.606 8  92543975.01147  22600182.080    22600179.160          49.250
        42.000
 109261805.683 8  85139070.30947  20791813.300    20791806.760          50.900
        47.950
 116809089.909 8  91020048.53647  22228028.240    22228021.600          50.850
        44.100
 109679195.517 8  85464323.15347  20871245.620    20871241.320          50.750
        47.150
 11  9  3  0 46 30.0000000  0 11G12G04G25G29G13G31G05G30G02G23G10
 129855585.478 7 101186162.08546  24710697.320    24710694.880          45.500
        37.400
 117651893.877 8  91676817.19447  22388395.200    22388391.560          49.750
        43.900
 120552379.155 8  93936942.50147  22940350.780    22940350.020          49.350
        43.950
 117560024.745 8  91605220.14347  22370919.860    22370916.560          49.650
        45.900
 114480055.811 8  89205227.92047  21784826.740    21784821.920          50.300
        44.500
 124960069.257 7  97371477.09846  23779107.300    23779104.440          47.000
        41.750
 123297236.918 8  96075774.41847  23462678.200    23462675.200          48.300
        43.250
 118798601.543 8  92570334.40646  22606619.340    22606616.460          48.650
        41.700
 109257159.091 8  85135449.62548  20790929.020    20790922.480          50.400
        48.250
 116824526.379 8  91032076.90547  22230965.660    22230959.100          50.250
        44.350
 109672222.269 8  85458889.45447  20869918.680    20869914.400          50.200
        47.800
 11  9  3  0 46 45.0000000  0 11G12G04G25G29G13G31G05G30G02G23G10
 129911380.179 7 101229638.50846  24721314.800    24721311.820          45.900
        36.600
 117699323.331 8  91713775.19847  22397420.700    22397417.140          50.000
        43.550
 120589649.506 8  93965984.32247  22947443.080    22947442.380          49.900
        43.300
 117524036.320 8  91577177.24847  22364071.500    22364068.240          49.800
        45.450
 114466344.822 8  89194544.04347  21782217.640    21782212.860          50.600
        44.500
 124996214.368 7  97399642.05046  23785985.500    23785982.680          47.350
        41.050
 123243893.526 8  96034208.19147  23452527.280    23452524.220          48.950
        42.350
 118832568.448 8  92596802.07846  22613083.040    22613080.200          49.150
        41.750
 109252656.516 8  85131941.18948  20790072.180    20790065.600          50.900
        48.050
 116840114.748 8  91044223.63747  22233932.000    22233925.440          50.600
        43.850
 109665411.748 8  85453582.57547  20868622.700    20868618.420          50.700
        47.250
 11  9  3  0 47  0.0000000  0 11G12G04G25G29G13G31G05G30G02G23G10
 129967216.105 7 101273146.97746  24731939.900    24731937.180          44.950
        37.350
 117746839.072 8  91750800.44947  22406462.580    22406459.060          49.950
        43.350
 120627038.750 8  93995118.78847  22954558.000    22954557.280          49.800
        43.250
 117488162.655 8  91549223.75747  22357244.940    22357241.720          50.000
        45.350
 114452799.629 8  89183989.39647  21779640.060    21779635.360          50.550
        44.500
 125032471.446 7  97427894.23046  23792885.120    23792882.280          47.450
        40.850
 123190613.911 8  95992691.65047  23442388.460    23442385.280          48.750
        42.000
 118866674.821 8  92623378.43646  22619573.280    22619570.420          49.200
        41.750
 109248298.805 8  85128545.62348  20789242.940    20789236.300          50.800
        48.050
 116855855.576 8  91056489.23047  22236927.400    22236920.780          50.600
        43.850
 109658764.633 8  85448402.99847  20867357.800    20867353.520          50.600
        47.550
 11  9  3  0 47 15.0000000  0 11G12G04G25G29G13G31G05G30G02G23G10
 130023093.733 7 101316687.91046  24742572.960    24742570.720          45.300
        36.600
 117794441.832 8  91787893.52147  22415521.100    22415517.580          49.950
        43.350
 120664547.477 8  94024346.37247  22961695.640    22961694.980          49.700
        43.700
 117452405.011 8  91521360.66947  22350440.520    22350437.220          50.200
        45.400
 114439421.192 8  89173564.66247  21777094.160    21777089.500          50.550
        43.850
 125068841.021 7  97456233.99946  23799806.120    23799802.860          47.850
        40.600
 123137399.181 8  95951225.68346  23432261.920    23432258.840          48.650
        41.150
 118900920.973 8  92650063.72146  22626090.140    22626087.320          49.350
        41.750
 109244086.760 8  85125263.53448  20788441.380    20788434.720          50.700
        48.000
 116871749.533 8  91068874.14247  22239951.860    22239945.340          50.350
        44.150
 109652281.892 8  85443351.50647  20866124.200    20866119.860          50.600
        47.300
 11  9  3  0 47 30.0000000  0 11G12G04G25G29G13G31G05G30G02G23G10
 130079011.722 7 101360260.34246  24753213.760    24753211.200          45.100
        36.600
 117842129.808 8  91825053.00347  22424595.840    22424592.260          50.050
        43.000
 120702174.143 8  94053665.84147  22968855.740    22968855.140          49.850
        43.250
 117416762.383 8  91493587.18947  22343658.020    22343654.600          50.250
        45.200
 114426208.427 8  89163268.98747  21774579.780    21774575.160          50.400
        44.150
 125105321.913 8  97484660.60546  23806748.440    23806744.740          48.300
        40.600
 123084248.538 8  95909809.66447  23422147.620    23422144.580          48.850
        42.550
 118935305.584 8  92676856.90247  22632633.280    22632630.500          49.150
        42.000
 109240019.236 8  85122094.05048  20787667.300    20787660.680          50.700
        48.250
 116887795.200 8  91081377.22247  22243005.140    22242998.760          50.400
        44.000
 109645962.365 8  85438427.17347  20864921.640    20864917.240          50.650
        47.400
 11  9  3  0 47 45.0000000  0 11G12G04G25G29G13G31G05G30G02G23G10
 130134970.151 7 101403864.28046  24763862.320    24763859.780          45.950
        38.500
 117889903.330 8  91862279.11847  22433686.900    22433683.240          50.350
        43.250
 120739918.951 8  94083077.36147  22976038.380    22976037.680          50.000
        43.800
 117381235.708 8  91465904.06647  22336897.540    22336894.060          50.200
        45.800
 114413161.992 8  89153102.93447  21772097.040    21772092.480          50.300
        44.250
 125141914.089 7  97513173.91346  23813711.920    23813708.100          47.850
        41.000
 123031162.659 8  95868444.10147  23412045.740    23412042.680          48.900
        42.750
 118969828.810 8  92703758.08446  22639202.840    22639200.120          49.050
        41.900
 109236096.941 8  85119037.71348  20786920.820    20786914.280          50.800
        48.600
 116903993.112 8  91093998.96547  22246087.440    22246081.200          50.550
        44.100
 109639806.567 8  85433630.38947  20863750.260    20863745.800          50.750
        47.400
 11  9  3  0 48  0.0000000  0 11G12G04G25G29G13G31G05G30G02G23G10
 130190967.782 7 101447498.73146  24774518.500    24774516.500          46.250
        36.950
 117937761.143 8  91899570.94947  22442794.060    22442790.180          50.550
        42.950
 120777780.664 8  94112580.00947  22983243.240    22983242.480          49.700
        43.600
 117345824.095 8  91438310.63647  22330158.900    22330155.460          50.050
        45.800
 114400281.041 8  89143065.83147  21769645.760    21769641.300          50.300
        44.200
 125178616.347 7  97541773.01446  23820696.260    23820692.840          47.850
        41.500
 122978141.103 8  95827128.66947  23401956.120    23401952.940          49.150
        42.200
 119004489.303 8  92730766.24647  22645798.500    22645795.660          49.250
        42.000
 109232318.862 8  85116093.77648  20786201.800    20786195.380          50.750
        48.350
 116920342.192 8  91106738.51047  22249198.560    22249192.360          50.550
        43.950
 109633813.606 8  85428960.55047  20862609.860    20862605.400          50.650
        47.100
 11  9  3  0 48 15.0000000  0 11G12G04G25G29G13G31G05G30G02G23G10
 130247004.614 7 101491163.76645  24785182.020    24785179.700          45.600
        35.750
 117985703.341 8  91936928.49147  22451917.260    22451913.160          50.550
        42.850
 120815759.234 8  94142173.71047  22990470.320    22990469.700          49.850
        43.350
 117310528.168 8  91410807.31847  22323442.300    22323438.960          50.300
        45.700
 114387565.950 8  89133157.94747  21767226.080    21767221.700          50.250
        44.250
 125215428.703 8  97570457.95046  23827701.640    23827698.060          48.450
        41.700
 122925184.230 8  95785863.61347  23391878.780    23391875.480          49.100
        42.300
 119039287.113 8  92757881.40447  22652420.280    22652417.520          49.350
        42.200
 109228685.354 8  85113262.49248  20785510.280    20785503.980          50.700
        48.250
 116936842.433 8  91119595.82947  22252338.500    22252332.220          50.600
        43.900
 109627983.883 8  85424417.89447  20861500.520    20861496.080          50.750
        47.250
 11  9  3  0 48 30.0000000  0 11G12G04G25G29G13G31G05G30G02G23G10
 130303081.592 7 101534860.10846  24795853.080    24795850.340          45.000
        37.550
 118033730.923 8  91974352.60847  22461056.720    22461052.420          50.050
        43.350
 120853855.687 8  94171859.23347  22997719.840    22997719.200          49.150
        43.800
 117275349.613 8  91383395.48447  22316748.080    22316744.800          49.750
        46.050
 114375018.168 8  89123380.43247  21764838.280    21764833.880          49.900
        44.500
 125252352.036 7  97599229.29047  23834728.140    23834724.580          47.850
        42.400
 122872293.627 8  95744650.18347  23381814.020    23381810.580          48.500
        43.100
 119074223.264 8  92785104.36947  22659068.440    22659065.660          48.750
        42.750
 109225197.795 8  85110544.87548  20784846.580    20784840.360          50.300
        48.450
 116953495.120 8  91132571.97347  22255507.440    22255501.060          50.200
        44.150
 109622318.784 8  85420003.56447  20860422.520    20860418.060          50.350
        47.900
 11  9  3  0 48 45.0000000  0 11G12G04G25G29G13G31G05G30G02G23G10
 130359197.525 7 101578586.74646  24806531.600    24806529.280          44.550
        38.050
 118081842.723 8  92011842.35947  22470212.140    22470207.720          50.050
        43.450
 120892068.762 8  94201635.67047  23004991.540    23004990.880          49.600
        43.800
 117240287.698 8  91356074.54647  22310076.000    22310072.640          49.800
        46.100
 114362637.015 8  89113732.77147  21762482.220    21762477.860          50.050
        44.150
 125289385.164 7  97628086.15246  23841775.460    23841771.960          47.900
        41.550
 122819468.789 8  95703488.02147  23371761.840    23371758.340          48.900
        42.900
 119109296.435 8  92812434.09047  22665742.700    22665739.900          48.950
        42.200
 109221855.332 8  85107940.35448  20784210.520    20784204.280          50.550
        48.850
 116970299.058 8  91145665.93047  22258705.180    22258698.820          50.450
        44.300
 109616817.114 8  85415716.48247  20859375.600    20859371.160          50.350
        47.650
 11  9  3  0 49  0.0000000  0 11G12G04G25G29G13G31G05G30G02G23G10
 130415353.732 7 101622344.76646  24817217.680    24817215.460          45.800
        37.500
 118130040.261 8  92049398.88247  22479383.820    22479379.420          50.150
        43.050
 120930400.074 8  94231504.21247  23012285.760    23012285.100          49.900
        43.400
 117205344.584 8  91328846.17047  22303426.420    22303423.080          49.950
        45.650
 114350424.465 8  89104216.50447  21760158.260    21760153.880          50.350
        44.000
 125326529.867 8  97657030.09146  23848844.020    23848840.420          48.500
        41.750
 122766711.838 8  95662378.74347  23361722.500    23361719.000          49.150
        42.600
 119144508.210 8  92839871.82447  22672443.300    22672440.560          49.050
        42.650
 109218659.950 8  85105450.45448  20783602.480    20783596.200          50.750
        48.450
 116987256.187 8  91158879.29447  22261932.120    22261925.720          50.700
        44.150
 109611481.179 8  85411558.64547  20858360.220    20858355.760          50.650
        47.550
 11  9  3  0 49 15.0000000  0 11G12G04G25G29G13G31G05G30G02G23G10
 130471544.891 7 101666130.07046  24827910.680    24827907.840          46.250
        36.050
 118178318.300 8  92087018.17447  22488570.800    22488566.480          50.100
        43.550
 120968844.313 8  94261460.77747  23019601.460    23019600.860          49.850
        43.100
 117170515.644 8  91301706.76547  22296798.600    22296795.300          50.050
        45.650
 114338375.549 8  89094827.74247  21757865.460    21757861.020          50.350
        44.100
 125363780.449 8  97686056.43746  23855932.600    23855928.840          48.050
        41.200
 122714018.181 8  95621318.79147  23351695.220    23351691.760          49.250
        42.950
 119179853.326 8  92867413.44347  22679169.220    22679166.560          48.950
        42.500
 109215606.677 8  85103071.28148  20783021.500    20783015.160          50.850
        48.500
 117004361.299 8  91172208.03047  22265187.160    22265180.640          50.750
        44.200
 109606305.852 8  85407525.94747  20857375.400    20857370.940          50.700
        47.500
 11  9  3  0 49 30.0000000  0 11G12G04G25G29G13G31G05G30G02G23G10
 130527777.883 7 101709947.92646  24838611.580    24838609.100          46.000
        38.200
 118226683.582 8  92124705.38047  22497774.340    22497770.160          49.900
        42.700
 121007408.257 8  94291510.61147  23026939.980    23026939.220          50.050
        43.350
 117135808.239 8  91274662.06247  22290193.980    22290190.700          50.150
        45.750
 114326497.550 8  89085572.17147  21755605.140    21755600.700          50.300
        43.850
 125401144.369 7  97715171.21046  23863042.620    23863039.040          47.850
        41.950
 122661395.160 8  95580313.85447  23341681.360    23341677.940          49.200
        43.050
 119215338.544 8  92895064.21147  22685921.780    22685919.200          48.800
        42.500
 109212702.687 8  85100808.43148  20782468.940    20782462.600          50.950
        48.400
 117021621.119 8  91185657.19247  22268471.620    22268464.920          50.850
        43.850
 109601298.248 8  85403623.91547  20856422.480    20856418.000          50.650
        47.300
 11  9  3  0 49 45.0000000  0 11G12G04G25G29G13G31G05G30G02G23G10
 130584048.224 7 101753794.87646  24849319.600    24849317.380          46.450
        37.050
 118275131.619 8  92162457.05047  22506993.640    22506989.520          49.700
        43.300
 121046087.383 8  94321650.18047  23034300.460    23034299.720          49.850
        43.800
 117101218.319 8  91247708.87647  22283611.640    22283608.420          49.700
        45.750
 114314786.325 8  89076446.54147  21753376.560    21753372.080          50.200
        44.150
 125438616.555 7  97744370.23046  23870173.340    23870169.740          47.650
        41.800
 122608838.998 8  95539361.04447  23331680.220    23331676.820          49.100
        43.250
 119250959.324 8  92922820.63046  22692700.180    22692697.640          48.800
        41.800
 109209943.554 8  85098658.46148  20781943.980    20781937.580          50.800
        48.850
 117039031.456 8  91199223.56947  22271784.800    22271778.020          50.750
        44.100
 109596454.156 8  85399849.27847  20855500.660    20855496.140          50.550
        47.550
 11  9  3  0 50  0.0000000  0 11G12G04G25G29G13G31G05G30G02G23G10
 130640354.114 7 101797669.59546  24860034.440    24860031.600          46.050
        36.650
 118323660.970 8  92200272.14247  22516228.400    22516224.460          49.700
        43.200
 121084880.121 8  94351878.29547  23041682.500    23041681.680          49.900
        43.800
 117066745.052 8  91220846.59447  22277051.460    22277048.300          49.650
        45.650
 114303240.679 8  89067449.94447  21751179.500    21751174.980          50.250
        43.750
 125476195.771 8  97773652.72846  23877324.360    23877320.960          48.000
        41.500
 122556348.619 8  95498459.50947  23321691.540    23321688.300          48.900
        43.150
 119286714.133 8  92950681.47747  22699504.000    22699501.640          48.450
        42.000
 109207328.396 8  85096620.68648  20781446.380    20781439.940          50.800
        48.400
 117056590.978 8  91212906.27547  22275126.320    22275119.480          50.700
        43.800
 109591772.316 8  85396201.05847  20854609.720    20854605.160          50.550
        47.300
 11  9  3  0 50 15.0000000  0 11G12G04G25G29G13G31G05G30G02G23G10
 130696697.719 7 101841573.66246  24870756.260    24870753.480          46.000
        37.750
 118372273.543 8  92238152.04647  22525479.000    22525475.160          49.750
        42.650
 121123788.469 8  94382196.45447  23049086.560    23049085.620          49.800
        43.250
 117032391.143 8  91194077.34147  22270514.000    22270510.880          49.750
        45.350
 114291863.353 8  89058584.48647  21749014.500    21749009.900          50.550
        43.750
 125513883.921 7  97803020.09746  23884496.100    23884492.740          47.850
        41.400
 122503926.800 8  95457611.39647  23311715.920    23311712.700          49.150
        42.600
 119322605.038 8  92978648.38547  22706333.800    22706331.460          48.700
        42.100
 109204859.741 8  85094697.07348  20780976.640    20780970.100          50.750
        48.300
 117074301.796 8  91226706.82247  22278496.640    22278489.740          50.750
        43.800
 109587255.177 8  85392681.17947  20853750.120    20853745.620          50.600
        47.200
 11  9  3  0 50 30.0000000  0 11G12G04G25G29G13G31G05G30G02G23G10
 130753078.298 7 101885506.56546  24881485.160    24881482.660          46.100
        37.400
 118420968.806 8  92276096.40147  22534745.360    22534741.620          49.850
        43.000
 121162811.700 8  94412604.10747  23056512.460    23056511.540          49.650
        43.400
 116998156.416 8  91167400.94047  22263999.300    22263996.180          49.800
        45.500
 114280653.963 8  89049849.89447  21746881.480    21746876.760          50.550
        44.100
 125551680.220 7  97832471.72446  23891688.540    23891685.260          47.800
        40.900
 122451573.428 8  95416816.60347  23301753.380    23301750.060          49.000
        42.850
 119358631.201 8  93006720.69247  22713189.340    22713186.960          48.650
        42.250
 109202537.118 8  85092887.26748  20780534.660    20780528.060          50.750
        48.300
 117092163.724 8  91240625.27547  22281895.760    22281888.800          50.750
        43.900
 109582902.371 8  85389289.38347  20852921.860    20852917.320          50.700
        47.050
 11  9  3  0 50 45.0000000  0 11G12G04G25G29G13G31G05G30G02G23G10
 130809494.569 7 101929467.26346  24892220.820    24892218.100          44.750
        36.600
 118469745.504 8  92314104.21547  22544027.180    22544023.500          49.600
        42.800
 121201948.640 8  94443100.36947  23063960.000    23063959.160          49.650
        43.200
 116964040.087 8  91140816.81547  22257507.100    22257504.160          49.700
        45.750
 114269611.670 8  89041245.50647  21744780.300    21744775.420          50.550
        44.100
 125589583.574 8  97862006.79746  23898901.340    23898898.020          48.250
        41.500
 122399287.730 8  95376074.52447  23291803.740    23291800.480          49.000
        43.400
 119394791.458 8  93034897.47846  22720070.420    22720068.060          48.700
        41.550
 109200359.515 8  85091190.45548  20780120.260    20780113.640          50.800
        48.600
 117110175.272 8  91254660.21947  22285323.360    22285316.340          50.750
        44.000
 109578713.027 8  85386024.97047  20852124.740    20852120.160          50.750
        47.350
 11  9  3  0 51  0.0000000  0 11G12G04G25G29G13G31G05G30G02G23G10
 130865946.441 7 101973455.70146  24902963.260    24902960.540          45.950
        38.600
 118518603.613 8  92352175.49847  22553324.480    22553320.800          49.450
        43.150
 121241199.356 8  94473685.29747  23071429.160    23071428.380          49.550
        43.250
 116930042.856 8  91114325.49447  22251037.540    22251034.680          49.350
        45.900
 114258736.905 8  89032771.68347  21742710.980    21742706.040          50.400
        43.900
 125627593.908 7  97891625.19846  23906134.500    23906131.040          47.950
        41.550
 122347070.552 8  95335385.85747  23281867.040    23281863.980          49.000
        43.250
 119431085.862 8  93063178.80146  22726977.020    22726974.780          48.700
        41.700
 109198327.430 8  85089607.03248  20779733.600    20779726.960          50.800
        48.300
 117128336.698 8  91268811.88347  22288779.380    22288772.460          50.650
        44.200
 109574687.562 8  85382888.26747  20851358.800    20851354.160          50.800
        47.400
 11  9  3  0 51 15.0000000  0 11G12G04G25G29G13G31G05G30G02G23G10
 130922434.917 7 102017472.62446  24913712.720    24913710.440          45.700
        38.250
 118567544.268 8  92390311.09646  22562637.480    22562633.900          49.400
        41.900
 121280564.643 8  94504359.46347  23078920.120    23078919.340          49.650
        42.300
 116896166.099 8  91087928.05047  22244590.940    22244588.080          49.700
        45.700
 114248030.913 8  89024429.35447  21740673.680    21740668.760          50.300
        44.200
 125665712.285 7  97921327.84446  23913388.240    23913384.800          47.750
        41.050
 122294923.353 8  95294751.71147  23271943.680    23271940.800          49.000
        43.550
 119467515.221 8  93091565.29846  22733909.320    22733907.060          48.350
        41.650
 109196442.057 8  85088137.91948  20779374.840    20779368.200          50.750
        48.450
 117146649.422 8  91283081.71047  22292264.140    22292257.340          50.400
        44.150
 109570827.082 8  85379880.10947  20850624.240    20850619.540          50.700
        47.200
 11  9  3  0 51 30.0000000  0 11G12G04G25G29G13G31G05G30G02G23G10
 130978958.675 7 102061517.07046  24924468.820    24924466.500          45.300
        37.600
 118616565.741 8  92428509.63547  22571965.860    22571962.340          49.700
        42.550
 121320043.207 8  94535121.96847  23086432.680    23086431.820          49.700
        42.200
 116862409.012 8  91061623.82547  22238167.200    22238164.260          50.100
        45.400
 114237492.796 8  89016217.82047  21738668.320    21738663.440          50.450
        43.700
 125703937.200 8  97951113.48846  23920662.140    23920658.600          48.200
        40.600
 122242845.240 8  95254171.38547  23262033.540    23262030.580          49.400
        43.350
 119504078.176 8  93120055.89246  22740867.100    22740864.780          48.800
        41.850
 109194702.414 8  85086782.35948  20779043.800    20779037.160          50.900
        48.250
 117165111.644 8  91297467.86147  22295777.260    22295770.560          50.550
        43.850
 109567130.611 8  85376999.75847  20849920.820    20849916.140          50.850
        47.150
 11  9  3  0 51 45.0000000  0 11G12G04G25G29G13G31G05G30G02G23G10
 131035517.576 7 102105588.96346  24935231.660    24935229.160          45.550
        38.150
 118665668.424 8  92466771.45647  22581309.700    22581306.080          49.550
        42.700
 121359635.160 8  94565972.81247  23093966.760    23093965.860          49.200
        42.300
 116828772.468 8  91035413.52047  22231766.380    22231763.380          49.750
        45.350
 114227122.898 8  89008137.34947  21736694.960    21736690.100          50.250
        43.950
 125742268.742 7  97980982.21046  23927956.400    23927953.040          47.350
        40.950
 122190836.931 8  95213645.45347  23252136.660    23252133.600          49.050
        43.200
 119540774.809 8  93148650.63047  22747850.300    22747847.820          48.400
        42.200
 109193108.835 8  85085540.62648  20778740.560    20778733.880          50.700
        48.600
 117183723.886 8  91311970.90947  22299318.920    22299312.540          50.200
        43.800
 109563598.571 8  85374247.50447  20849248.680    20849244.000          50.600
        47.350
 11  9  3  0 52  0.0000000  0 11G12G04G25G29G13G31G05G30G02G23G10
 131092111.039 7 102149687.71946  24946001.020    24945998.880          44.900
        39.100
 118714851.570 8  92505095.96947  22590668.960    22590665.240          49.650
        42.400
 121399339.698 8  94596911.34847  23101522.300    23101521.380          49.400
        42.900
 116795256.293 8  91009297.04747  22225388.420    22225385.480          49.550
        45.650
 114216921.308 8  89000188.07247  21734753.640    21734748.800          50.450
        43.950
 125780706.405 7  98010933.56646  23935270.740    23935267.600          47.700
        40.400
 122138898.623 8  95173174.07847  23242253.100    23242250.000          49.050
        43.400
 119577604.420 8  93177348.99547  22754858.780    22754856.260          48.650
        42.200
 109191661.081 8  85084412.52048  20778465.020    20778458.340          50.700
        48.500
 117202485.556 8  91326590.30847  22302889.080    22302882.740          50.300
        43.800
 109560230.776 8  85371623.27747  20848607.780    20848603.140          50.700
        47.300
 11  9  3  0 52 15.0000000  0 11G12G04G25G29G13G31G05G30G02G23G10
 131148738.405 7 102193812.90646  24956776.900    24956774.820          45.850
        37.650
 118764114.711 8  92543482.83447  22600043.440    22600039.680          49.800
        42.350
 121439156.351 8  94627937.27447  23109099.180    23109098.400          49.350
        43.050
 116761860.533 8  90983274.43847  22219033.400    22219030.460          49.900
        45.650
 114206887.714 8  88992369.68747  21732844.360    21732839.560          50.600
        44.300
 125819249.442 7  98040967.05246  23942605.260    23942602.200          47.700
        40.550
 122087030.269 8  95132757.21247  23232382.860    23232379.800          49.300
        43.750
 119614566.442 8  93206150.55746  22761892.480    22761890.100          48.750
        41.100
 109190358.836 8  85083397.78748  20778217.180    20778210.480          50.800
        48.450
 117221396.326 8  91341325.99647  22306487.620    22306481.240          50.350
        43.900
 109557026.836 8  85369126.74047  20847998.060    20847993.460          50.750
        47.300
 11  9  3  0 52 30.0000000  0 11G12G04G25G29G13G31G05G30G02G23G10
 131205398.479 7 102237963.63345  24967559.040    24967556.620          45.750
        35.800
 118813456.824 8  92581931.23847  22609433.000    22609429.140          50.050
        42.100
 121479083.942 8  94659049.63747  23116697.120    23116696.580          49.600
        42.600
 116728584.626 8  90957345.17047  22212701.260    22212698.160          50.250
        45.300
 114197021.409 8  88984681.66947  21730966.940    21730962.120          50.700
        44.050
 125857896.933 7  98071081.97546  23949959.720    23949956.400          47.900
        40.950
 122035231.251 8  95092394.38847  23222525.780    23222522.760          49.250
        42.850
 119651659.743 8  93235054.41847  22768951.160    22768948.780          48.950
        42.200
 109189201.383 8  85082495.92148  20777996.840    20777990.220          50.800
        48.350
 117240455.147 8  91356176.96047  22310114.320    22310108.000          50.300
        43.800
 109553985.886 8  85366757.21247  20847419.340    20847414.780          50.650
        47.550
 11  9  3  0 52 45.0000000  0 11G12G04G25G29G13G31G05G30G02G23G10
 131262091.714 7 102282140.10946  24978347.380    24978345.000          45.800
        37.650
 118862878.118 8  92620441.33547  22618837.640    22618833.720          49.900
        42.250
 121519122.961 8  94690248.85347  23124316.340    23124315.860          49.650
        42.750
 116695429.556 8  90931510.05947  22206392.100    22206388.860          50.200
        45.750
 114187323.225 8  88977124.64747  21729121.500    21729116.560          50.700
        44.200
 125896649.243 8  98101278.59146  23957334.040    23957330.660          48.000
        40.200
 121983502.707 8  95052086.46747  23212682.120    23212679.100          49.100
        43.300
 119688884.775 8  93264060.91546  22776034.920    22776032.500          48.950
        41.750
 109188189.473 8  85081707.45548  20777804.160    20777797.660          50.800
        48.450
 117259662.917 8  91371144.11447  22313769.400    22313763.160          50.600
        43.700
 109551108.718 8  85364515.30547  20846871.760    20846867.220          50.750
        47.350
 11  9  3  0 53  0.0000000  0 11G12G04G25G29G13G31G05G30G02G23G10
 131318819.276 7 102326343.32846  24989142.380    24989140.020          45.900
        36.650
 118912379.964 8  92659014.17847  22628257.580    22628253.760          49.900
        42.300
 121559274.593 8  94721535.81247  23131956.880    23131956.500          49.500
        42.950
 116662397.076 8  90905770.49047  22200106.240    22200102.860          50.050
        45.600
 114177794.871 8  88969699.96447  21727308.340    21727303.300          50.700
        44.100
 125935507.564 8  98131557.82946  23964728.560    23964724.920          48.000
        40.400
 121931846.471 8  95011834.90947  23202852.240    23202849.180          49.450
        43.200
 119726242.678 8  93293170.97146  22783143.980    22783141.520          49.400
        41.600
 109187324.667 8  85081033.57648  20777639.480    20777633.100          50.800
        48.150
 117279020.665 8  91386228.08247  22317453.040    22317446.640          50.600
        43.400
 109548396.867 8  85362402.24047  20846355.640    20846351.100          50.850
        47.350
 11  9  3  0 53 15.0000000  0 11G12G04G25G29G13G31G05G30G02G23G10
 131375578.136 7 102370570.96445  24999943.240    24999940.640          45.350
        34.900
 118961959.387 8  92697647.46347  22637692.280    22637688.520          49.900
        42.400
 121599535.695 8  94752908.08947  23139618.360    23139617.920          49.750
        42.500
 116629484.641 8  90880124.46047  22193843.260    22193839.840          50.200
        45.550
 114168433.493 8  88962405.36347  21725526.920    21725521.820          50.600
        44.000
 125974468.654 8  98161917.08346  23972142.720    23972139.160          48.000
        40.900
 121880260.018 8  94971637.72047  23193035.680    23193032.620          49.350
        43.250
 119763730.411 8  93322382.20346  22790277.740    22790275.220          48.950
        41.750
 109186604.420 8  85080472.33448  20777502.380    20777496.040          50.750
        48.150
 117298525.612 8  91401426.77547  22321164.680    22321158.220          50.400
        43.450
 109545847.605 8  85360415.84547  20845870.520    20845865.880          50.750
        47.250
 11  9  3  0 53 30.0000000  0 11G12G04G25G29G13G31G05G30G02G23G10
 131432370.276 7 102414824.55945  25010750.440    25010747.900          46.100
        35.550
 119011618.347 8  92736342.73947  22647142.120    22647138.420          49.850
        42.350
 121639908.338 8  94784367.27747  23147301.120    23147300.400          49.800
        42.550
 116596695.164 8  90854574.24347  22187603.700    22187600.300          50.150
        45.750
 114159241.824 8  88955243.05647  21723777.800    21723772.720          50.600
        43.800
 126013534.709 8  98192358.12646  23979576.780    23979573.280          48.050
        40.650
 121828746.141 8  94931497.08047  23183232.920    23183229.840          49.250
        43.200
 119801349.870 8  93351696.05646  22797436.540    22797433.980          49.050
        41.200
 109186031.135 8  85080025.63148  20777393.280    20777386.980          50.800
        48.300
 117318179.815 8  91416741.72847  22324904.680    22324898.240          50.350
        43.650
 109543463.264 8  85358557.95247  20845416.800    20845412.060          50.850
        47.250
 11  9  3  0 53 45.0000000  0 11G12G04G25G29G13G31G05G30G02G23G10
 131489195.881 7 102459104.18446  25021564.060    25021561.900          44.750
        36.350
 119061357.150 8  92775100.24847  22656607.140    22656603.480          50.050
        42.900
 121680392.624 8  94815913.42747  23155005.060    23155004.320          49.750
        42.900
 116564029.131 8  90829120.19947  22181387.580    22181384.260          50.350
        45.750
 114150220.031 8  88948213.07247  21722061.000    21722055.900          50.800
        44.050
 126052705.927 7  98222881.11446  23987030.800    23987027.480          47.750
        40.400
 121777305.563 8  94891413.55147  23173444.060    23173440.960          49.500
        43.300
 119839101.186 8  93381112.59846  22804620.360    22804617.760          49.050
        41.550
 109185605.067 8  85079693.61648  20777312.220    20777305.880          50.900
        48.300
 117337983.674 8  91432173.32947  22328673.220    22328666.920          50.550
        43.450
 109541244.201 8  85356828.81647  20844994.500    20844989.760          50.950
        47.100
 11  9  3  0 54  0.0000000  0 11G12G04G25G29G13G31G05G30G02G23G10
 131546052.695 7 102503408.18045  25032383.340    25032380.900          45.300
        35.100
 119111173.460 8  92813918.13347  22666086.980    22666083.200          50.200
        42.200
 121720986.459 8  94847544.95246  23162729.820    23162729.100          50.050
        41.750
 116531484.988 8  90803761.13947  22175194.660    22175191.320          50.400
        45.700
 114141366.489 8  88941314.19847  21720376.260    21720371.220          50.850
        43.750
 126091980.233 8  98253484.47246  23994504.440    23994501.200          48.050
        41.050
 121725936.700 8  94851385.91947  23163668.820    23163665.640          49.550
        43.000
 119876982.361 8  93410630.36746  22811828.920    22811826.320          48.950
        41.350
 109185324.614 8  85079475.06847  20777258.880    20777252.480          50.950
        47.950
 117357935.230 8  91447720.00247  22332469.820    22332463.580          50.450
        43.300
 109539188.702 8  85355227.11647  20844603.280    20844598.560          50.900
        47.100
 11  9  3  0 54 15.0000000  0 11G12G04G25G29G13G31G05G30G02G23G10
 131602939.526 7 102547735.60846  25043208.580    25043206.000          45.050
        37.900
 119161066.414 8  92852795.77047  22675581.340    22675577.440          50.050
        42.350
 121761688.674 8  94879260.94547  23170475.260    23170474.540          49.900
        42.450
 116499062.160 8  90778496.60047  22169024.840    22169021.460          50.300
        46.150
 114132680.536 8  88934545.90447  21718723.420    21718718.440          50.850
        44.350
 126131356.314 7  98284167.08346  24001997.380    24001994.260          47.600
        40.400
 121674639.017 8  94811413.75447  23153907.120    23153903.920          49.450
        43.000
 119914992.196 8  93440248.40546  22819062.000    22819059.380          48.900
        40.950
 109185188.753 8  85079369.19248  20777233.040    20777226.600          50.950
        48.100
 117378033.305 8  91463380.82047  22336294.260    22336288.000          50.400
        43.600
 109537295.936 8  85353752.22947  20844243.060    20844238.380          50.900
        47.250
 11  9  3  0 54 30.0000000  0 11G12G04G25G29G13G31G05G30G02G23G10
 131659859.078 7 102592088.43846  25054039.920    25054038.060          44.050
        36.400
 119211038.354 8  92891734.93447  22685090.740    22685086.700          49.800
        42.300
 121802501.921 8  94911063.46247  23178241.840    23178240.960          49.650
        42.350
 116466764.076 8  90753329.29547  22162878.740    22162875.400          50.250
        45.500
 114124165.290 8  88927910.63347  21717103.120    21717098.060          50.850
        44.250
 126170836.907 7  98314931.13246  24009510.300    24009507.120          47.450
        41.050
 121623415.982 8  94771499.74647  23144159.700    23144156.360          49.300
        43.100
 119953133.277 8  93469968.70446  22826319.980    22826317.420          48.350
        41.700
 109185200.679 8  85079378.49048  20777235.340    20777228.860          50.700
        48.150
 117398280.870 8  91479158.20047  22340147.220    22340140.980          50.250
        43.750
 109535569.068 8  85352406.62447  20843914.440    20843909.760          50.650
        47.250
 11  9  3  0 54 45.0000000  0 11G12G04G25G29G13G31G05G30G02G23G10
 131716809.111 7 102636465.02546  25064877.160    25064875.140          45.100
        36.350
 119261087.244 8  92930734.05647  22694614.760    22694610.680          49.800
        42.550
 121843423.754 8  94942950.55847  23186029.080    23186028.320          49.700
        42.550
 116434588.818 8  90728257.68147  22156755.980    22156752.700          50.300
        46.100
 114115818.680 8  88921406.79547  21715514.920    21715509.840          50.850
        44.700
 126210419.615 7  98345774.80546  24017042.640    24017039.700          47.600
        40.500
 121572265.902 8  94731642.56647  23134426.200    23134422.620          49.300
        43.250
 119991403.218 8  93499789.41446  22833602.440    22833600.000          48.350
        41.700
 109185358.393 8  85079501.38048  20777265.360    20777258.840          50.700
        48.300
 117418675.587 8  91495050.21047  22344028.180    22344021.960          50.200
        43.950
 109534005.824 8  85351188.51647  20843616.960    20843612.280          50.650
        47.400
 11  9  3  0 55  0.0000000  0 11G12G04G25G29G13G31G05G30G02G23G10
 131773787.424 7 102680863.79146  25075719.920    25075717.480          45.700
        37.000
 119311210.967 8  92969791.49746  22704153.000    22704148.840          49.750
        41.250
 121884452.233 8  94974920.74047  23193836.580    23193835.940          49.700
        42.200
 116402535.012 8  90703280.70047  22150656.320    22150653.100          50.150
        45.950
 114107639.257 8  88915033.20047  21713958.500    21713953.420          50.900
        44.350
 126250102.443 8  98376696.45446  24024594.120    24024591.060          48.050
        40.850
 121521186.942 8  94691840.81547  23124706.200    23124702.560          49.300
        43.350
 120029800.033 8  93529708.98646  22840909.080    22840906.660          48.550
        41.050
 109185660.145 8  85079736.51348  20777322.780    20777316.300          50.750
        48.000
 117439215.776 8  91511055.61347  22347936.780    22347930.620          50.300
        43.700
 109532604.479 8  85350096.55947  20843350.240    20843345.620          50.700
        47.150
 11  9  3  0 55 15.0000000  0 11G12G04G25G29G13G31G05G30G02G23G10
 131830798.156 7 102725287.64146  25086568.600    25086566.900          45.250
        37.700
 119361413.858 8  93008910.61446  22713706.300    22713701.980          49.800
        41.550
 121925591.560 8  95006977.30347  23201665.180    23201664.500          49.750
        42.600
 116370607.324 8  90678401.98647  22144580.620    22144577.340          50.100
        45.500
 114099631.571 8  88908793.41047  21712434.740    21712429.620          51.000
        44.300
 126289889.625 7  98407699.39846  24032165.520    24032162.380          47.750
        40.450
 121470184.017 8  94652098.30247  23115000.620    23114997.100          49.350
        43.200
 120068327.827 8  93559730.61146  22848240.740    22848238.360          48.750
        41.250
 109186110.486 8  85080087.41448  20777408.460    20777402.040          50.800
        48.100
 117459905.512 8  91527177.49447  22351873.880    22351867.740          50.550
        43.250
 109531369.706 8  85349134.41347  20843115.240    20843110.640          50.800
        46.850
 11  9  3  0 55 30.0000000  0 11G12G04G25G29G13G31G05G30G02G23G10
 131887837.062 7 102769733.47746  25097422.940    25097420.940          47.050
        36.400
 119411691.773 8  93048088.20446  22723273.840    22723269.560          49.850
        40.800
 121966837.637 8  95039117.08347  23209514.100    23209513.360          49.800
        42.100
 116338802.378 8  90653618.92847  22138528.280    22138525.020          50.300
        45.700
 114091791.933 8  88902684.55447  21710942.940    21710937.800          51.000
        44.250
 126329777.210 7  98438780.63046  24039755.880    24039752.600          47.750
        40.000
 121419253.844 8  94612412.50547  23105308.940    23105305.380          49.700
        42.900
 120106982.575 8  93589851.15546  22855596.540    22855594.140          49.000
        40.350
 109186705.690 8  85080551.19948  20777521.720    20777515.360          50.950
        48.300
 117480740.856 8  91543412.78847  22355838.760    22355832.620          50.700
        43.600
 109530297.689 8  85348299.08747  20842911.180    20842906.620          50.850
        47.050
 11  9  3  0 55 45.0000000  0 11G12G04G25G29G13G31G05G30G02G23G10
 131944906.955 7 102814203.55045  25108283.180    25108280.360          46.200
        35.200
 119462047.517 8  93087326.45447  22732856.160    22732852.040          49.850
        42.150
 122008193.034 8  95071342.01547  23217383.780    23217383.060          49.800
        42.250
 116307123.316 8  90628933.96547  22132499.880    22132496.620          50.300
        46.100
 114084123.483 8  88896709.13347  21709483.680    21709478.540          51.000
        44.600
 126369767.672 7  98469941.96446  24047365.700    24047362.380          47.550
        39.550
 121368399.639 8  94572785.87247  23095631.720    23095628.080          49.750
        43.250
 120145766.837 8  93620072.61046  22862976.980    22862974.460          49.100
        40.750
 109187448.739 8  85081130.19048  20777663.100    20777656.780          50.850
        48.400
 117501724.754 8  91559763.86547  22359831.920    22359825.720          50.650
        43.850
 109529391.372 8  85347592.86847  20842738.640    20842734.180          50.750
        47.100
 11  9  3  0 56  0.0000000  0 11G12G04G25G29G13G31G05G30G02G23G10
 132002003.554 7 102858694.33446  25119148.360    25119146.000          46.950
        37.850
 119512476.474 8  93126621.71346  22742452.460    22742448.360          49.800
        41.750
 122049653.451 8  95103648.82947  23225273.500    23225272.800          49.700
        42.600
 116275566.321 8  90604344.10147  22126494.800    22126491.600          50.200
        45.950
 114076622.004 8  88890863.78947  21708056.160    21708051.020          50.900
        44.600
 126409856.837 7  98501180.27146  24054994.420    24054990.820          47.550
        39.950
 121317617.741 8  94533215.58647  23085968.280    23085964.420          49.650
        43.150
 120184676.257 8  93650391.62746  22870381.200    22870378.720          48.350
        40.900
 109188335.547 8  85081821.22148  20777831.800    20777825.580          50.750
        48.050
 117522852.926 8  91576227.32047  22363852.600    22363846.300          50.550
        43.750
 109528646.631 8  85347012.50947  20842596.920    20842592.480          50.650
        47.050
 11  9  3  0 56 15.0000000  0 11G12G04G25G29G13G31G05G30G02G23G10
 132059128.567 7 102903207.27646  25130019.100    25130017.020          46.700
        37.050
 119562980.854 8  93165975.79246  22752063.120    22752059.080          49.750
        41.950
 122091220.706 8  95136038.82047  23233183.540    23233182.880          49.600
        42.300
 116244133.999 8  90579851.38647  22120513.460    22120510.260          50.200
        45.800
 114069290.049 8  88885150.56647  21706660.960    21706655.840          50.950
        44.250
 126450046.424 7  98532496.79946  24062642.160    24062638.660          47.550
        39.450
 121266910.742 8  94493703.68247  23076319.080    23076315.180          49.800
        43.450
 120223712.752 8  93680809.64446  22877809.640    22877807.080          48.850
        41.550
 109189368.369 8  85082626.01848  20778028.320    20778022.060          50.850
        48.300
 117544127.501 8  91592804.87847  22367901.140    22367894.760          50.550
        43.650
 109528065.905 8  85346560.01047  20842486.420    20842482.000          50.650
        47.050
 11  9  3  0 56 30.0000000  0 11G12G04G25G29G13G31G05G30G02G23G10
 132116282.774 7 102947743.02845  25140895.240    25140892.180          44.950
        34.200
 119613561.383 8  93205389.21147  22761688.280    22761684.440          49.700
        42.550
 122132895.552 8  95168512.66247  23241114.000    23241113.360          49.300
        42.400
 116212827.517 8  90555456.73347  22114556.060    22114552.760          50.050
        46.100
 114062128.463 8  88879570.05247  21705298.220    21705293.020          50.850
        44.550
 126490337.064 7  98563892.07546  24070309.140    24070305.640          47.250
        40.400
 121216279.844 8  94454251.06147  23066684.380    23066680.420          49.450
        43.400
 120262876.952 8  93711327.16046  22885262.400    22885259.820          48.450
        41.000
 109190548.130 8  85083545.30248  20778252.860    20778246.560          50.700
        48.650
 117565549.369 8  91609497.19447  22371977.700    22371971.320          50.400
        43.800
 109527649.929 8  85346235.88147  20842407.300    20842402.860          50.550
        47.550
 11  9  3  0 56 45.0000000  0 11G12G04G25G29G13G31G05G30G02G23G10
 132173465.660 7 102992301.12246  25151776.880    25151773.920          45.950
        38.000
 119664217.195 8  93244861.29347  22771327.800    22771323.980          49.750
        42.200
 122174677.269 8  95201069.81647  23249064.800    23249064.260          49.400
        42.350
 116181646.740 8  90531160.00347  22108622.580    22108619.240          50.150
        46.000
 114055137.007 8  88874122.16647  21703967.840    21703962.580          50.850
        44.650
 126530728.074 7  98595365.51946  24077995.420    24077992.000          47.350
        40.400
 121165724.997 8  94414857.71347  23057064.100    23057060.080          49.700
        43.400
 120302168.061 8  93741943.54746  22892739.240    22892736.700          48.450
        40.450
 109191874.593 8  85084578.90348  20778505.340    20778498.960          50.750
        48.250
 117587117.848 8  91626303.79147  22376082.180    22376075.660          50.600
        43.550
 109527398.181 8  85346039.70847  20842359.480    20842354.940          50.650
        47.500
 11  9  3  0 57  0.0000000  0 11G12G04G25G29G13G31G05G30G02G23G10
 132230676.138 7 103036880.65146  25162663.780    25162661.540          45.750
        37.350
 119714947.510 8  93284391.40046  22780981.440    22780977.680          50.050
        41.950
 122216565.052 8  95233709.65147  23257035.780    23257035.180          49.750
        42.450
 116150591.475 8  90506961.09947  22102712.980    22102709.660          50.600
        45.850
 114048315.227 8  88868806.51247  21702669.740    21702664.460          51.300
        44.500
 126571218.763 7  98626916.63446  24085700.600    24085697.260          47.950
        40.200
 121115246.028 8  94375523.48847  23047458.240    23047454.060          50.050
        43.050
 120341585.268 8  93772658.20046  22900240.140    22900237.340          49.000
        39.400
 109193347.345 8  85085726.48848  20778785.620    20778779.280          51.050
        48.250
 117608832.127 8  91643223.89847  22380214.400    22380207.620          50.850
        43.300
 109527310.391 8  85345971.30447  20842342.860    20842338.280          51.050
        47.350
 11  9  3  0 57 15.0000000  0 11G12G04G25G29G13G31G05G30G02G23G10
 132287912.542 7 103081480.40045  25173555.460    25173552.980          44.700
        33.900
 119765750.862 8  93323978.42646  22790648.960    22790645.260          49.800
        41.900
 122258557.155 8  95266430.69847  23265026.600    23265026.040          49.550
        42.400
 116119660.699 8  90482859.20047  22096827.040    22096823.800          50.200
        46.100
 114041662.081 8  88863622.25547  21701403.700    21701398.440          51.100
        44.750
 126611807.611 7  98658544.27346  24093424.420    24093421.280          47.400
        40.100
 121064841.908 8  94336247.60247  23037866.620    23037862.540          49.850
        44.100
 120381127.032 8  93803469.91546  22907764.680    22907761.900          48.250
        40.650
 109194965.239 8  85086987.18348  20779093.460    20779087.220          50.850
        48.400
 117630690.920 8  91660256.64847  22384374.120    22384367.120          50.800
        43.350
 109527385.288 8  85346029.68247  20842357.240    20842352.600          51.000
        47.550
 11  9  3  0 57 30.0000000  0 11G12G04G25G29G13G31G05G30G02G23G10
 132345177.576 7 103126102.58145  25184452.740    25184449.600          45.400
        35.700
 119816630.008 8  93363624.51347  22800330.840    22800327.300          49.400
        42.250
 122300656.474 8  95299235.34846  23273037.880    23273037.280          49.650
        41.900
 116088857.794 8  90458856.94047  22090965.380    22090962.120          50.150
        45.900
 114035180.531 8  88858571.65747  21700170.280    21700165.020          51.000
        44.700
 126652497.340 7  98690250.51846  24101167.480    24101164.300          47.650
        39.650
 121014516.005 8  94297032.66547  23028289.900    23028285.880          49.950
        43.850
 120420796.007 8  93834380.77446  22915313.440    22915310.820          48.450
        40.300
 109196731.065 8  85088363.15748  20779429.500    20779423.260          50.950
        48.450
 117652697.248 8  91677404.46747  22388561.860    22388554.740          50.750
        43.350
 109527625.859 8  85346217.16447  20842403.100    20842398.460          51.050
        47.450
 11  9  3  0 57 45.0000000  0 11G12G04G25G29G13G31G05G30G02G23G10
 132402468.760 7 103170744.94246  25195354.800    25195352.460          43.550
        39.750
 119867582.164 8  93403327.47246  22810026.540    22810023.080          49.050
        41.350
 122342860.199 8  95332121.30047  23281069.040    23281068.360          49.750
        42.050
 116058180.583 8  90434952.59847  22085127.660    22085124.280          50.200
        45.950
 114028868.340 8  88853653.06347  21698969.080    21698963.920          50.950
        44.750
 126693285.189 7  98722033.21946  24108929.160    24108926.200          47.450
        41.400
 120964266.273 8  94257877.04547  23018727.640    23018723.620          49.800
        44.250
 120460589.590 8  93865388.74946  22922885.880    22922883.140          48.300
        41.000
 109198642.624 8  85089852.68748  20779793.340    20779787.000          51.000
        48.600
 117674848.358 8  91694665.05547  22392777.120    22392769.960          50.750
        43.550
 109528029.818 8  85346531.94847  20842480.000    20842475.380          50.900
        47.700
 11  9  3  0 58  0.0000000  0 11G12G04G25G29G13G31G05G30G02G23G10
 132459786.783 7 103215408.24246  25206261.980    25206260.000          44.850
        36.200
 119918608.348 8  93443088.15846  22819736.380    22819732.920          49.000
        41.100
 122385169.123 8  95365089.28546  23289120.240    23289119.460          49.550
        41.900
 116027630.282 8  90411147.17947  22079314.100    22079310.640          50.050
        45.800
 114022726.609 8  88848867.24347  21697800.300    21697795.220          50.950
        44.600
 126734171.701 7  98753892.77146  24116709.720    24116706.660          47.600
        40.650
 120914094.048 8  94218781.84147  23009180.160    23009176.080          49.750
        43.900
 120500508.363 8  93896494.25646  22930482.100    22930479.460          48.450
        40.750
 109200700.893 8  85091456.54348  20780185.120    20780178.600          50.950
        48.400
 117697145.161 8  91712039.21247  22397020.100    22397013.040          50.600
        43.300
 109528598.011 8  85346974.69347  20842588.120    20842583.500          50.850
        47.400
 11  9  3  0 58 15.0000000  0 11G12G04G25G29G13G31G05G30G02G23G10
 132517132.113 7 103260092.91546  25217174.320    25217171.900          42.550
        36.400
 119969709.194 8  93482907.01446  22829460.480    22829456.980          49.100
        41.000
 122427583.949 8  95398139.79646  23297191.460    23297190.720          49.150
        41.800
 115997208.230 8  90387441.68847  22073524.980    22073521.480          50.250
        46.100
 114016756.682 8  88844215.40347  21696664.260    21696659.280          51.000
        44.600
 126775157.919 7  98785830.07746  24124509.220    24124506.040          47.950
        40.800
 120864000.664 8  94179748.07447  22999647.620    22999643.600          49.750
        43.750
 120540553.050 8  93927697.86346  22938102.380    22938099.920          48.450
        40.350
 109202907.001 8  85093175.60548  20780604.960    20780598.380          50.950
        48.450
 117719588.245 8  91729527.30147  22401290.860    22401283.860          50.650
        43.150
 109529331.477 8  85347546.23447  20842727.660    20842723.060          50.900
        47.500
 11  9  3  0 58 30.0000000  0 11G12G04G25G29G13G31G05G30G02G23G10
 132574501.467 7 103304796.15246  25228091.160    25228089.140          45.150
        38.900
 120020881.310 8  93522781.40946  22839198.160    22839194.680          49.250
        40.750
 122470101.096 8  95431269.95346  23305282.120    23305281.480          49.150
        41.800
 115966911.800 8  90363834.07847  22067759.760    22067756.360          50.250
        46.050
 114010955.235 8  88839694.79547  21695560.240    21695555.340          50.950
        44.550
 126816240.357 7  98817842.31946  24132326.960    24132323.800          47.350
        40.900
 120813983.308 8  94140773.56847  22990129.500    22990125.680          49.650
        44.200
 120580720.176 8  93958996.87946  22945745.940    22945743.480          48.200
        40.900
 109205257.862 8  85095007.45548  20781052.260    20781045.680          50.800
        48.600
 117742174.685 8  91747127.09947  22405588.900    22405581.800          50.600
        42.850
 109530227.190 8  85348244.22047  20842898.080    20842893.480          50.950
        47.550
 11  9  3  0 58 45.0000000  0 11G12G04G25G29G13G31G05G30G02G23G10
 132631895.046 7 103349518.37046  25239013.000    25239011.420          44.900
        40.250
 120072124.885 8  93562711.48446  22848949.540    22848945.860          49.000
        41.500
 122512721.062 8  95464480.27746  23313392.420    23313391.860          48.600
        41.550
 115936741.730 8  90340324.92847  22062018.620    22062015.180          49.800
        46.150
 114005322.862 8  88835305.86547  21694488.420    21694483.500          50.600
        44.850
 126857419.238 7  98849929.72846  24140162.900    24140159.880          46.550
        40.300
 120764042.958 8  94101859.05947  22980626.040    22980622.380          49.150
        43.950
 120621010.076 7  93990391.54946  22953412.880    22953410.700          47.950
        41.250
 109207754.149 8  85096952.62248  20781527.220    20781520.720          50.400
        48.600
 117764904.807 8  91764838.85047  22409914.300    22409907.180          50.100
        43.600
 109531285.786 8  85349069.09247  20843099.520    20843094.880          50.600
        47.550
 11  9  3  0 59  0.0000000  0 11G12G04G25G29G13G31G05G30G02G23G10
 132689314.180 7 103394260.50846  25249939.300    25249937.860          42.400
        36.850
 120123441.218 8  93602698.27646  22858714.800    22858711.020          49.150
        41.850
 122555444.924 8  95497771.59847  23321522.540    23321521.980          49.200
        42.650
 115906699.693 8  90316915.54347  22056301.780    22056298.320          49.850
        45.950
 113999861.165 8  88831049.95447  21693449.080    21693444.220          50.600
        44.650
 126898695.631 7  98882093.11746  24148017.440    24148014.380          46.950
        40.200
 120714181.421 8  94063005.96747  22971137.580    22971133.980          49.250
        43.600
 120661423.853 7  94021882.76546  22961103.380    22961101.260          47.950
        41.000
 109210397.137 8  85099012.10148  20782030.180    20782023.660          50.700
        48.550
 117787779.661 8  91782663.33247  22414267.260    22414260.220          50.250
        43.900
 109532508.659 8  85350021.99247  20843332.180    20843327.500          50.650
        47.700
 11  9  3  0 59 15.0000000  0 11G12G04G25G29G13G31G05G30G02G23G10
 132746758.854 7 103439022.59246  25260870.720    25260868.920          46.550
        38.300
 120174830.278 8  93642741.69146  22868493.880    22868490.180          49.300
        41.900
 122598272.704 8  95531143.89246  23329672.480    23329671.940          48.900
        41.900
 115876786.428 8  90293606.48747  22050609.460    22050606.060          49.900
        46.400
 113994570.789 8  88826927.58847  21692442.360    21692437.580          50.650
        44.900
 126940069.779 7  98914332.72546  24155890.540    24155888.080          46.600
        40.900
 120664399.356 8  94024214.78447  22961664.220    22961660.720          49.100
        44.400
 120701961.538 8  94053470.55146  22968817.540    22968815.420          48.050
        40.850
 109213187.325 8  85101186.27748  20782561.200    20782554.560          50.700
        48.350
 117810799.646 8  91800600.92147  22418647.780    22418640.960          50.050
        43.150
 109533896.138 8  85351103.14547  20843596.240    20843591.420          50.700
        47.350
 11  9  3  0 59 30.0000000  0 11G12G04G25G29G13G31G05G30G02G23G10
 132804226.511 7 103483802.58046  25271806.660    25271804.840          45.200
        38.550
 120226289.866 8  93682840.06547  22878286.440    22878282.720          49.650
        42.050
 122641201.890 8  95564595.14846  23337841.680    23337841.160          49.100
        41.550
 115846999.939 8  90270396.23747  22044941.300    22044937.960          49.950
        46.200
 113989449.494 8  88822936.90947  21691467.800    21691463.140          50.600
        45.000
 126981539.297 7  98946646.65246  24163781.780    24163779.520          46.250
        40.450
 120614694.855 8  93985484.02347  22952205.700    22952202.340          49.250
        44.400
 120742620.654 7  94085152.94646  22976554.800    22976552.620          47.950
        40.750
 109216122.682 8  85103473.58648  20783119.760    20783113.120          50.750
        48.400
 117833962.718 8  91818650.11947  22423055.440    22423048.780          50.100
        43.400
 109535446.050 8  85352310.85047  20843891.180    20843886.300          50.850
        47.550
 11  9  3  0 59 45.0000000  0 11G12G04G25G29G13G31G05G30G02G23G10
 132861719.324 7 103528602.09046  25282746.920    25282745.460          44.950
        36.500
 120277821.732 8  93722994.71947  22888092.800    22888088.840          49.650
        42.300
 122684234.500 8  95598127.01246  23346030.620    23346030.060          49.250
        41.350
 115817342.833 8  90247286.81347  22039297.780    22039294.480          50.200
        46.500
 113984499.879 8  88819080.11947  21690525.840    21690521.360          50.550
        44.800
 127023105.961 7  98979036.21246  24171691.480    24171689.500          46.400
        40.500
 120565070.599 8  93946815.79147  22942762.420    22942759.220          49.400
        44.000
 120783403.237 8  94116931.56846  22984315.500    22984313.280          48.400
        40.400
 109219205.383 8  85105875.70048  20783706.240    20783699.720          50.550
        48.400
 117857270.650 8  91836812.10147  22427490.720    22427484.140          50.250
        43.000
 109537160.805 8  85353647.00847  20844217.480    20844212.560          50.800
        47.400
 11  9  3  1  0  0.0000000  0 11G12G04G25G29G13G31G05G30G02G23G10
 132919233.483 7 103573418.41246  25293691.780    25293689.640          47.000
        36.450
 120329422.638 8  93763203.21547  22897912.200    22897908.240          49.600
        42.300
 122727367.080 8  95631736.83247  23354238.580    23354237.940          49.400
        42.100
 115787812.035 8  90224275.81847  22033678.300    22033674.980          50.250
        46.600
 113979718.461 8  88815354.35547  21689615.860    21689611.480          50.550
        44.700
 127064766.145 7  99011498.60046  24179619.120    24179617.220          46.900
        40.200
 120515523.763 8  93908207.89447  22933333.860    22933330.720          49.350
        43.850
 120824305.540 8  94148803.49846  22992099.120    22992096.620          48.350
        40.950
 109222432.327 8  85108390.19448  20784320.160    20784313.800          50.600
        48.250
 117880719.958 8  91855084.22447  22431952.960    22431946.440          50.200
        43.150
 109539037.031 8  85355108.99147  20844574.480    20844569.620          50.800
        47.550
 11  9  3  1  0 15.0000000  0 11G12G04G25G29G13G31G05G30G02G23G10
 132976772.067 7 103618253.69746  25304641.280    25304639.000          44.000
        36.850
 120381095.486 8  93803467.75347  22907745.320    22907741.440          49.800
        42.350
 122770602.440 8  95665426.71146  23362466.000    23362465.320          49.400
        41.550
 115758411.118 8  90201366.01247  22028083.540    22028080.140          50.250
        46.550
 113975108.607 8  88811762.32747  21688738.540    21688734.160          50.600
        44.550
 127106522.964 7  99044036.34646  24187565.220    24187563.280          46.900
        39.850
 120466057.806 8  93869663.01947  22923920.720    22923917.600          49.650
        43.800
 120865330.548 8  94180771.00046  22999905.900    22999903.560          48.100
        40.450
 109225806.746 8  85111019.60148  20784962.200    20784955.980          50.750
        48.350
 117904313.993 8  91873469.17047  22436442.660    22436436.300          50.050
        42.950
 109541077.893 8  85356699.25447  20844962.800    20844958.040          50.900
        47.300
 11  9  3  1  0 30.0000000  0 11G12G04G25G29G13G31G05G30G02G23G10
 133034333.038 7 103663106.27045  25315594.460    25315592.540          44.150
        33.000
 120432838.239 8  93843786.76747  22917591.740    22917587.800          49.650
        42.050
 122813938.447 8  95699195.00846  23370712.620    23370712.020          49.250
        41.950
 115729138.668 8  90178556.31747  22022513.220    22022509.800          50.200
        46.400
 113970668.707 8  88808302.65247  21687893.640    21687889.200          50.500
        44.800
 127148374.248 7  99076647.69546  24195529.340    24195527.360          46.800
        40.300
 120416671.272 8  93831180.02047  22914522.780    22914519.660          49.350
        44.750
 120906476.152 7  94212832.47746  23007735.700    23007733.240          47.950
        41.400
 109229326.844 8  85113762.54748  20785632.040    20785625.880          50.650
        48.400
 117928050.649 8  91891965.28847  22440959.520    22440953.240          50.050
        43.250
 109543281.697 8  85358416.49647  20845382.140    20845377.480          50.650
        47.550
 11  9  3  1  0 45.0000000  0 11G12G04G25G29G13G31G05G30G02G23G10
 133091916.276 7 103707976.40445  25326552.460    25326549.780          47.900
        31.300
 120484651.036 8  93884160.34546  22927451.380    22927447.420          50.700
        40.650
 122857375.333 8  95733041.93046  23378978.420    23378977.760          50.400
        40.850
 115699995.272 8  90155847.18347  22016967.480    22016964.040          51.150
        45.650
 113966399.311 8  88804975.88747  21687081.240    21687076.760          51.550
        43.850
 127190320.304 8  99109332.90346  24203511.520    24203509.420          48.300
        38.250
 120367364.935 8  93792759.52847  22905140.120    22905137.080          50.550
        43.300
 120947742.492 8  94244988.03646  23015588.380    23015585.840          49.250
        39.700
 109232993.130 8  85116619.39947  20786329.680    20786323.620          51.400
        47.350
 117951930.187 8  91910572.71247  22445503.680    22445497.360          51.100
        42.700
 109545648.951 8  85360261.11647  20845832.580    20845828.040          51.550
        46.600
 11  9  3  1  1  0.0000000  0 11G12G04G25G29G13G31G05G30G02G23G10
 133149522.036 6 103752863.92745  25337514.420    25337511.760          41.200
        33.750
 120536533.833 8  93924588.49046  22937324.400    22937320.360          50.250
        41.150
 122900912.921 8  95766967.30946  23387263.380    23387262.700          50.050
        41.750
 115670981.511 8  90133239.06447  22011446.400    22011442.940          50.850
        46.200
 113962300.625 8  88801782.12047  21686301.280    21686296.740          51.000
        43.850
 127232361.037 7  99142091.88546  24211511.780    24211509.420          47.550
        38.900
 120318139.496 8  93754402.07647  22895772.800    22895769.720          50.100
        43.950
 120989129.486 8  94277237.61546  23023464.020    23023461.700          49.100
        40.050
 109236805.834 8  85119590.35248  20787055.120    20787049.140          51.000
        48.100
 117975952.476 8  91929291.33747  22450075.020    22450068.840          50.750
        43.100
 109548179.792 8  85362233.19747  20846314.180    20846309.700          51.300
        47.050
 11  9  3  1  1 15.0000000  0 11G12G04G25G29G13G31G05G30G02G23G10
 133207149.532 7 103797768.35745  25348480.280    25348478.340          45.650
        32.250
 120588486.005 8  93965070.67546  22947210.600    22947206.540          49.750
        41.550
 122944550.549 8  95800970.60047  23395567.380    23395566.820          49.950
        42.600
 115642097.254 8  90110731.85647  22005949.960    22005946.460          50.750
        46.650
 113958372.250 8  88798721.05447  21685553.700    21685549.120          50.800
        44.200
 127274495.641 7  99174923.96846  24219529.880    24219527.620          47.150
        40.550
 120268994.599 8  93716107.37347  22886420.800    22886417.720          49.700
        44.600
 121030636.465 8  94309580.74046  23031362.580    23031360.140          48.000
        41.200
 109240764.734 8  85122675.21748  20787808.440    20787802.480          50.850
        48.550
 118000116.908 8  91948120.61347  22454673.400    22454667.280          50.400
        43.550
 109550873.741 8  85364332.35447  20846826.840    20846822.420          51.050
        47.550
 11  9  3  1  1 30.0000000  0 11G12G04G25G29G13G31G05G30G02G23G10
 133264801.431 7 103842692.06445  25359451.220    25359447.880          44.650
        31.350
 120640510.317 8  94005609.07446  22957110.500    22957106.340          49.400
        41.100
 122988291.002 8  95835054.04846  23403890.980    23403890.440          49.650
        41.800
 115613345.862 8  90088328.18247  22000478.760    22000475.200          50.650
        46.600
 113954617.487 8  88795795.29847  21684839.140    21684834.580          50.700
        44.700
 127316726.982 7  99207831.44346  24227566.300    24227564.180          46.700
        39.750
 120219933.698 8  93677878.12347  22877084.740    22877081.680          49.600
        44.300
 121072266.073 8  94342019.40846  23039284.360    23039281.860          48.400
        40.550
 109244872.721 8  85125876.26448  20788590.220    20788584.200          50.850
        48.800
 118024426.788 8  91967063.27947  22459299.480    22459293.380          50.350
        43.550
 109553734.007 8  85366561.10447  20847371.200    20847366.680          51.000
        47.700
 11  9  3  1  1 45.0000000  0 11G12G04G25G29G13G31G05G30G02G23G10
 133322471.979 7 103887630.02946  25370425.260    25370422.900          44.250
        36.050
 120692601.016 8  94046199.21946  22967023.000    22967018.820          49.550
        41.100
 123032128.505 8  95869213.13146  23412232.980    23412232.380          49.700
        41.800
 115584722.070 8  90066023.92547  21995031.820    21995028.260          50.550
        46.700
 113951030.810 8  88793000.50547  21684156.600    21684152.080          50.750
        44.400
 127359049.327 7  99240809.88746  24235620.120    24235617.660          47.100
        39.800
 120170951.757 8  93639710.40347  22867763.760    22867760.640          49.800
        44.200
 121114012.492 8  94374549.09846  23047228.480    23047225.960          48.450
        40.400
 109249124.376 8  85129189.26148  20789399.380    20789393.260          50.950
        48.650
 118048876.411 8  91986114.95647  22463952.120    22463946.040          50.250
        43.000
 109556755.114 8  85368915.29147  20847946.160    20847941.580          51.100
        47.750
 11  9  3  1  2  0.0000000  0 11G12G04G25G29G13G31G05G30G02G23G10
 133380162.324 7 103932583.51545  25381403.520    25381401.740          46.750
        35.600
 120744759.243 8  94086841.97446  22976948.440    22976944.180          49.450
        40.800
 123076064.115 8  95903448.66047  23420593.660    23420593.060          49.550
        42.100
 115556227.525 8  90043820.38647  21989609.460    21989605.920          50.550
        46.750
 113947613.658 8  88790337.77547  21683506.300    21683501.860          50.650
        44.800
 127401463.745 7  99273860.12746  24243691.460    24243688.740          47.050
        40.050
 120122050.536 8  93601605.57447  22858458.220    22858454.940          49.750
        44.050
 121155876.717 8  94407170.53846  23055194.920    23055192.460          48.350
        40.900
 109253521.096 8  85132615.28048  20790236.120    20790229.940          50.900
        48.650
 118073466.806 8  92005276.23947  22468631.540    22468625.440          50.400
        43.150
 109559938.241 8  85371395.64047  20848551.920    20848547.320          50.950
        47.650
 11  9  3  1  2 15.0000000  0 11G12G04G25G29G13G31G05G30G02G23G10
 133437874.508 7 103977554.09744  25392385.880    25392382.960          44.050
        29.800
 120796987.115 8  94127538.98446  22986887.060    22986882.940          49.150
        41.350
 123120099.730 8  95937762.08647  23428973.380    23428972.820          49.450
        42.050
 115527864.856 8  90021719.59647  21984212.180    21984208.680          50.550
        46.450
 113944368.421 8  88787809.01147  21682888.720    21682884.360          50.550
        45.000
 127443972.058 7  99306983.47746  24251780.660    24251777.700          47.500
        39.550
 120073232.586 8  93563565.64547  22849168.500    22849165.120          49.650
        44.350
 121197860.779 8  94439885.37846  23063184.380    23063181.820          48.700
        40.550
 109258065.225 8  85136156.16448  20791100.860    20791094.620          50.850
        48.800
 118098200.169 8  92024548.94647  22473338.220    22473332.040          50.350
        43.550
 109563285.654 8  85374003.98547  20849188.920    20849184.380          50.850
        47.700
 11  9  3  1  2 30.0000000  0 11G12G04G25G29G13G31G05G30G02G23G10
 133495606.015 7 104022539.70646  25403371.860    25403369.100          46.800
        36.600
 120849282.219 8  94168288.35546  22996838.480    22996834.380          49.900
        40.600
 123164233.082 8  95972151.68046  23437371.660    23437371.200          49.950
        41.850
 115499632.299 8  89999720.21847  21978839.680    21978836.200          50.800
        46.150
 113941293.124 8  88785412.66347  21682303.520    21682299.180          51.100
        44.350
 127486571.993 8  99340178.19246  24259887.260    24259884.200          48.050
        38.850
 120024496.254 8  93525589.32847  22839894.280    22839890.900          50.050
        44.200
 121239962.442 8  94472691.86446  23071196.140    23071193.680          48.800
        40.250
 109262754.779 8  85139810.37548  20791993.300    20791987.000          51.300
        48.050
 118123074.356 8  92043931.42847  22478071.700    22478065.380          50.800
        42.850
 109566795.485 8  85376738.93047  20849856.800    20849852.320          51.250
        47.100
 11  9  3  1  2 45.0000000  0 11G12G04G25G29G13G31G05G30G02G23G10
 133553358.106 7 104067541.27846  25414361.900    25414360.020          45.750
        38.050
 120901646.025 8  94209091.32146  23006802.960    23006798.780          49.450
        40.900
 123208465.454 8  96006618.43846  23445788.820    23445788.560          49.800
        41.650
 115471531.719 8  89977823.67447  21973492.260    21973488.800          50.400
        46.350
 113938389.328 8  88783149.89447  21681751.040    21681746.580          50.950
        44.800
 127529264.836 7  99373445.30046  24268011.560    24268008.520          47.550
        39.600
 119975843.439 8  93487678.07647  22830636.020    22830632.680          49.850
        44.350
 121282182.839 8  94505590.86346  23079230.440    23079227.960          48.450
        40.500
 109267591.301 8  85143579.10348  20792913.720    20792907.340          51.050
        48.450
 118148090.404 8  92063424.37047  22482832.200    22482825.860          50.450
        42.800
 109570469.246 8  85379601.57247  20850555.900    20850551.460          51.000
        47.450
 11  9  3  1  3  0.0000000  0 11G12G04G25G29G13G31G05G30G02G23G10
 133611129.096 7 104112557.51345  25425355.320    25425353.500          43.400
        32.150
 120954076.510 8  94249946.21546  23016780.140    23016776.060          49.300
        41.050
 123252794.844 8  96041160.78246  23454224.460    23454224.080          49.150
        41.350
 115443561.709 8  89956028.86947  21968169.700    21968166.260          50.400
        46.550
 113935655.745 8  88781019.83347  21681230.980    21681226.420          50.800
        44.550
 127572048.773 7  99406783.38046  24276153.200    24276149.920          47.400
        39.950
 119927272.796 8  93449830.84847  22821393.380    22821389.980          49.650
        44.850
 121324519.998 8  94538580.84546  23087286.960    23087284.200          48.050
        39.850
 109272573.164 8  85147461.07248  20793861.820    20793855.320          50.900
        48.600
 118173246.952 8  92083026.84147  22487619.380    22487613.060          50.200
        42.600
 109574305.348 8  85382590.76547  20851285.860    20851281.460          50.800
        47.350
 11  9  3  1  3 15.0000000  0 11G12G04G25G29G13G31G05G30G02G23G10
 133668919.728 7 104157589.35245  25436352.660    25436349.880          46.450
        35.000
 121006574.685 8  94290853.87646  23026770.200    23026766.240          49.450
        41.350
 123297222.312 8  96075779.57547  23462678.720    23462678.440          49.400
        42.350
 115415723.805 8  89934336.99047  21962872.320    21962868.920          50.450
        46.450
 113933093.448 8  88779023.21347  21680743.540    21680738.900          50.950
        44.700
 127614924.734 7  99440193.18446  24284312.360    24284308.940          47.650
        39.650
 119878785.989 8  93412048.93647  22812166.680    22812163.200          49.800
        44.550
 121366974.881 7  94571662.55346  23095365.800    23095363.200          47.900
        40.250
 109277701.711 8  85151457.32048  20794837.780    20794831.280          50.900
        48.200
 118198544.890 8  92102739.44647  22492433.400    22492427.100          50.200
        42.650
 109578304.987 8  85385707.35547  20852046.960    20852042.580          50.750
        47.350
 11  9  3  1  3 30.0000000  0 11G12G04G25G29G13G31G05G30G02G23G10
 133726731.082 6 104202637.11446  25447353.900    25447351.720          41.950
        36.350
 121059141.643 8  94331815.12146  23036773.320    23036769.440          49.200
        40.650
 123341748.747 8  96110475.47946  23471151.740    23471151.500          49.250
        41.400
 115388019.613 8  89912749.30147  21957600.360    21957596.980          50.100
        46.350
 113930703.857 8  88777161.23547  21680288.960    21680284.160          50.850
        44.650
 127657893.514 7  99473675.32246  24292489.160    24292485.680          47.350
        39.600
 119830384.567 8  93374333.56847  22802956.260    22802952.660          49.800
        44.150
 121409548.438 8  94604836.75346  23103467.300    23103464.760          48.100
        40.550
 109282978.334 8  85155568.94848  20795841.900    20795835.460          50.800
        48.400
 118223985.297 8  92122563.12747  22497274.620    22497268.220          50.300
        42.550
 109582469.293 8  85388952.27247  20852839.380    20852835.040          50.850
        47.400
 11  9  3  1  3 45.0000000  0 11G12G04G25G29G13G31G05G30G02G23G10
 133784558.462 7 104247697.20145  25458357.740    25458356.100          44.150
        35.750
 121111772.528 8  94372826.19146  23046788.600    23046784.760          49.000
        40.950
 123386369.280 8  96145244.70846  23479642.700    23479642.520          49.100
        41.650
 115360444.760 8  89891262.38947  21952353.000    21952349.600          50.150
        46.300
 113928482.664 8  88775430.49547  21679866.360    21679861.420          50.800
        44.650
 127700950.484 7  99507226.17346  24300682.660    24300679.080          47.000
        39.550
 119782064.326 8  93336681.45147  22793761.260    22793757.460          49.750
        44.050
 121452235.719 8  94638099.54546  23111590.460    23111587.820          48.100
        40.550
 109288398.280 8  85159792.29748  20796873.280    20796866.820          50.750
        48.300
 118249563.480 8  92142494.20647  22502142.040    22502135.540          50.150
        42.750
 109586793.714 8  85392321.95547  20853662.280    20853657.960          50.800
        47.300
 11  9  3  1  4  0.0000000  0 11G12G04G25G29G13G31G05G30G02G23G10
 133842403.373 7 104292771.28645  25469365.480    25469363.060          45.700
        31.100
 121164469.138 8  94413888.44746  23056816.360    23056812.660          49.100
        40.650
 123431085.719 8  96180088.65746  23488151.880    23488151.700          49.100
        40.950
 115333001.625 8  89869878.13047  21947130.740    21947127.320          50.400
        46.350
 113926431.768 8  88773832.43547  21679476.080    21679471.080          50.950
        44.750
 127744097.492 7  99540847.17546  24308893.260    24308889.760          46.800
        39.700
 119733827.835 8  93299094.60847  22784582.140    22784578.140          50.000
        44.200
 121495038.613 8  94671452.43446  23119735.620    23119732.980          48.300
        40.350
 109293963.641 8  85164128.96248  20797932.340    20797925.880          50.900
        48.650
 118275281.422 8  92162534.21547  22507035.980    22507029.460          50.150
        42.400
 109591280.413 8  85395818.06847  20854516.060    20854511.740          50.750
        47.550
 11  9  3  1  4 15.0000000  0 10G04G25G29G13G31G05G30G02G23G10
 121217233.042 8  94455003.14946  23066856.960    23066853.320          49.150
        40.750
 123475899.529 8  96215008.50646  23496679.620    23496679.220          48.750
        40.600
 115305692.256 8  89848598.09447  21941933.920    21941930.540          50.450
        46.250
 113924553.014 8  88772368.48547  21679118.540    21679113.500          50.850
        44.550
 127787335.992 7  99574539.48646  24317121.220    24317117.900          47.050
        39.650
 119685677.044 8  93261574.52347  22775419.360    22775415.220          50.050
        44.200
 121537958.466 8  94704896.46346  23127903.000    23127900.600          48.500
        39.800
 109299676.661 8  85168580.67848  20799019.540    20799012.960          51.000
        48.350
 118301140.411 8  92182684.04647  22511956.680    22511950.240          50.050
        42.550
 109595931.125 8  85399441.97747  20855401.040    20855396.760          50.850
        47.250
 11  9  3  1  4 30.0000000  0 11G12G04G25G29G13G31G05G30G02G23G10
 133958138.156 7 104382969.29746  25491390.980    25491389.660          45.550
        38.850
 121270059.420 8  94496166.53846  23076909.500    23076905.980          49.000
        40.250
 123520805.739 8  96250000.31746  23505224.920    23505224.520          48.900
        41.300
 115278512.217 8  89827418.81847  21936761.740    21936758.380          50.400
        46.300
 113922841.938 8  88771035.23647  21678792.940    21678787.820          50.950
        44.450
 127830660.985 7  99608299.17846  24325365.660    24325362.500          47.200
        39.600
 119637607.634 8  93224117.86047  22766272.080    22766268.000          49.950
        44.200
 121580990.378 8  94738427.79646  23136091.760    23136089.380          48.650
        40.200
 109305532.460 8  85173143.64148  20800133.880    20800127.220          50.950
        48.400
 118327135.989 8  92202940.33547  22516903.460    22516897.160          50.300
        42.750
 109600741.182 8  85403190.06147  20856316.340    20856312.120          50.850
        47.150
 11  9  3  1  4 45.0000000  0 11G12G04G25G29G13G31G05G30G02G23G10
 134016041.747 7 104428088.99345  25502409.880    25502407.880          43.100
        35.200
 121322959.261 8  94537387.14846  23086975.980    23086972.400          49.200
        41.000
 123565815.330 8  96285072.68746  23513790.020    23513789.560          48.700
        40.450
 115251473.210 8  89806349.44647  21931616.400    21931613.100          50.550
        46.550
 113921309.617 8  88769841.17547  21678501.360    21678496.080          51.050
        44.500
 127874083.395 7  99642134.78746  24333628.680    24333625.560          47.400
        39.900
 119589631.233 8  93186733.67747  22757142.460    22757138.460          50.000
        44.750
 121624145.289 8  94772054.98146  23144303.860    23144301.540          48.100
        40.800
 109311542.147 8  85177826.50048  20801277.480    20801270.820          51.050
        48.450
 118353278.939 8  92223311.38947  22521878.340    22521872.120          50.300
        42.800
 109605721.829 8  85407071.03747  20857264.100    20857259.880          50.850
        47.500
 11  9  3  1  5  0.0000000  0 11G12G04G25G29G13G31G05G30G02G23G10
 134073962.391 6 104473221.92145  25513429.200    25513428.960          40.900
        34.600
 121375924.230 8  94578658.54246  23097054.880    23097051.340          49.200
        40.950
 123610919.930 8  96320219.12246  23522373.100    23522372.760          48.750
        41.150
 115224567.289 8  89785383.79347  21926496.400    21926493.140          50.550
        46.650
 113919948.213 8  88768780.32747  21678242.300    21678236.980          50.950
        44.600
 127917594.939 7  99676039.85446  24341908.620    24341905.620          47.250
        39.600
 119541740.009 8  93149415.84547  22748029.060    22748025.100          50.000
        44.650
 121667414.831 8  94805771.52146  23152537.760    23152535.380          48.550
        41.050
 109317697.736 8  85182623.07048  20802448.880    20802442.200          51.100
        48.400
 118379561.331 8  92243791.18347  22526879.740    22526873.480          50.350
        43.050
 109610865.000 8  85411078.71847  20858242.800    20858238.520          50.800
        47.550
